Time,TemperatureF,DewpointF,PressureIn,WindDirection,WindDirectionDegrees,WindSpeedMPH,WindSpeedGustMPH,Humidity,HourlyPrecipIn,Conditions,Clouds,dailyrainin,SoftwareType,DateUTC
2013-10-08 00:00:00,44.8,39.9,30.12,East,101,8.4,11.6,83,0.00,,,0.00,VWS V14.01,2013-10-08 04:00:00,
2013-10-08 00:01:00,45.0,40.1,30.12,North,359,0.0,14.7,83,0.00,,,0.00,VWS V14.01,2013-10-08 04:01:00,
2013-10-08 00:02:00,44.8,39.9,30.12,NE,48,3.0,14.7,83,0.00,,,0.00,VWS V14.01,2013-10-08 04:02:00,
2013-10-08 00:03:00,44.9,40.0,30.12,NNE,21,2.6,14.7,83,0.00,,,0.00,VWS V14.01,2013-10-08 04:03:00,
2013-10-08 00:04:00,44.6,40.2,30.13,NNW,338,8.4,20.1,84,0.00,,,0.00,VWS V14.01,2013-10-08 04:04:00,
2013-10-08 00:05:00,44.4,40.1,30.13,North,359,6.0,20.1,85,0.00,,,0.00,VWS V14.01,2013-10-08 04:05:00,
2013-10-08 00:06:00,44.4,40.1,30.13,NW,325,8.4,20.1,85,0.00,,,0.00,VWS V14.01,2013-10-08 04:06:00,
2013-10-08 00:07:00,44.5,40.2,30.13,ENE,72,13.6,20.1,85,0.00,,,0.00,VWS V14.01,2013-10-08 04:07:00,
2013-10-08 00:08:00,44.9,40.1,30.13,NNE,24,0.0,16.4,83,0.00,,,0.00,VWS V14.01,2013-10-08 04:08:00,
2013-10-08 00:09:00,44.4,40.2,30.13,ESE,107,20.7,25.0,85,0.00,,,0.00,VWS V14.01,2013-10-08 04:09:00,
2013-10-08 00:10:00,44.7,40.0,30.13,East,90,5.0,16.4,83,0.00,,,0.00,VWS V14.01,2013-10-08 04:10:00,
2013-10-08 00:11:00,44.3,40.2,30.13,ESE,121,0.0,27.8,85,0.00,,,0.00,VWS V14.01,2013-10-08 04:11:00,
2013-10-08 00:12:00,44.3,40.1,30.13,ENE,69,5.0,27.8,85,0.00,,,0.00,VWS V14.01,2013-10-08 04:12:00,
2013-10-08 00:13:00,44.2,40.0,30.13,NE,53,6.9,27.8,85,0.00,,,0.00,VWS V14.01,2013-10-08 04:13:00,
2013-10-08 00:14:00,44.3,40.1,30.13,ENE,77,6.7,27.8,85,0.00,,,0.00,VWS V14.01,2013-10-08 04:14:00,
2013-10-08 00:15:00,44.7,40.0,30.13,East,94,1.3,21.4,83,0.00,,,0.00,VWS V14.01,2013-10-08 04:15:00,
2013-10-08 00:16:00,44.2,40.0,30.13,ENE,68,1.9,27.8,85,0.00,,,0.00,VWS V14.01,2013-10-08 04:16:00,
2013-10-08 00:17:00,44.2,40.1,30.13,North,4,0.6,27.8,85,0.00,,,0.00,VWS V14.01,2013-10-08 04:17:00,
2013-10-08 00:18:00,44.3,40.2,30.13,NE,53,9.3,27.8,85,0.00,,,0.00,VWS V14.01,2013-10-08 04:18:00,
2013-10-08 00:19:00,44.3,40.2,30.13,NNE,27,0.0,27.8,85,0.00,,,0.00,VWS V14.01,2013-10-08 04:19:00,
2013-10-08 00:20:00,44.7,40.0,30.13,ENE,68,9.9,21.4,83,0.00,,,0.00,VWS V14.01,2013-10-08 04:20:00,
2013-10-08 00:21:00,44.2,40.1,30.13,NE,35,8.9,27.8,85,0.00,,,0.00,VWS V14.01,2013-10-08 04:21:00,
2013-10-08 00:22:00,44.2,40.1,30.13,NNW,342,3.7,27.8,85,0.00,,,0.00,VWS V14.01,2013-10-08 04:22:00,
2013-10-08 00:23:00,44.2,40.1,30.13,ENE,60,3.2,27.8,85,0.00,,,0.00,VWS V14.01,2013-10-08 04:23:00,
2013-10-08 00:24:00,44.1,40.0,30.13,East,79,7.6,27.8,86,0.00,,,0.00,VWS V14.01,2013-10-08 04:24:00,
2013-10-08 00:25:00,44.6,39.9,30.13,North,352,2.4,26.5,83,0.00,,,0.00,VWS V14.01,2013-10-08 04:25:00,
2013-10-08 00:26:00,44.2,40.1,30.13,ENE,72,21.1,27.8,86,0.00,,,0.00,VWS V14.01,2013-10-08 04:26:00,
2013-10-08 00:27:00,44.2,40.1,30.13,East,79,5.4,27.8,85,0.00,,,0.00,VWS V14.01,2013-10-08 04:27:00,
2013-10-08 00:28:00,44.2,40.2,30.13,NE,46,15.3,27.8,86,0.00,,,0.00,VWS V14.01,2013-10-08 04:28:00,
2013-10-08 00:29:00,44.1,40.1,30.13,ENE,68,19.9,29.5,86,0.00,,,0.00,VWS V14.01,2013-10-08 04:29:00,
2013-10-08 00:30:00,44.7,40.0,30.13,NE,48,7.5,26.5,84,0.00,,,0.00,VWS V14.01,2013-10-08 04:30:00,
2013-10-08 00:31:00,44.2,40.2,30.13,ENE,60,3.0,29.5,86,0.00,,,0.00,VWS V14.01,2013-10-08 04:31:00,
2013-10-08 00:32:00,44.2,40.3,30.13,ESE,107,11.9,29.5,86,0.00,,,0.00,VWS V14.01,2013-10-08 04:32:00,
2013-10-08 00:33:00,44.2,40.2,30.13,North,8,0.6,29.5,86,0.00,,,0.00,VWS V14.01,2013-10-08 04:33:00,
2013-10-08 00:34:00,44.1,40.1,30.13,ESE,115,11.9,29.5,86,0.00,,,0.00,VWS V14.01,2013-10-08 04:34:00,
2013-10-08 00:35:00,44.7,40.1,30.13,NE,39,7.6,28.9,84,0.00,,,0.00,VWS V14.01,2013-10-08 04:35:00,
2013-10-08 00:36:00,44.1,40.2,30.13,ESE,105,14.9,29.5,86,0.00,,,0.00,VWS V14.01,2013-10-08 04:36:00,
2013-10-08 00:37:00,44.1,40.2,30.13,North,357,7.3,29.5,86,0.00,,,0.00,VWS V14.01,2013-10-08 04:37:00,
2013-10-08 00:38:00,44.1,40.2,30.13,NNW,340,0.0,29.5,86,0.00,,,0.00,VWS V14.01,2013-10-08 04:38:00,
2013-10-08 00:39:00,44.1,40.2,30.13,NE,38,0.0,29.5,86,0.00,,,0.00,VWS V14.01,2013-10-08 04:39:00,
2013-10-08 00:40:00,44.6,40.0,30.13,East,80,25.0,28.9,84,0.00,,,0.00,VWS V14.01,2013-10-08 04:40:00,
2013-10-08 00:41:00,44.0,40.1,30.13,ENE,76,22.7,29.5,86,0.00,,,0.00,VWS V14.01,2013-10-08 04:41:00,
2013-10-08 00:42:00,44.0,40.1,30.13,NNE,20,5.8,29.5,86,0.00,,,0.00,VWS V14.01,2013-10-08 04:42:00,
2013-10-08 00:43:00,44.0,40.1,30.13,NE,45,8.9,29.5,86,0.00,,,0.00,VWS V14.01,2013-10-08 04:43:00,
2013-10-08 00:44:00,44.0,40.1,30.13,North,7,6.9,29.5,86,0.00,,,0.00,VWS V14.01,2013-10-08 04:44:00,
2013-10-08 00:45:00,44.7,40.2,30.13,NNW,343,6.0,28.9,84,0.00,,,0.00,VWS V14.01,2013-10-08 04:45:00,
2013-10-08 00:46:00,44.1,40.2,30.13,North,6,6.2,29.5,86,0.00,,,0.00,VWS V14.01,2013-10-08 04:46:00,
2013-10-08 00:47:00,44.0,40.1,30.13,North,11,0.9,29.5,86,0.00,,,0.00,VWS V14.01,2013-10-08 04:47:00,
2013-10-08 00:48:00,44.0,40.2,30.13,NNE,21,8.6,29.5,86,0.00,,,0.00,VWS V14.01,2013-10-08 04:48:00,
2013-10-08 00:49:00,44.1,40.2,30.13,NW,325,4.5,29.5,86,0.00,,,0.00,VWS V14.01,2013-10-08 04:49:00,
2013-10-08 00:50:00,44.0,40.2,30.13,ENE,60,2.1,29.5,86,0.00,,,0.00,VWS V14.01,2013-10-08 04:50:00,
2013-10-08 00:51:00,44.0,40.2,30.13,NNE,28,4.7,29.5,86,0.00,,,0.00,VWS V14.01,2013-10-08 04:51:00,
2013-10-08 00:52:00,44.0,40.1,30.13,North,7,2.2,29.5,86,0.00,,,0.00,VWS V14.01,2013-10-08 04:52:00,
2013-10-08 00:53:00,44.1,40.2,30.13,ESE,108,14.9,29.5,86,0.00,,,0.00,VWS V14.01,2013-10-08 04:53:00,
2013-10-08 00:54:00,44.1,40.2,30.13,North,354,5.2,29.5,86,0.00,,,0.00,VWS V14.01,2013-10-08 04:54:00,
2013-10-08 00:55:00,44.0,40.2,30.13,NE,49,10.6,29.5,86,0.00,,,0.00,VWS V14.01,2013-10-08 04:55:00,
2013-10-08 00:56:00,44.0,40.2,30.13,NE,38,11.9,29.5,86,0.00,,,0.00,VWS V14.01,2013-10-08 04:56:00,
2013-10-08 00:57:00,44.0,40.2,30.14,NNE,17,3.4,29.5,86,0.00,,,0.00,VWS V14.01,2013-10-08 04:57:00,
2013-10-08 00:58:00,44.1,40.3,30.13,NE,45,3.4,29.5,86,0.00,,,0.00,VWS V14.01,2013-10-08 04:58:00,
2013-10-08 00:59:00,44.0,40.2,30.13,NNE,24,6.5,29.5,86,0.00,,,0.00,VWS V14.01,2013-10-08 04:59:00,
2013-10-08 01:00:00,44.0,40.2,30.13,East,91,12.3,29.5,86,0.00,,,0.00,VWS V14.01,2013-10-08 05:00:00,
2013-10-08 01:01:00,44.0,40.3,30.13,East,93,8.6,16.4,87,0.00,,,0.00,VWS V14.01,2013-10-08 05:01:00,
2013-10-08 01:02:00,44.0,40.2,30.13,ENE,72,0.0,16.4,86,0.00,,,0.00,VWS V14.01,2013-10-08 05:02:00,
2013-10-08 01:03:00,44.1,40.4,30.13,NNE,30,10.3,23.9,87,0.00,,,0.00,VWS V14.01,2013-10-08 05:03:00,
2013-10-08 01:04:00,44.0,40.4,30.13,NE,53,2.8,23.9,87,0.00,,,0.00,VWS V14.01,2013-10-08 05:04:00,
2013-10-08 01:05:00,44.0,40.3,30.13,NE,37,2.8,23.9,87,0.00,,,0.00,VWS V14.01,2013-10-08 05:05:00,
2013-10-08 01:06:00,43.9,40.2,30.13,ENE,77,9.3,23.9,87,0.00,,,0.00,VWS V14.01,2013-10-08 05:06:00,
2013-10-08 01:07:00,43.9,40.3,30.13,NE,34,1.5,23.9,87,0.00,,,0.00,VWS V14.01,2013-10-08 05:07:00,
2013-10-08 01:08:00,44.0,40.4,30.13,ENE,63,7.3,23.9,87,0.00,,,0.00,VWS V14.01,2013-10-08 05:08:00,
2013-10-08 01:09:00,43.9,40.3,30.13,NE,44,13.0,23.9,87,0.00,,,0.00,VWS V14.01,2013-10-08 05:09:00,
2013-10-08 01:10:00,44.0,40.4,30.13,NE,42,13.8,23.9,87,0.00,,,0.00,VWS V14.01,2013-10-08 05:10:00,
2013-10-08 01:11:00,43.9,40.3,30.13,NE,35,7.5,23.9,87,0.00,,,0.00,VWS V14.01,2013-10-08 05:11:00,
2013-10-08 01:12:00,43.9,40.3,30.13,ENE,72,8.6,23.9,87,0.00,,,0.00,VWS V14.01,2013-10-08 05:12:00,
2013-10-08 01:13:00,43.9,40.3,30.13,NW,325,0.0,23.9,87,0.00,,,0.00,VWS V14.01,2013-10-08 05:13:00,
2013-10-08 01:14:00,43.9,40.4,30.13,North,359,19.4,24.6,87,0.00,,,0.00,VWS V14.01,2013-10-08 05:14:00,
2013-10-08 01:15:00,43.9,40.4,30.13,NNW,339,4.7,24.6,87,0.00,,,0.00,VWS V14.01,2013-10-08 05:15:00,
2013-10-08 01:16:00,43.9,40.3,30.13,North,350,2.8,24.6,87,0.00,,,0.00,VWS V14.01,2013-10-08 05:16:00,
2013-10-08 01:17:00,43.8,40.3,30.13,ENE,77,6.9,25.0,88,0.00,,,0.00,VWS V14.01,2013-10-08 05:17:00,
2013-10-08 01:18:00,43.9,40.4,30.13,ENE,63,0.0,25.0,87,0.00,,,0.00,VWS V14.01,2013-10-08 05:18:00,
2013-10-08 01:19:00,43.9,40.5,30.13,ESE,117,7.3,25.0,88,0.00,,,0.00,VWS V14.01,2013-10-08 05:19:00,
2013-10-08 01:20:00,43.9,40.5,30.13,North,6,2.6,25.0,88,0.00,,,0.00,VWS V14.01,2013-10-08 05:20:00,
2013-10-08 01:21:00,43.8,40.3,30.13,North,350,5.2,25.0,88,0.00,,,0.00,VWS V14.01,2013-10-08 05:21:00,
2013-10-08 01:22:00,43.9,40.5,30.13,NNE,31,10.8,29.3,88,0.00,,,0.00,VWS V14.01,2013-10-08 05:22:00,
2013-10-08 01:23:00,43.9,40.5,30.13,East,101,2.8,29.3,88,0.00,,,0.00,VWS V14.01,2013-10-08 05:23:00,
2013-10-08 01:24:00,43.8,40.5,30.13,ENE,60,11.2,32.2,88,0.00,,,0.00,VWS V14.01,2013-10-08 05:24:00,
2013-10-08 01:25:00,43.8,40.5,30.13,East,97,16.2,32.2,88,0.00,,,0.00,VWS V14.01,2013-10-08 05:25:00,
2013-10-08 01:26:00,43.8,40.5,30.13,North,11,6.5,32.2,88,0.00,,,0.00,VWS V14.01,2013-10-08 05:26:00,
2013-10-08 01:27:00,43.9,40.6,30.13,North,11,7.1,32.2,88,0.00,,,0.00,VWS V14.01,2013-10-08 05:27:00,
2013-10-08 01:28:00,43.8,40.5,30.13,SE,128,4.5,32.2,88,0.00,,,0.00,VWS V14.01,2013-10-08 05:28:00,
2013-10-08 01:29:00,43.8,40.5,30.13,NE,55,1.9,32.2,88,0.00,,,0.00,VWS V14.01,2013-10-08 05:29:00,
2013-10-08 01:30:00,43.7,40.4,30.13,ESE,112,5.8,32.2,88,0.00,,,0.00,VWS V14.01,2013-10-08 05:30:00,
2013-10-08 01:31:00,43.9,40.7,30.13,NNE,14,7.5,32.2,88,0.00,,,0.00,VWS V14.01,2013-10-08 05:31:00,
2013-10-08 01:32:00,43.7,40.5,30.13,ENE,59,0.0,32.2,88,0.00,,,0.00,VWS V14.01,2013-10-08 05:32:00,
2013-10-08 01:33:00,43.9,40.6,30.13,ESE,107,12.1,32.2,88,0.00,,,0.00,VWS V14.01,2013-10-08 05:33:00,
2013-10-08 01:34:00,43.8,40.5,30.13,NNW,343,4.3,32.2,88,0.00,,,0.00,VWS V14.01,2013-10-08 05:34:00,
2013-10-08 01:35:00,43.8,40.5,30.13,NW,305,4.8,32.2,88,0.00,,,0.00,VWS V14.01,2013-10-08 05:35:00,
2013-10-08 01:36:00,43.8,40.6,30.13,North,7,5.8,32.2,88,0.00,,,0.00,VWS V14.01,2013-10-08 05:36:00,
2013-10-08 01:37:00,43.8,40.6,30.13,East,91,10.8,32.2,88,0.00,,,0.00,VWS V14.01,2013-10-08 05:37:00,
2013-10-08 01:38:00,43.8,40.6,30.13,East,84,6.5,32.2,88,0.00,,,0.00,VWS V14.01,2013-10-08 05:38:00,
2013-10-08 01:39:00,43.9,40.7,30.13,ENE,60,11.9,32.2,88,0.00,,,0.00,VWS V14.01,2013-10-08 05:39:00,
2013-10-08 01:40:00,43.9,40.8,30.13,East,90,24.8,32.2,89,0.00,,,0.00,VWS V14.01,2013-10-08 05:40:00,
2013-10-08 01:41:00,43.9,40.7,30.13,North,11,8.6,32.2,88,0.00,,,0.00,VWS V14.01,2013-10-08 05:41:00,
2013-10-08 01:42:00,43.9,40.8,30.13,ESE,118,16.6,32.2,89,0.00,,,0.00,VWS V14.01,2013-10-08 05:42:00,
2013-10-08 01:43:00,44.0,40.9,30.13,NE,48,14.7,32.2,89,0.00,,,0.00,VWS V14.01,2013-10-08 05:43:00,
2013-10-08 01:44:00,43.8,40.7,30.13,South,187,4.7,32.2,89,0.00,,,0.00,VWS V14.01,2013-10-08 05:44:00,
2013-10-08 01:45:00,43.9,40.8,30.13,ENE,62,0.0,32.2,89,0.00,,,0.00,VWS V14.01,2013-10-08 05:45:00,
2013-10-08 01:46:00,43.9,40.8,30.13,ESE,111,11.9,32.2,89,0.00,,,0.00,VWS V14.01,2013-10-08 05:46:00,
2013-10-08 01:47:00,44.0,40.9,30.13,NNE,18,6.2,32.2,89,0.00,,,0.00,VWS V14.01,2013-10-08 05:47:00,
2013-10-08 01:48:00,43.9,40.7,30.13,NNW,328,0.0,32.2,88,0.00,,,0.00,VWS V14.01,2013-10-08 05:48:00,
2013-10-08 01:49:00,44.0,40.8,30.13,NNE,15,2.1,32.2,88,0.00,,,0.00,VWS V14.01,2013-10-08 05:49:00,
2013-10-08 01:50:00,44.0,40.9,30.13,East,80,9.5,32.2,89,0.00,,,0.00,VWS V14.01,2013-10-08 05:50:00,
2013-10-08 01:51:00,44.0,41.0,30.13,East,84,18.3,32.2,89,0.00,,,0.00,VWS V14.01,2013-10-08 05:51:00,
2013-10-08 01:52:00,43.9,40.8,30.13,NE,49,0.0,32.2,89,0.00,,,0.00,VWS V14.01,2013-10-08 05:52:00,
2013-10-08 01:53:00,43.9,40.8,30.13,East,79,2.4,32.2,89,0.00,,,0.00,VWS V14.01,2013-10-08 05:53:00,
2013-10-08 01:54:00,44.0,40.9,30.13,NNE,14,4.3,32.2,89,0.00,,,0.00,VWS V14.01,2013-10-08 05:54:00,
2013-10-08 01:55:00,43.9,40.8,30.13,NE,34,14.9,32.2,89,0.00,,,0.00,VWS V14.01,2013-10-08 05:55:00,
2013-10-08 01:56:00,43.9,40.9,30.13,East,91,3.0,32.2,89,0.00,,,0.00,VWS V14.01,2013-10-08 05:56:00,
2013-10-08 01:57:00,44.0,41.0,30.13,ESE,105,16.2,32.2,89,0.00,,,0.00,VWS V14.01,2013-10-08 05:57:00,
2013-10-08 01:58:00,43.9,40.9,30.13,North,1,13.6,32.2,89,0.00,,,0.00,VWS V14.01,2013-10-08 05:58:00,
2013-10-08 01:59:00,43.9,40.9,30.13,ESE,110,6.9,32.2,89,0.00,,,0.00,VWS V14.01,2013-10-08 05:59:00,
2013-10-08 02:00:00,43.9,40.9,30.13,East,90,15.7,32.2,89,0.00,,,0.00,VWS V14.01,2013-10-08 06:00:00,
2013-10-08 02:01:00,43.9,40.9,30.13,NNW,338,3.2,15.7,89,0.00,,,0.00,VWS V14.01,2013-10-08 06:01:00,
2013-10-08 02:02:00,43.9,40.9,30.13,North,359,4.8,15.7,89,0.00,,,0.00,VWS V14.01,2013-10-08 06:02:00,
2013-10-08 02:03:00,44.0,41.0,30.14,SSE,150,6.3,15.7,89,0.00,,,0.00,VWS V14.01,2013-10-08 06:03:00,
2013-10-08 02:04:00,43.9,40.9,30.13,NW,326,2.1,28.7,89,0.00,,,0.00,VWS V14.01,2013-10-08 06:04:00,
2013-10-08 02:05:00,44.0,41.0,30.14,NE,37,5.8,28.7,89,0.00,,,0.00,VWS V14.01,2013-10-08 06:05:00,
2013-10-08 02:06:00,43.9,40.9,30.14,East,83,2.8,28.7,89,0.00,,,0.00,VWS V14.01,2013-10-08 06:06:00,
2013-10-08 02:07:00,44.0,41.0,30.14,ESE,115,11.6,28.7,89,0.00,,,0.00,VWS V14.01,2013-10-08 06:07:00,
2013-10-08 02:08:00,44.0,41.0,30.13,SE,134,2.6,28.7,89,0.00,,,0.00,VWS V14.01,2013-10-08 06:08:00,
2013-10-08 02:09:00,43.9,40.9,30.14,ENE,69,7.6,28.7,89,0.00,,,0.00,VWS V14.01,2013-10-08 06:09:00,
2013-10-08 02:10:00,44.0,41.0,30.14,East,84,6.7,28.7,89,0.00,,,0.00,VWS V14.01,2013-10-08 06:10:00,
2013-10-08 02:11:00,44.0,41.0,30.14,SSE,160,6.3,28.7,89,0.00,,,0.00,VWS V14.01,2013-10-08 06:11:00,
2013-10-08 02:12:00,43.9,40.9,30.14,North,359,4.7,28.7,89,0.00,,,0.00,VWS V14.01,2013-10-08 06:12:00,
2013-10-08 02:13:00,43.9,40.9,30.14,ENE,58,0.0,28.7,89,0.00,,,0.00,VWS V14.01,2013-10-08 06:13:00,
2013-10-08 02:14:00,43.9,41.0,30.14,East,100,3.9,33.9,89,0.00,,,0.00,VWS V14.01,2013-10-08 06:14:00,
2013-10-08 02:15:00,44.0,41.0,30.14,NNE,30,5.0,33.9,89,0.00,,,0.00,VWS V14.01,2013-10-08 06:15:00,
2013-10-08 02:16:00,44.0,41.1,30.14,NNE,14,5.0,33.9,89,0.00,,,0.00,VWS V14.01,2013-10-08 06:16:00,
2013-10-08 02:17:00,43.9,41.0,30.14,ENE,73,3.0,33.9,90,0.00,,,0.00,VWS V14.01,2013-10-08 06:17:00,
2013-10-08 02:18:00,44.0,41.1,30.14,NNE,17,6.0,33.9,90,0.00,,,0.00,VWS V14.01,2013-10-08 06:18:00,
2013-10-08 02:19:00,43.9,41.0,30.14,East,90,3.4,33.9,90,0.00,,,0.00,VWS V14.01,2013-10-08 06:19:00,
2013-10-08 02:20:00,43.9,41.1,30.14,SW,222,8.4,33.9,90,0.00,,,0.00,VWS V14.01,2013-10-08 06:20:00,
2013-10-08 02:21:00,43.8,41.0,30.14,NNE,28,11.4,33.9,90,0.00,,,0.00,VWS V14.01,2013-10-08 06:21:00,
2013-10-08 02:22:00,43.8,41.0,30.14,NE,55,18.6,33.9,90,0.00,,,0.00,VWS V14.01,2013-10-08 06:22:00,
2013-10-08 02:24:00,43.9,41.0,30.14,East,84,0.0,33.9,90,0.00,,,0.00,VWS V14.01,2013-10-08 06:24:00,
2013-10-08 02:25:00,43.8,41.0,30.14,NE,55,15.7,33.9,90,0.00,,,0.00,VWS V14.01,2013-10-08 06:25:00,
2013-10-08 02:26:00,43.8,41.0,30.14,ESE,110,5.8,33.9,90,0.00,,,0.00,VWS V14.01,2013-10-08 06:26:00,
2013-10-08 02:27:00,43.8,41.0,30.14,North,7,2.4,33.9,90,0.00,,,0.00,VWS V14.01,2013-10-08 06:27:00,
2013-10-08 02:28:00,43.9,41.1,30.15,North,7,0.0,33.9,90,0.00,,,0.00,VWS V14.01,2013-10-08 06:28:00,
2013-10-08 02:29:00,43.8,41.0,30.14,East,97,14.2,33.9,90,0.00,,,0.00,VWS V14.01,2013-10-08 06:29:00,
2013-10-08 02:30:00,43.7,40.9,30.14,East,82,2.4,33.9,90,0.00,,,0.00,VWS V14.01,2013-10-08 06:30:00,
2013-10-08 02:31:00,43.8,41.0,30.15,NE,53,12.5,33.9,90,0.00,,,0.00,VWS V14.01,2013-10-08 06:31:00,
2013-10-08 02:32:00,43.7,40.9,30.14,NNE,28,0.0,33.9,90,0.00,,,0.00,VWS V14.01,2013-10-08 06:32:00,
2013-10-08 02:33:00,43.8,41.0,30.15,NNE,28,0.0,33.9,90,0.00,,,0.00,VWS V14.01,2013-10-08 06:33:00,
2013-10-08 02:34:00,43.7,41.0,30.15,North,7,8.9,33.9,90,0.00,,,0.00,VWS V14.01,2013-10-08 06:34:00,
2013-10-08 02:35:00,43.8,41.1,30.15,NE,46,10.4,33.9,90,0.00,,,0.00,VWS V14.01,2013-10-08 06:35:00,
2013-10-08 02:36:00,43.9,41.2,30.15,NE,46,6.2,33.9,90,0.00,,,0.00,VWS V14.01,2013-10-08 06:36:00,
2013-10-08 02:37:00,43.7,41.0,30.15,East,86,0.0,33.9,90,0.00,,,0.00,VWS V14.01,2013-10-08 06:37:00,
2013-10-08 02:38:00,43.8,41.1,30.15,East,86,0.0,33.9,90,0.00,,,0.00,VWS V14.01,2013-10-08 06:38:00,
2013-10-08 02:39:00,43.9,41.2,30.15,East,80,9.3,33.9,90,0.00,,,0.00,VWS V14.01,2013-10-08 06:39:00,
2013-10-08 02:40:00,43.8,41.1,30.15,NNE,14,8.4,33.9,90,0.00,,,0.00,VWS V14.01,2013-10-08 06:40:00,
2013-10-08 02:41:00,43.7,41.1,30.15,ESE,104,2.6,33.9,90,0.00,,,0.00,VWS V14.01,2013-10-08 06:41:00,
2013-10-08 02:42:00,43.7,41.1,30.15,NE,44,4.1,33.9,90,0.00,,,0.00,VWS V14.01,2013-10-08 06:42:00,
2013-10-08 02:43:00,43.7,41.1,30.15,NE,49,0.0,33.9,90,0.00,,,0.00,VWS V14.01,2013-10-08 06:43:00,
2013-10-08 02:44:00,43.8,41.2,30.15,NNE,30,0.0,33.9,90,0.00,,,0.00,VWS V14.01,2013-10-08 06:44:00,
2013-10-08 02:45:00,43.7,41.0,30.15,North,7,2.1,33.9,90,0.00,,,0.00,VWS V14.01,2013-10-08 06:45:00,
2013-10-08 02:46:00,43.7,41.1,30.15,North,7,0.0,33.9,91,0.00,,,0.00,VWS V14.01,2013-10-08 06:46:00,
2013-10-08 02:47:00,43.8,41.3,30.15,NE,44,18.1,33.9,91,0.00,,,0.00,VWS V14.01,2013-10-08 06:47:00,
2013-10-08 02:48:00,43.7,41.1,30.15,ESE,103,8.6,33.9,91,0.00,,,0.00,VWS V14.01,2013-10-08 06:48:00,
2013-10-08 02:49:00,43.8,41.2,30.15,NE,39,2.6,33.9,90,0.00,,,0.00,VWS V14.01,2013-10-08 06:49:00,
2013-10-08 02:50:00,43.8,41.2,30.15,NE,46,9.7,33.9,90,0.00,,,0.00,VWS V14.01,2013-10-08 06:50:00,
2013-10-08 02:51:00,43.7,41.1,30.16,NE,44,7.5,33.9,90,0.00,,,0.00,VWS V14.01,2013-10-08 06:51:00,
2013-10-08 02:52:00,43.8,41.2,30.15,North,7,6.2,33.9,90,0.00,,,0.00,VWS V14.01,2013-10-08 06:52:00,
2013-10-08 02:53:00,43.8,41.2,30.15,SSE,152,3.4,33.9,90,0.00,,,0.00,VWS V14.01,2013-10-08 06:53:00,
2013-10-08 02:54:00,43.7,41.2,30.15,NE,53,5.0,33.9,91,0.00,,,0.00,VWS V14.01,2013-10-08 06:54:00,
2013-10-08 02:55:00,43.8,41.2,30.15,ENE,69,17.3,33.9,91,0.00,,,0.00,VWS V14.01,2013-10-08 06:55:00,
2013-10-08 02:56:00,43.7,41.2,30.16,North,6,0.0,33.9,91,0.00,,,0.00,VWS V14.01,2013-10-08 06:56:00,
2013-10-08 02:57:00,43.7,41.2,30.16,NE,56,4.7,33.9,91,0.00,,,0.00,VWS V14.01,2013-10-08 06:57:00,
2013-10-08 02:58:00,43.7,41.2,30.16,ENE,77,6.3,33.9,91,0.00,,,0.00,VWS V14.01,2013-10-08 06:58:00,
2013-10-08 02:59:00,43.6,41.1,30.16,NNE,13,12.3,33.9,91,0.00,,,0.00,VWS V14.01,2013-10-08 06:59:00,
2013-10-08 03:00:00,43.7,41.3,30.16,NE,42,15.3,33.9,91,0.00,,,0.00,VWS V14.01,2013-10-08 07:00:00,
2013-10-08 03:01:00,43.7,41.2,30.16,NNE,22,0.6,19.0,91,0.00,,,0.00,VWS V14.01,2013-10-08 07:01:00,
2013-10-08 03:02:00,43.7,41.3,30.16,North,0,3.5,19.0,91,0.00,,,0.00,VWS V14.01,2013-10-08 07:02:00,
2013-10-08 03:03:00,43.6,41.2,30.16,East,79,11.2,19.0,91,0.00,,,0.00,VWS V14.01,2013-10-08 07:03:00,
2013-10-08 03:04:00,43.6,41.2,30.16,NNE,31,5.6,19.0,91,0.00,,,0.00,VWS V14.01,2013-10-08 07:04:00,
2013-10-08 03:05:00,43.6,41.2,30.16,North,11,6.2,19.0,91,0.00,,,0.00,VWS V14.01,2013-10-08 07:05:00,
2013-10-08 03:06:00,43.6,41.2,30.16,SE,138,6.0,19.0,91,0.00,,,0.00,VWS V14.01,2013-10-08 07:06:00,
2013-10-08 03:07:00,43.7,41.2,30.16,ENE,58,0.0,19.0,91,0.00,,,0.00,VWS V14.01,2013-10-08 07:07:00,
2013-10-08 03:08:00,43.6,41.2,30.16,North,6,0.0,19.0,91,0.00,,,0.00,VWS V14.01,2013-10-08 07:08:00,
2013-10-08 03:09:00,43.4,41.0,30.16,North,0,0.0,24.0,91,0.00,,,0.00,VWS V14.01,2013-10-08 07:09:00,
2013-10-08 03:10:00,43.5,41.1,30.16,NE,46,7.1,24.0,91,0.00,,,0.00,VWS V14.01,2013-10-08 07:10:00,
2013-10-08 03:11:00,43.4,41.0,30.16,NNE,27,6.7,24.0,91,0.00,,,0.00,VWS V14.01,2013-10-08 07:11:00,
2013-10-08 03:12:00,43.6,41.2,30.16,ENE,69,0.0,24.0,91,0.00,,,0.00,VWS V14.01,2013-10-08 07:12:00,
2013-10-08 03:13:00,43.5,41.1,30.16,East,89,8.2,24.0,91,0.00,,,0.00,VWS V14.01,2013-10-08 07:13:00,
2013-10-08 03:14:00,43.5,41.1,30.16,East,83,5.2,24.0,91,0.00,,,0.00,VWS V14.01,2013-10-08 07:14:00,
2013-10-08 03:15:00,43.4,41.1,30.16,South,173,3.7,24.0,92,0.00,,,0.00,VWS V14.01,2013-10-08 07:15:00,
2013-10-08 03:16:00,43.4,41.1,30.16,NW,316,1.9,24.0,92,0.00,,,0.00,VWS V14.01,2013-10-08 07:16:00,
2013-10-08 03:17:00,43.3,40.9,30.16,NW,316,0.0,24.0,91,0.00,,,0.00,VWS V14.01,2013-10-08 07:17:00,
2013-10-08 03:18:00,43.3,41.0,30.16,ESE,103,0.0,24.0,92,0.00,,,0.00,VWS V14.01,2013-10-08 07:18:00,
2013-10-08 03:19:00,43.4,41.1,30.17,ESE,103,0.0,24.0,91,0.00,,,0.00,VWS V14.01,2013-10-08 07:19:00,
2013-10-08 03:20:00,43.4,41.1,30.17,NE,44,1.3,24.0,91,0.00,,,0.00,VWS V14.01,2013-10-08 07:20:00,
2013-10-08 03:21:00,43.5,41.2,30.17,ENE,63,12.9,24.0,91,0.00,,,0.00,VWS V14.01,2013-10-08 07:21:00,
2013-10-08 03:22:00,43.4,41.1,30.17,ENE,77,15.7,24.0,92,0.00,,,0.00,VWS V14.01,2013-10-08 07:22:00,
2013-10-08 03:23:00,43.3,41.0,30.17,East,84,0.0,24.0,92,0.00,,,0.00,VWS V14.01,2013-10-08 07:23:00,
2013-10-08 03:24:00,43.3,41.1,30.17,East,84,0.0,24.0,92,0.00,,,0.00,VWS V14.01,2013-10-08 07:24:00,
2013-10-08 03:25:00,43.4,41.3,30.17,North,11,11.9,24.0,92,0.00,,,0.00,VWS V14.01,2013-10-08 07:25:00,
2013-10-08 03:26:00,43.3,41.3,30.17,East,100,0.7,24.0,93,0.00,,,0.00,VWS V14.01,2013-10-08 07:26:00,
2013-10-08 03:27:00,43.2,41.1,30.17,North,8,1.1,24.0,92,0.00,,,0.00,VWS V14.01,2013-10-08 07:27:00,
2013-10-08 03:28:00,43.3,41.2,30.17,NE,42,3.0,24.0,92,0.00,,,0.00,VWS V14.01,2013-10-08 07:28:00,
2013-10-08 03:29:00,43.2,41.1,30.17,NNE,15,0.0,24.0,92,0.00,,,0.00,VWS V14.01,2013-10-08 07:29:00,
2013-10-08 03:30:00,43.2,41.2,30.17,NE,37,0.0,24.0,92,0.00,,,0.00,VWS V14.01,2013-10-08 07:30:00,
2013-10-08 03:31:00,43.2,41.3,30.17,NE,44,3.4,24.0,93,0.00,,,0.00,VWS V14.01,2013-10-08 07:31:00,
2013-10-08 03:32:00,43.2,41.3,30.17,ENE,69,0.0,24.0,93,0.00,,,0.00,VWS V14.01,2013-10-08 07:32:00,
2013-10-08 03:33:00,43.2,41.3,30.17,NNE,32,0.0,24.0,93,0.00,,,0.00,VWS V14.01,2013-10-08 07:33:00,
2013-10-08 03:34:00,43.2,41.3,30.17,NNE,32,0.0,24.0,93,0.00,,,0.00,VWS V14.01,2013-10-08 07:34:00,
2013-10-08 03:35:00,43.2,41.3,30.17,NNE,32,6.2,24.0,93,0.00,,,0.00,VWS V14.01,2013-10-08 07:35:00,
2013-10-08 03:36:00,43.2,41.3,30.17,East,79,0.0,24.0,93,0.00,,,0.00,VWS V14.01,2013-10-08 07:36:00,
2013-10-08 03:37:00,43.3,41.4,30.17,East,79,0.0,24.0,93,0.00,,,0.00,VWS V14.01,2013-10-08 07:37:00,
2013-10-08 03:38:00,43.3,41.4,30.17,NNE,31,0.0,24.0,93,0.00,,,0.00,VWS V14.01,2013-10-08 07:38:00,
2013-10-08 03:39:00,43.2,41.4,30.17,NNE,31,0.0,24.0,93,0.00,,,0.00,VWS V14.01,2013-10-08 07:39:00,
2013-10-08 03:40:00,43.1,41.3,30.17,ESE,121,0.0,24.0,93,0.00,,,0.00,VWS V14.01,2013-10-08 07:40:00,
2013-10-08 03:41:00,43.1,41.3,30.18,ESE,121,0.0,24.0,93,0.00,,,0.00,VWS V14.01,2013-10-08 07:41:00,
2013-10-08 03:42:00,43.2,41.4,30.18,East,80,5.2,24.0,93,0.00,,,0.00,VWS V14.01,2013-10-08 07:42:00,
2013-10-08 03:43:00,43.3,41.5,30.18,NNE,27,0.0,24.0,93,0.00,,,0.00,VWS V14.01,2013-10-08 07:43:00,
2013-10-08 03:44:00,43.1,41.3,30.18,ENE,72,7.5,24.0,93,0.00,,,0.00,VWS V14.01,2013-10-08 07:44:00,
2013-10-08 03:45:00,43.1,41.3,30.18,SE,143,0.0,24.0,93,0.00,,,0.00,VWS V14.01,2013-10-08 07:45:00,
2013-10-08 03:46:00,43.1,41.3,30.18,SSE,160,0.0,24.0,93,0.00,,,0.00,VWS V14.01,2013-10-08 07:46:00,
2013-10-08 03:47:00,43.3,41.5,30.18,SSE,160,0.0,24.0,93,0.00,,,0.00,VWS V14.01,2013-10-08 07:47:00,
2013-10-08 03:48:00,43.2,41.4,30.18,SSE,160,0.0,24.0,93,0.00,,,0.00,VWS V14.01,2013-10-08 07:48:00,
2013-10-08 03:49:00,43.1,41.4,30.18,South,187,0.7,24.0,94,0.00,,,0.00,VWS V14.01,2013-10-08 07:49:00,
2013-10-08 03:50:00,43.2,41.5,30.18,SE,143,7.1,26.1,94,0.00,,,0.00,VWS V14.01,2013-10-08 07:50:00,
2013-10-08 03:51:00,43.2,41.5,30.18,East,93,0.0,26.1,94,0.00,,,0.00,VWS V14.01,2013-10-08 07:51:00,
2013-10-08 03:52:00,43.2,41.5,30.18,ENE,73,2.6,26.1,94,0.00,,,0.00,VWS V14.01,2013-10-08 07:52:00,
2013-10-08 03:53:00,43.1,41.4,30.18,ENE,73,0.0,26.1,94,0.00,,,0.00,VWS V14.01,2013-10-08 07:53:00,
2013-10-08 03:54:00,43.2,41.5,30.19,East,79,6.0,26.1,94,0.00,,,0.00,VWS V14.01,2013-10-08 07:54:00,
2013-10-08 03:55:00,43.3,41.6,30.19,NE,39,0.0,26.1,94,0.00,,,0.00,VWS V14.01,2013-10-08 07:55:00,
2013-10-08 03:56:00,43.2,41.6,30.19,NE,39,0.0,26.1,94,0.00,,,0.00,VWS V14.01,2013-10-08 07:56:00,
2013-10-08 03:57:00,43.1,41.4,30.19,SSW,198,1.7,26.1,94,0.00,,,0.00,VWS V14.01,2013-10-08 07:57:00,
2013-10-08 03:58:00,43.2,41.5,30.19,SE,125,3.2,26.1,94,0.00,,,0.00,VWS V14.01,2013-10-08 07:58:00,
2013-10-08 03:59:00,43.1,41.4,30.18,ENE,65,2.2,26.1,94,0.00,,,0.00,VWS V14.01,2013-10-08 07:59:00,
2013-10-08 04:00:00,43.1,41.4,30.19,ENE,65,0.0,26.1,94,0.00,,,0.00,VWS V14.01,2013-10-08 08:00:00,
2013-10-08 04:01:00,43.2,41.5,30.19,ENE,65,0.0,0.0,94,0.00,,,0.00,VWS V14.01,2013-10-08 08:01:00,
2013-10-08 04:02:00,43.2,41.5,30.19,ENE,65,0.0,0.0,94,0.00,,,0.00,VWS V14.01,2013-10-08 08:02:00,
2013-10-08 04:03:00,43.1,41.4,30.19,ENE,70,0.0,7.1,94,0.00,,,0.00,VWS V14.01,2013-10-08 08:03:00,
2013-10-08 04:04:00,43.2,41.5,30.19,ENE,70,0.0,17.7,94,0.00,,,0.00,VWS V14.01,2013-10-08 08:04:00,
2013-10-08 04:05:00,43.2,41.5,30.19,ENE,60,6.9,17.7,94,0.00,,,0.00,VWS V14.01,2013-10-08 08:05:00,
2013-10-08 04:06:00,43.2,41.5,30.19,East,82,0.0,17.7,94,0.00,,,0.00,VWS V14.01,2013-10-08 08:06:00,
2013-10-08 04:07:00,43.2,41.5,30.19,South,180,4.8,17.7,94,0.00,,,0.00,VWS V14.01,2013-10-08 08:07:00,
2013-10-08 04:08:00,43.1,41.4,30.19,NE,51,3.7,17.7,94,0.00,,,0.00,VWS V14.01,2013-10-08 08:08:00,
2013-10-08 04:09:00,43.1,41.4,30.19,NE,51,0.0,17.7,94,0.00,,,0.00,VWS V14.01,2013-10-08 08:09:00,
2013-10-08 04:10:00,43.2,41.5,30.19,East,89,2.8,17.7,94,0.00,,,0.00,VWS V14.01,2013-10-08 08:10:00,
2013-10-08 04:11:00,43.2,41.5,30.19,NNE,25,2.8,17.7,94,0.00,,,0.00,VWS V14.01,2013-10-08 08:11:00,
2013-10-08 04:12:00,43.1,41.5,30.19,NE,51,0.0,17.7,94,0.00,,,0.00,VWS V14.01,2013-10-08 08:12:00,
2013-10-08 04:13:00,43.3,41.6,30.19,NE,51,8.9,17.7,94,0.00,,,0.00,VWS V14.01,2013-10-08 08:13:00,
2013-10-08 04:14:00,43.1,41.5,30.19,ENE,62,5.6,17.7,94,0.00,,,0.00,VWS V14.01,2013-10-08 08:14:00,
2013-10-08 04:15:00,43.2,41.5,30.19,ESE,110,0.0,17.7,94,0.00,,,0.00,VWS V14.01,2013-10-08 08:15:00,
2013-10-08 04:16:00,43.2,41.6,30.19,ENE,73,3.2,17.7,94,0.00,,,0.00,VWS V14.01,2013-10-08 08:16:00,
2013-10-08 04:17:00,43.1,41.5,30.19,SSW,194,1.7,17.7,94,0.00,,,0.00,VWS V14.01,2013-10-08 08:17:00,
2013-10-08 04:18:00,43.1,41.5,30.19,SSW,194,0.0,17.7,94,0.00,,,0.00,VWS V14.01,2013-10-08 08:18:00,
2013-10-08 04:19:00,43.1,41.5,30.19,SSW,194,0.0,17.7,94,0.00,,,0.00,VWS V14.01,2013-10-08 08:19:00,
2013-10-08 04:20:00,43.2,41.6,30.19,SSW,194,0.0,17.7,94,0.00,,,0.00,VWS V14.01,2013-10-08 08:20:00,
2013-10-08 04:21:00,43.2,41.6,30.19,SE,142,8.6,17.7,94,0.00,,,0.00,VWS V14.01,2013-10-08 08:21:00,
2013-10-08 04:22:00,43.1,41.5,30.19,SE,129,0.0,17.7,94,0.00,,,0.00,VWS V14.01,2013-10-08 08:22:00,
2013-10-08 04:23:00,43.1,41.5,30.19,ENE,60,1.1,17.7,94,0.00,,,0.00,VWS V14.01,2013-10-08 08:23:00,
2013-10-08 04:24:00,43.1,41.5,30.19,ENE,60,0.0,17.7,94,0.00,,,0.00,VWS V14.01,2013-10-08 08:24:00,
2013-10-08 04:25:00,43.1,41.5,30.19,ENE,60,0.0,17.7,94,0.00,,,0.00,VWS V14.01,2013-10-08 08:25:00,
2013-10-08 04:26:00,43.1,41.5,30.20,ENE,60,2.4,17.7,94,0.00,,,0.00,VWS V14.01,2013-10-08 08:26:00,
2013-10-08 04:27:00,43.1,41.5,30.20,ENE,60,0.0,17.7,94,0.00,,,0.00,VWS V14.01,2013-10-08 08:27:00,
2013-10-08 04:28:00,43.1,41.5,30.20,ENE,60,0.0,17.7,94,0.00,,,0.00,VWS V14.01,2013-10-08 08:28:00,
2013-10-08 04:29:00,43.0,41.5,30.20,NNW,333,9.9,17.7,94,0.00,,,0.00,VWS V14.01,2013-10-08 08:29:00,
2013-10-08 04:30:00,43.1,41.5,30.20,NE,44,0.0,17.7,94,0.00,,,0.00,VWS V14.01,2013-10-08 08:30:00,
2013-10-08 04:31:00,43.1,41.5,30.20,NE,44,0.0,17.7,94,0.00,,,0.00,VWS V14.01,2013-10-08 08:31:00,
2013-10-08 04:32:00,43.0,41.4,30.20,SE,143,3.0,17.7,94,0.00,,,0.00,VWS V14.01,2013-10-08 08:32:00,
2013-10-08 04:33:00,43.1,41.5,30.20,East,96,9.9,17.7,94,0.00,,,0.00,VWS V14.01,2013-10-08 08:33:00,
2013-10-08 04:34:00,43.0,41.4,30.20,North,8,0.0,17.7,94,0.00,,,0.00,VWS V14.01,2013-10-08 08:34:00,
2013-10-08 04:35:00,43.0,41.5,30.20,North,8,0.0,17.7,94,0.00,,,0.00,VWS V14.01,2013-10-08 08:35:00,
2013-10-08 04:36:00,43.1,41.6,30.20,North,8,0.0,17.7,94,0.00,,,0.00,VWS V14.01,2013-10-08 08:36:00,
2013-10-08 04:37:00,43.1,41.6,30.20,North,8,0.0,17.7,94,0.00,,,0.00,VWS V14.01,2013-10-08 08:37:00,
2013-10-08 04:38:00,43.1,41.6,30.20,ENE,77,8.6,17.7,94,0.00,,,0.00,VWS V14.01,2013-10-08 08:38:00,
2013-10-08 04:39:00,43.1,41.5,30.20,East,101,8.6,19.4,94,0.00,,,0.00,VWS V14.01,2013-10-08 08:39:00,
2013-10-08 04:40:00,43.1,41.6,30.20,ENE,62,9.9,19.4,94,0.00,,,0.00,VWS V14.01,2013-10-08 08:40:00,
2013-10-08 04:41:00,43.1,41.6,30.20,ENE,62,0.0,19.4,94,0.00,,,0.00,VWS V14.01,2013-10-08 08:41:00,
2013-10-08 04:42:00,43.2,41.7,30.20,North,359,1.3,26.3,94,0.00,,,0.00,VWS V14.01,2013-10-08 08:42:00,
2013-10-08 04:43:00,43.0,41.5,30.20,ESE,111,0.0,26.3,94,0.00,,,0.00,VWS V14.01,2013-10-08 08:43:00,
2013-10-08 04:44:00,43.1,41.6,30.20,East,82,3.0,26.3,94,0.00,,,0.00,VWS V14.01,2013-10-08 08:44:00,
2013-10-08 04:45:00,43.1,41.6,30.20,East,82,0.0,26.3,94,0.00,,,0.00,VWS V14.01,2013-10-08 08:45:00,
2013-10-08 04:46:00,43.0,41.5,30.20,ENE,66,6.9,26.3,94,0.00,,,0.00,VWS V14.01,2013-10-08 08:46:00,
2013-10-08 04:47:00,43.0,41.6,30.20,East,87,0.0,26.3,95,0.00,,,0.00,VWS V14.01,2013-10-08 08:47:00,
2013-10-08 04:48:00,43.1,41.7,30.20,East,87,0.0,26.3,95,0.00,,,0.00,VWS V14.01,2013-10-08 08:48:00,
2013-10-08 04:49:00,43.1,41.7,30.20,East,87,0.0,26.3,95,0.00,,,0.00,VWS V14.01,2013-10-08 08:49:00,
2013-10-08 04:50:00,43.1,41.7,30.20,SSW,212,0.0,26.3,95,0.00,,,0.00,VWS V14.01,2013-10-08 08:50:00,
2013-10-08 04:51:00,43.1,41.7,30.20,East,89,5.0,26.3,95,0.00,,,0.00,VWS V14.01,2013-10-08 08:51:00,
2013-10-08 04:52:00,43.1,41.7,30.20,East,96,0.0,26.3,95,0.00,,,0.00,VWS V14.01,2013-10-08 08:52:00,
2013-10-08 04:53:00,43.1,41.7,30.20,NE,46,0.0,26.3,95,0.00,,,0.00,VWS V14.01,2013-10-08 08:53:00,
2013-10-08 04:54:00,43.2,41.8,30.20,North,359,0.0,26.3,95,0.00,,,0.00,VWS V14.01,2013-10-08 08:54:00,
2013-10-08 04:55:00,43.1,41.7,30.20,North,359,0.0,26.3,95,0.00,,,0.00,VWS V14.01,2013-10-08 08:55:00,
2013-10-08 04:56:00,43.1,41.7,30.20,ENE,76,8.6,26.3,95,0.00,,,0.00,VWS V14.01,2013-10-08 08:56:00,
2013-10-08 04:57:00,43.2,41.8,30.20,NE,52,4.8,26.3,95,0.00,,,0.00,VWS V14.01,2013-10-08 08:57:00,
2013-10-08 04:58:00,43.1,41.7,30.20,East,82,0.0,26.3,95,0.00,,,0.00,VWS V14.01,2013-10-08 08:58:00,
2013-10-08 04:59:00,43.2,41.8,30.20,East,98,1.9,26.3,95,0.00,,,0.00,VWS V14.01,2013-10-08 08:59:00,
2013-10-08 05:00:00,43.2,41.8,30.20,East,98,0.0,26.3,95,0.00,,,0.00,VWS V14.01,2013-10-08 09:00:00,
2013-10-08 05:01:00,43.1,41.7,30.20,ENE,62,10.6,10.6,95,0.00,,,0.00,VWS V14.01,2013-10-08 09:01:00,
2013-10-08 05:02:00,43.2,41.8,30.20,ENE,62,3.0,10.6,95,0.00,,,0.00,VWS V14.01,2013-10-08 09:02:00,
2013-10-08 05:03:00,43.1,41.7,30.20,SE,127,0.0,10.6,95,0.00,,,0.00,VWS V14.01,2013-10-08 09:03:00,
2013-10-08 05:04:00,43.2,41.8,30.21,East,79,5.6,14.0,95,0.00,,,0.00,VWS V14.01,2013-10-08 09:04:00,
2013-10-08 05:05:00,43.2,41.8,30.20,ESE,111,3.5,14.0,95,0.00,,,0.00,VWS V14.01,2013-10-08 09:05:00,
2013-10-08 05:06:00,43.2,41.8,30.21,West,264,0.6,14.0,95,0.00,,,0.00,VWS V14.01,2013-10-08 09:06:00,
2013-10-08 05:07:00,43.2,41.8,30.21,West,264,2.4,14.0,95,0.00,,,0.00,VWS V14.01,2013-10-08 09:07:00,
2013-10-08 05:08:00,43.1,41.7,30.21,East,84,6.5,14.0,95,0.00,,,0.00,VWS V14.01,2013-10-08 09:08:00,
2013-10-08 05:09:00,43.1,41.7,30.21,NE,53,0.0,14.0,95,0.00,,,0.00,VWS V14.01,2013-10-08 09:09:00,
2013-10-08 05:10:00,43.1,41.7,30.21,East,101,8.2,14.0,95,0.00,,,0.00,VWS V14.01,2013-10-08 09:10:00,
2013-10-08 05:11:00,43.1,41.7,30.21,East,101,0.0,14.0,95,0.00,,,0.00,VWS V14.01,2013-10-08 09:11:00,
2013-10-08 05:12:00,43.1,41.7,30.21,ESE,117,7.1,14.0,95,0.00,,,0.00,VWS V14.01,2013-10-08 09:12:00,
2013-10-08 05:13:00,43.0,41.6,30.21,ENE,58,0.0,14.0,95,0.00,,,0.00,VWS V14.01,2013-10-08 09:13:00,
2013-10-08 05:14:00,43.1,41.7,30.21,ENE,77,7.1,14.0,95,0.00,,,0.00,VWS V14.01,2013-10-08 09:14:00,
2013-10-08 05:15:00,43.1,41.7,30.21,SSE,163,0.0,14.0,95,0.00,,,0.00,VWS V14.01,2013-10-08 09:15:00,
2013-10-08 05:16:00,43.1,41.7,30.21,ESE,103,4.8,14.0,95,0.00,,,0.00,VWS V14.01,2013-10-08 09:16:00,
2013-10-08 05:17:00,43.1,41.7,30.21,ESE,104,0.0,15.3,95,0.00,,,0.00,VWS V14.01,2013-10-08 09:17:00,
2013-10-08 05:18:00,43.1,41.7,30.21,ESE,104,0.0,15.3,95,0.00,,,0.00,VWS V14.01,2013-10-08 09:18:00,
2013-10-08 05:19:00,43.1,41.7,30.21,ESE,112,2.2,15.3,95,0.00,,,0.00,VWS V14.01,2013-10-08 09:19:00,
2013-10-08 05:20:00,43.1,41.7,30.21,NE,49,0.0,15.3,95,0.00,,,0.00,VWS V14.01,2013-10-08 09:20:00,
2013-10-08 05:21:00,43.1,41.7,30.21,ENE,69,21.4,21.4,95,0.00,,,0.00,VWS V14.01,2013-10-08 09:21:00,
2013-10-08 05:22:00,43.0,41.7,30.21,ENE,59,7.5,21.4,95,0.00,,,0.00,VWS V14.01,2013-10-08 09:22:00,
2013-10-08 05:23:00,43.0,41.6,30.21,SW,235,4.5,21.6,95,0.00,,,0.00,VWS V14.01,2013-10-08 09:23:00,
2013-10-08 05:24:00,43.0,41.7,30.22,NNE,24,2.4,21.8,95,0.00,,,0.00,VWS V14.01,2013-10-08 09:24:00,
2013-10-08 05:25:00,43.0,41.7,30.22,NNE,18,11.6,21.8,95,0.00,,,0.00,VWS V14.01,2013-10-08 09:25:00,
2013-10-08 05:26:00,43.0,41.7,30.22,SE,139,2.6,21.8,95,0.00,,,0.00,VWS V14.01,2013-10-08 09:26:00,
2013-10-08 05:27:00,43.0,41.7,30.22,SE,139,4.7,21.8,95,0.00,,,0.00,VWS V14.01,2013-10-08 09:27:00,
2013-10-08 05:28:00,43.0,41.8,30.22,ENE,73,1.3,21.8,95,0.00,,,0.00,VWS V14.01,2013-10-08 09:28:00,
2013-10-08 05:29:00,43.0,41.8,30.22,ENE,73,0.0,21.8,95,0.00,,,0.00,VWS V14.01,2013-10-08 09:29:00,
2013-10-08 05:30:00,42.9,41.7,30.22,ENE,73,0.0,21.8,95,0.00,,,0.00,VWS V14.01,2013-10-08 09:30:00,
2013-10-08 05:31:00,43.0,41.8,30.22,ENE,59,8.2,21.8,95,0.00,,,0.00,VWS V14.01,2013-10-08 09:31:00,
2013-10-08 05:32:00,43.0,41.7,30.22,ENE,59,0.0,29.5,95,0.00,,,0.00,VWS V14.01,2013-10-08 09:32:00,
2013-10-08 05:33:00,43.0,41.7,30.22,ENE,58,0.0,29.5,95,0.00,,,0.00,VWS V14.01,2013-10-08 09:33:00,
2013-10-08 05:34:00,42.9,41.7,30.22,ENE,58,0.0,29.5,95,0.00,,,0.00,VWS V14.01,2013-10-08 09:34:00,
2013-10-08 05:35:00,43.0,41.7,30.22,ENE,58,0.0,29.5,95,0.00,,,0.00,VWS V14.01,2013-10-08 09:35:00,
2013-10-08 05:36:00,43.1,41.8,30.22,SE,134,0.0,29.5,95,0.00,,,0.00,VWS V14.01,2013-10-08 09:36:00,
2013-10-08 05:37:00,43.0,41.7,30.22,East,93,8.4,29.5,95,0.00,,,0.00,VWS V14.01,2013-10-08 09:37:00,
2013-10-08 05:38:00,42.9,41.6,30.22,East,82,0.0,29.5,95,0.00,,,0.00,VWS V14.01,2013-10-08 09:38:00,
2013-10-08 05:39:00,42.9,41.6,30.22,East,82,0.0,29.5,95,0.00,,,0.00,VWS V14.01,2013-10-08 09:39:00,
2013-10-08 05:40:00,43.0,41.7,30.23,SSE,150,2.6,29.5,95,0.00,,,0.00,VWS V14.01,2013-10-08 09:40:00,
2013-10-08 05:41:00,43.0,41.7,30.23,SSE,159,2.4,29.5,95,0.00,,,0.00,VWS V14.01,2013-10-08 09:41:00,
2013-10-08 05:42:00,43.0,41.7,30.23,SSE,159,0.0,29.5,95,0.00,,,0.00,VWS V14.01,2013-10-08 09:42:00,
2013-10-08 05:43:00,43.0,41.7,30.23,ESE,115,0.0,29.5,95,0.00,,,0.00,VWS V14.01,2013-10-08 09:43:00,
2013-10-08 05:44:00,43.0,41.7,30.23,ESE,115,0.0,29.5,95,0.00,,,0.00,VWS V14.01,2013-10-08 09:44:00,
2013-10-08 05:45:00,43.0,41.7,30.23,ESE,115,0.0,29.5,95,0.00,,,0.00,VWS V14.01,2013-10-08 09:45:00,
2013-10-08 05:46:00,43.0,41.7,30.23,ESE,115,0.0,29.5,95,0.00,,,0.00,VWS V14.01,2013-10-08 09:46:00,
2013-10-08 05:47:00,43.0,41.7,30.23,ESE,115,0.0,29.5,95,0.00,,,0.00,VWS V14.01,2013-10-08 09:47:00,
2013-10-08 05:48:00,43.0,41.7,30.23,ESE,115,0.0,29.5,95,0.00,,,0.00,VWS V14.01,2013-10-08 09:48:00,
2013-10-08 05:49:00,43.1,41.8,30.23,ENE,70,0.0,29.5,95,0.00,,,0.00,VWS V14.01,2013-10-08 09:49:00,
2013-10-08 05:50:00,43.0,41.6,30.23,ENE,70,0.0,29.5,95,0.00,,,0.00,VWS V14.01,2013-10-08 09:50:00,
2013-10-08 05:51:00,43.1,41.8,30.23,ENE,70,0.0,29.5,95,0.00,,,0.00,VWS V14.01,2013-10-08 09:51:00,
2013-10-08 05:52:00,43.1,41.7,30.23,ENE,70,0.0,29.5,95,0.00,,,0.00,VWS V14.01,2013-10-08 09:52:00,
2013-10-08 05:53:00,43.0,41.6,30.23,ENE,72,0.0,29.5,95,0.00,,,0.00,VWS V14.01,2013-10-08 09:53:00,
2013-10-08 05:54:00,43.0,41.6,30.23,ENE,72,0.0,29.5,95,0.00,,,0.00,VWS V14.01,2013-10-08 09:54:00,
2013-10-08 05:55:00,43.1,41.7,30.23,ENE,72,0.0,29.5,95,0.00,,,0.00,VWS V14.01,2013-10-08 09:55:00,
2013-10-08 05:56:00,43.0,41.6,30.23,ENE,72,0.0,29.5,95,0.00,,,0.00,VWS V14.01,2013-10-08 09:56:00,
2013-10-08 05:57:00,43.1,41.7,30.23,ENE,72,0.0,29.5,95,0.00,,,0.00,VWS V14.01,2013-10-08 09:57:00,
2013-10-08 05:58:00,43.0,41.6,30.23,NNE,21,0.0,29.5,95,0.00,,,0.00,VWS V14.01,2013-10-08 09:58:00,
2013-10-08 05:59:00,43.0,41.6,30.23,NNE,21,0.0,29.5,95,0.00,,,0.00,VWS V14.01,2013-10-08 09:59:00,
2013-10-08 06:00:00,43.0,41.6,30.23,NNE,21,0.0,29.5,95,0.00,,,0.00,VWS V14.01,2013-10-08 10:00:00,
2013-10-08 06:01:00,43.0,41.6,30.23,NNE,21,0.0,0.0,95,0.00,,,0.00,VWS V14.01,2013-10-08 10:01:00,
2013-10-08 06:02:00,43.0,41.6,30.23,NNE,21,0.0,0.0,95,0.00,,,0.00,VWS V14.01,2013-10-08 10:02:00,
2013-10-08 06:03:00,43.0,41.6,30.23,NNE,21,0.0,0.0,95,0.00,,,0.00,VWS V14.01,2013-10-08 10:03:00,
2013-10-08 06:04:00,43.0,41.6,30.23,NNE,21,0.0,0.0,95,0.00,,,0.00,VWS V14.01,2013-10-08 10:04:00,
2013-10-08 06:05:00,43.1,41.7,30.23,NNE,21,0.0,0.0,95,0.00,,,0.00,VWS V14.01,2013-10-08 10:05:00,
2013-10-08 06:06:00,43.0,41.6,30.23,NNE,21,0.0,0.0,95,0.00,,,0.00,VWS V14.01,2013-10-08 10:06:00,
2013-10-08 06:07:00,43.0,41.6,30.23,NNE,21,0.0,0.0,95,0.00,,,0.00,VWS V14.01,2013-10-08 10:07:00,
2013-10-08 06:08:00,42.9,41.5,30.23,East,86,0.0,4.5,95,0.00,,,0.00,VWS V14.01,2013-10-08 10:08:00,
2013-10-08 06:09:00,43.0,41.6,30.23,East,86,0.0,4.5,95,0.00,,,0.00,VWS V14.01,2013-10-08 10:09:00,
2013-10-08 06:10:00,42.9,41.5,30.23,NE,48,3.4,18.8,95,0.00,,,0.00,VWS V14.01,2013-10-08 10:10:00,
2013-10-08 06:11:00,43.0,41.6,30.23,East,80,0.0,18.8,95,0.00,,,0.00,VWS V14.01,2013-10-08 10:11:00,
2013-10-08 06:12:00,42.9,41.5,30.23,East,80,0.0,18.8,95,0.00,,,0.00,VWS V14.01,2013-10-08 10:12:00,
2013-10-08 06:13:00,43.0,41.6,30.23,ENE,63,0.0,18.8,95,0.00,,,0.00,VWS V14.01,2013-10-08 10:13:00,
2013-10-08 06:14:00,43.0,41.6,30.23,SSE,148,0.0,18.8,95,0.00,,,0.00,VWS V14.01,2013-10-08 10:14:00,
2013-10-08 06:15:00,43.0,41.6,30.23,SSE,148,0.0,18.8,95,0.00,,,0.00,VWS V14.01,2013-10-08 10:15:00,
2013-10-08 06:16:00,43.0,41.6,30.24,SSE,148,1.7,18.8,95,0.00,,,0.00,VWS V14.01,2013-10-08 10:16:00,
2013-10-08 06:17:00,42.9,41.5,30.24,SSE,148,0.0,18.8,95,0.00,,,0.00,VWS V14.01,2013-10-08 10:17:00,
2013-10-08 06:18:00,43.0,41.6,30.24,SSE,148,0.0,18.8,95,0.00,,,0.00,VWS V14.01,2013-10-08 10:18:00,
2013-10-08 06:19:00,43.0,41.6,30.24,SSE,148,0.0,18.8,95,0.00,,,0.00,VWS V14.01,2013-10-08 10:19:00,
2013-10-08 06:20:00,42.9,41.5,30.24,SSE,148,0.0,18.8,95,0.00,,,0.00,VWS V14.01,2013-10-08 10:20:00,
2013-10-08 06:21:00,43.0,41.6,30.24,SSE,148,0.0,18.8,95,0.00,,,0.00,VWS V14.01,2013-10-08 10:21:00,
2013-10-08 06:22:00,43.1,41.6,30.24,SSE,148,0.0,18.8,94,0.00,,,0.00,VWS V14.01,2013-10-08 10:22:00,
2013-10-08 06:23:00,43.0,41.5,30.24,SSE,148,0.0,18.8,94,0.00,,,0.00,VWS V14.01,2013-10-08 10:23:00,
2013-10-08 06:24:00,43.1,41.6,30.24,SSE,148,0.0,18.8,94,0.00,,,0.00,VWS V14.01,2013-10-08 10:24:00,
2013-10-08 06:25:00,43.1,41.6,30.25,SSE,148,0.0,18.8,94,0.00,,,0.00,VWS V14.01,2013-10-08 10:25:00,
2013-10-08 06:26:00,43.0,41.5,30.25,SSE,148,0.0,18.8,94,0.00,,,0.00,VWS V14.01,2013-10-08 10:26:00,
2013-10-08 06:27:00,42.9,41.4,30.25,SSE,148,0.0,18.8,94,0.00,,,0.00,VWS V14.01,2013-10-08 10:27:00,
2013-10-08 06:28:00,43.0,41.5,30.25,SSE,148,0.0,18.8,94,0.00,,,0.00,VWS V14.01,2013-10-08 10:28:00,
2013-10-08 06:29:00,42.9,41.4,30.25,SSE,148,0.0,18.8,94,0.00,,,0.00,VWS V14.01,2013-10-08 10:29:00,
2013-10-08 06:30:00,43.0,41.5,30.25,SSE,148,0.0,18.8,94,0.00,,,0.00,VWS V14.01,2013-10-08 10:30:00,
2013-10-08 06:31:00,43.0,41.5,30.25,SSE,148,0.0,18.8,94,0.00,,,0.00,VWS V14.01,2013-10-08 10:31:00,
2013-10-08 06:32:00,42.9,41.3,30.25,SSE,148,0.0,18.8,94,0.00,,,0.00,VWS V14.01,2013-10-08 10:32:00,
2013-10-08 06:33:00,43.0,41.5,30.25,SSE,148,0.0,18.8,94,0.00,,,0.00,VWS V14.01,2013-10-08 10:33:00,
2013-10-08 06:34:00,42.9,41.3,30.25,SSE,148,0.0,18.8,94,0.00,,,0.00,VWS V14.01,2013-10-08 10:34:00,
2013-10-08 06:35:00,42.8,41.2,30.25,SSE,148,0.0,18.8,94,0.00,,,0.00,VWS V14.01,2013-10-08 10:35:00,
2013-10-08 06:36:00,42.7,41.2,30.25,SSE,148,0.0,18.8,94,0.00,,,0.00,VWS V14.01,2013-10-08 10:36:00,
2013-10-08 06:37:00,42.9,41.3,30.25,SSE,148,0.0,18.8,94,0.00,,,0.00,VWS V14.01,2013-10-08 10:37:00,
2013-10-08 06:38:00,42.8,41.2,30.25,SSE,148,0.0,18.8,94,0.00,,,0.00,VWS V14.01,2013-10-08 10:38:00,
2013-10-08 06:39:00,42.7,41.1,30.25,SSE,148,0.0,18.8,94,0.00,,,0.00,VWS V14.01,2013-10-08 10:39:00,
2013-10-08 06:40:00,42.7,41.1,30.25,SSE,148,0.0,18.8,94,0.00,,,0.00,VWS V14.01,2013-10-08 10:40:00,
2013-10-08 06:41:00,42.8,41.2,30.25,SSE,148,0.0,18.8,94,0.00,,,0.00,VWS V14.01,2013-10-08 10:41:00,
2013-10-08 06:42:00,42.6,41.0,30.26,SSE,148,0.0,18.8,94,0.00,,,0.00,VWS V14.01,2013-10-08 10:42:00,
2013-10-08 06:43:00,42.6,41.0,30.26,SSE,148,0.0,18.8,94,0.00,,,0.00,VWS V14.01,2013-10-08 10:43:00,
2013-10-08 06:44:00,42.6,41.0,30.26,SSE,148,0.0,18.8,94,0.00,,,0.00,VWS V14.01,2013-10-08 10:44:00,
2013-10-08 06:45:00,42.7,41.1,30.26,SSE,148,0.0,18.8,94,0.00,,,0.00,VWS V14.01,2013-10-08 10:45:00,
2013-10-08 06:46:00,42.7,41.1,30.26,SSE,148,0.0,18.8,94,0.00,,,0.00,VWS V14.01,2013-10-08 10:46:00,
2013-10-08 06:47:00,42.7,41.1,30.26,SSE,148,0.0,18.8,94,0.00,,,0.00,VWS V14.01,2013-10-08 10:47:00,
2013-10-08 06:48:00,42.6,41.0,30.26,SSE,148,0.0,18.8,94,0.00,,,0.00,VWS V14.01,2013-10-08 10:48:00,
2013-10-08 06:49:00,42.5,40.9,30.26,SSE,148,0.0,18.8,94,0.00,,,0.00,VWS V14.01,2013-10-08 10:49:00,
2013-10-08 06:50:00,42.5,40.9,30.26,SSE,148,0.0,18.8,94,0.00,,,0.00,VWS V14.01,2013-10-08 10:50:00,
2013-10-08 06:51:00,42.5,40.9,30.26,SSE,148,0.0,18.8,94,0.00,,,0.00,VWS V14.01,2013-10-08 10:51:00,
2013-10-08 06:52:00,42.6,41.0,30.26,SSE,148,0.0,18.8,94,0.00,,,0.00,VWS V14.01,2013-10-08 10:52:00,
2013-10-08 06:53:00,42.6,41.0,30.26,SSE,148,0.0,18.8,94,0.00,,,0.00,VWS V14.01,2013-10-08 10:53:00,
2013-10-08 06:54:00,42.4,40.8,30.26,SSE,148,0.0,18.8,94,0.00,,,0.00,VWS V14.01,2013-10-08 10:54:00,
2013-10-08 06:55:00,42.5,40.9,30.26,SSE,148,0.0,18.8,94,0.00,,,0.00,VWS V14.01,2013-10-08 10:55:00,
2013-10-08 06:56:00,42.4,40.8,30.26,SSE,148,0.0,18.8,94,0.00,,,0.00,VWS V14.01,2013-10-08 10:56:00,
2013-10-08 06:57:00,42.5,41.0,30.26,SSE,148,0.0,18.8,94,0.00,,,0.00,VWS V14.01,2013-10-08 10:57:00,
2013-10-08 06:58:00,42.4,40.8,30.26,SSE,148,0.0,18.8,94,0.00,,,0.00,VWS V14.01,2013-10-08 10:58:00,
2013-10-08 06:59:00,42.4,40.8,30.26,SSE,148,0.0,18.8,94,0.00,,,0.00,VWS V14.01,2013-10-08 10:59:00,
2013-10-08 07:00:00,42.4,40.8,30.27,SSE,148,0.0,18.8,94,0.00,,,0.00,VWS V14.01,2013-10-08 11:00:00,
2013-10-08 07:01:00,42.3,40.8,30.27,SSE,148,0.0,0.0,94,0.00,,,0.00,VWS V14.01,2013-10-08 11:01:00,
2013-10-08 07:02:00,42.4,40.8,30.27,SSE,148,0.0,0.0,94,0.00,,,0.00,VWS V14.01,2013-10-08 11:02:00,
2013-10-08 07:03:00,42.4,40.8,30.27,SSE,148,0.0,0.0,94,0.00,,,0.00,VWS V14.01,2013-10-08 11:03:00,
2013-10-08 07:04:00,42.4,40.8,30.27,SSE,148,0.0,0.0,94,0.00,,,0.00,VWS V14.01,2013-10-08 11:04:00,
2013-10-08 07:05:00,42.3,40.8,30.27,SSE,148,0.0,0.0,94,0.00,,,0.00,VWS V14.01,2013-10-08 11:05:00,
2013-10-08 07:06:00,42.4,40.8,30.27,SSE,148,0.0,0.0,94,0.00,,,0.00,VWS V14.01,2013-10-08 11:06:00,
2013-10-08 07:07:00,42.4,40.8,30.27,SSE,148,0.0,0.0,94,0.00,,,0.00,VWS V14.01,2013-10-08 11:07:00,
2013-10-08 07:08:00,42.4,40.8,30.27,SSE,148,0.0,0.0,94,0.00,,,0.00,VWS V14.01,2013-10-08 11:08:00,
2013-10-08 07:09:00,42.3,40.8,30.27,SSE,148,0.0,0.0,94,0.00,,,0.00,VWS V14.01,2013-10-08 11:09:00,
2013-10-08 07:10:00,42.4,40.8,30.27,SSE,148,0.0,0.0,94,0.00,,,0.00,VWS V14.01,2013-10-08 11:10:00,
2013-10-08 07:11:00,42.4,40.8,30.28,SSE,148,0.0,0.0,94,0.00,,,0.00,VWS V14.01,2013-10-08 11:11:00,
2013-10-08 07:12:00,42.4,40.8,30.28,SSE,148,0.0,0.0,94,0.00,,,0.00,VWS V14.01,2013-10-08 11:12:00,
2013-10-08 07:13:00,42.4,40.8,30.28,SSE,148,0.0,0.0,94,0.00,,,0.00,VWS V14.01,2013-10-08 11:13:00,
2013-10-08 07:14:00,42.5,41.0,30.28,SSE,148,0.0,0.0,94,0.00,,,0.00,VWS V14.01,2013-10-08 11:14:00,
2013-10-08 07:15:00,42.5,41.0,30.28,SSE,148,0.0,0.0,94,0.00,,,0.00,VWS V14.01,2013-10-08 11:15:00,
2013-10-08 07:16:00,42.4,40.8,30.28,SSE,148,0.0,0.0,94,0.00,,,0.00,VWS V14.01,2013-10-08 11:16:00,
2013-10-08 07:17:00,42.5,41.0,30.28,SSE,148,0.0,0.0,94,0.00,,,0.00,VWS V14.01,2013-10-08 11:17:00,
2013-10-08 07:18:00,42.4,40.8,30.28,SSE,148,0.0,0.0,94,0.00,,,0.00,VWS V14.01,2013-10-08 11:18:00,
2013-10-08 07:19:00,42.5,41.0,30.28,SSE,148,0.0,0.0,94,0.00,,,0.00,VWS V14.01,2013-10-08 11:19:00,
2013-10-08 07:20:00,42.6,41.0,30.28,SSE,148,0.0,0.0,94,0.00,,,0.00,VWS V14.01,2013-10-08 11:20:00,
2013-10-08 07:21:00,42.6,41.0,30.28,SSE,148,0.0,0.0,94,0.00,,,0.00,VWS V14.01,2013-10-08 11:21:00,
2013-10-08 07:22:00,42.5,41.0,30.28,SSE,148,0.0,0.0,94,0.00,,,0.00,VWS V14.01,2013-10-08 11:22:00,
2013-10-08 07:23:00,42.6,41.1,30.28,SSE,148,0.0,0.0,94,0.00,,,0.00,VWS V14.01,2013-10-08 11:23:00,
2013-10-08 07:24:00,42.7,41.2,30.28,SSE,148,0.0,0.0,94,0.00,,,0.00,VWS V14.01,2013-10-08 11:24:00,
2013-10-08 07:25:00,42.7,41.2,30.28,SSE,148,0.0,0.0,94,0.00,,,0.00,VWS V14.01,2013-10-08 11:25:00,
2013-10-08 07:26:00,42.8,41.3,30.28,SSE,148,0.0,0.0,94,0.00,,,0.00,VWS V14.01,2013-10-08 11:26:00,
2013-10-08 07:27:00,42.8,41.3,30.28,SSE,148,0.0,0.0,94,0.00,,,0.00,VWS V14.01,2013-10-08 11:27:00,
2013-10-08 07:28:00,42.8,41.3,30.28,SSE,148,0.0,0.0,94,0.00,,,0.00,VWS V14.01,2013-10-08 11:28:00,
2013-10-08 07:29:00,42.9,41.4,30.29,SSE,148,0.0,0.0,94,0.00,,,0.00,VWS V14.01,2013-10-08 11:29:00,
2013-10-08 07:30:00,43.0,41.5,30.29,SSE,148,0.0,0.0,94,0.00,,,0.00,VWS V14.01,2013-10-08 11:30:00,
2013-10-08 07:31:00,42.9,41.4,30.29,SSE,148,0.0,0.0,94,0.00,,,0.00,VWS V14.01,2013-10-08 11:31:00,
2013-10-08 07:32:00,43.0,41.5,30.29,SSE,148,0.0,0.0,94,0.00,,,0.00,VWS V14.01,2013-10-08 11:32:00,
2013-10-08 07:33:00,42.9,41.4,30.29,SSE,148,0.0,0.0,94,0.00,,,0.00,VWS V14.01,2013-10-08 11:33:00,
2013-10-08 07:34:00,42.9,41.4,30.29,SSE,148,0.0,0.0,94,0.00,,,0.00,VWS V14.01,2013-10-08 11:34:00,
2013-10-08 07:35:00,42.9,41.4,30.29,SSE,148,0.0,0.0,94,0.00,,,0.00,VWS V14.01,2013-10-08 11:35:00,
2013-10-08 07:36:00,43.0,41.5,30.29,SSE,148,0.0,0.0,94,0.00,,,0.00,VWS V14.01,2013-10-08 11:36:00,
2013-10-08 07:37:00,43.1,41.6,30.29,SSE,148,0.0,0.0,94,0.00,,,0.00,VWS V14.01,2013-10-08 11:37:00,
2013-10-08 07:38:00,43.0,41.5,30.29,SSE,148,0.0,0.0,94,0.00,,,0.00,VWS V14.01,2013-10-08 11:38:00,
2013-10-08 07:39:00,43.1,41.7,30.29,SSE,148,0.0,0.0,95,0.00,,,0.00,VWS V14.01,2013-10-08 11:39:00,
2013-10-08 07:40:00,43.2,41.8,30.29,SSE,148,0.0,0.0,95,0.00,,,0.00,VWS V14.01,2013-10-08 11:40:00,
2013-10-08 07:41:00,43.1,41.7,30.29,SSE,148,0.0,0.0,95,0.00,,,0.00,VWS V14.01,2013-10-08 11:41:00,
2013-10-08 07:42:00,43.2,41.8,30.29,SSE,148,0.0,0.0,95,0.00,,,0.00,VWS V14.01,2013-10-08 11:42:00,
2013-10-08 07:43:00,43.3,41.9,30.29,SSE,148,0.0,0.0,95,0.00,,,0.00,VWS V14.01,2013-10-08 11:43:00,
2013-10-08 07:44:00,43.2,41.8,30.29,SSE,148,0.0,0.0,95,0.00,,,0.00,VWS V14.01,2013-10-08 11:44:00,
2013-10-08 07:45:00,43.3,41.9,30.29,SSE,148,0.0,0.0,95,0.00,,,0.00,VWS V14.01,2013-10-08 11:45:00,
2013-10-08 07:46:00,43.3,41.9,30.29,SSE,148,0.0,0.0,95,0.00,,,0.00,VWS V14.01,2013-10-08 11:46:00,
2013-10-08 07:47:00,43.4,42.0,30.29,SSE,148,0.0,0.0,95,0.00,,,0.00,VWS V14.01,2013-10-08 11:47:00,
2013-10-08 07:48:00,43.4,42.0,30.29,SSE,148,0.0,0.0,95,0.00,,,0.00,VWS V14.01,2013-10-08 11:48:00,
2013-10-08 07:49:00,43.3,41.9,30.29,SSE,148,0.0,0.0,95,0.00,,,0.00,VWS V14.01,2013-10-08 11:49:00,
2013-10-08 07:50:00,43.3,41.9,30.29,SSE,148,0.0,0.0,95,0.00,,,0.00,VWS V14.01,2013-10-08 11:50:00,
2013-10-08 07:51:00,43.4,42.0,30.29,SSE,148,0.0,0.0,95,0.00,,,0.00,VWS V14.01,2013-10-08 11:51:00,
2013-10-08 07:52:00,43.5,42.1,30.29,SSE,148,0.0,0.0,95,0.00,,,0.00,VWS V14.01,2013-10-08 11:52:00,
2013-10-08 07:53:00,43.5,42.1,30.29,SSE,148,0.0,0.0,95,0.00,,,0.00,VWS V14.01,2013-10-08 11:53:00,
2013-10-08 07:54:00,43.6,42.2,30.29,SSE,148,0.0,0.0,95,0.00,,,0.00,VWS V14.01,2013-10-08 11:54:00,
2013-10-08 07:55:00,43.6,42.2,30.29,SSE,148,0.0,0.0,95,0.00,,,0.00,VWS V14.01,2013-10-08 11:55:00,
2013-10-08 07:56:00,43.6,42.2,30.29,SW,222,1.5,15.3,95,0.00,,,0.00,VWS V14.01,2013-10-08 11:56:00,
2013-10-08 07:57:00,43.7,42.3,30.29,SW,222,0.0,15.3,95,0.00,,,0.00,VWS V14.01,2013-10-08 11:57:00,
2013-10-08 07:58:00,43.7,42.3,30.29,SW,222,0.0,15.3,95,0.00,,,0.00,VWS V14.01,2013-10-08 11:58:00,
2013-10-08 07:59:00,43.7,42.4,30.29,SW,222,0.0,15.3,95,0.00,,,0.00,VWS V14.01,2013-10-08 11:59:00,
2013-10-08 08:00:00,43.8,42.5,30.29,SW,222,0.0,15.3,95,0.00,,,0.00,VWS V14.01,2013-10-08 12:00:00,
2013-10-08 08:01:00,43.9,42.6,30.29,SW,222,0.0,0.0,95,0.00,,,0.00,VWS V14.01,2013-10-08 12:01:00,
2013-10-08 08:02:00,43.9,42.6,30.29,SW,222,0.0,0.0,95,0.00,,,0.00,VWS V14.01,2013-10-08 12:02:00,
2013-10-08 08:03:00,43.9,42.5,30.29,SW,222,0.0,0.0,95,0.00,,,0.00,VWS V14.01,2013-10-08 12:03:00,
2013-10-08 08:04:00,44.0,42.6,30.29,North,359,0.7,23.1,95,0.00,,,0.00,VWS V14.01,2013-10-08 12:04:00,
2013-10-08 08:05:00,44.0,42.6,30.29,SSW,201,8.2,23.1,95,0.00,,,0.00,VWS V14.01,2013-10-08 12:05:00,
2013-10-08 08:06:00,44.1,42.7,30.29,North,359,0.0,25.9,95,0.00,,,0.00,VWS V14.01,2013-10-08 12:06:00,
2013-10-08 08:07:00,44.1,42.7,30.29,SSW,200,10.4,26.7,95,0.00,,,0.00,VWS V14.01,2013-10-08 12:07:00,
2013-10-08 08:08:00,44.1,42.7,30.29,SW,221,0.0,26.7,95,0.00,,,0.00,VWS V14.01,2013-10-08 12:08:00,
2013-10-08 08:09:00,44.1,42.7,30.29,North,359,28.7,28.7,95,0.00,,,0.00,VWS V14.01,2013-10-08 12:09:00,
2013-10-08 08:10:00,44.2,42.7,30.29,SSW,208,3.2,28.7,94,0.00,,,0.00,VWS V14.01,2013-10-08 12:10:00,
2013-10-08 08:11:00,44.3,42.8,30.29,SSW,208,0.0,28.7,94,0.00,,,0.00,VWS V14.01,2013-10-08 12:11:00,
2013-10-08 08:12:00,44.3,42.8,30.29,North,359,21.6,28.7,94,0.00,,,0.00,VWS V14.01,2013-10-08 12:12:00,
2013-10-08 08:13:00,44.3,42.8,30.29,North,359,0.0,28.7,94,0.00,,,0.00,VWS V14.01,2013-10-08 12:13:00,
2013-10-08 08:14:00,44.3,42.8,30.29,North,359,24.0,28.7,94,0.00,,,0.00,VWS V14.01,2013-10-08 12:14:00,
2013-10-08 08:15:00,44.4,42.8,30.30,North,359,25.0,28.7,94,0.00,,,0.00,VWS V14.01,2013-10-08 12:15:00,
2013-10-08 08:16:00,44.4,42.8,30.29,South,170,0.0,28.7,94,0.00,,,0.00,VWS V14.01,2013-10-08 12:16:00,
2013-10-08 08:17:00,44.4,42.8,30.29,South,170,0.0,28.7,94,0.00,,,0.00,VWS V14.01,2013-10-08 12:17:00,
2013-10-08 08:18:00,44.4,42.8,30.29,North,359,7.5,28.7,94,0.00,,,0.00,VWS V14.01,2013-10-08 12:18:00,
2013-10-08 08:19:00,44.6,43.0,30.30,SW,231,5.4,28.7,94,0.00,,,0.00,VWS V14.01,2013-10-08 12:19:00,
2013-10-08 08:20:00,44.6,43.0,30.30,SW,225,24.4,28.7,94,0.00,,,0.00,VWS V14.01,2013-10-08 12:20:00,
2013-10-08 08:21:00,44.6,42.9,30.30,North,359,27.8,28.7,94,0.00,,,0.00,VWS V14.01,2013-10-08 12:21:00,
2013-10-08 08:22:00,44.6,42.9,30.30,SSW,212,13.0,28.7,94,0.00,,,0.00,VWS V14.01,2013-10-08 12:22:00,
2013-10-08 08:23:00,44.7,43.0,30.30,North,359,12.5,28.7,94,0.00,,,0.00,VWS V14.01,2013-10-08 12:23:00,
2013-10-08 08:24:00,44.8,43.1,30.30,SSW,205,11.4,28.7,94,0.00,,,0.00,VWS V14.01,2013-10-08 12:24:00,
2013-10-08 08:25:00,44.8,43.1,30.30,SW,221,1.7,28.7,94,0.00,,,0.00,VWS V14.01,2013-10-08 12:25:00,
2013-10-08 08:26:00,44.9,43.1,30.30,SW,228,10.1,28.7,94,0.00,,,0.00,VWS V14.01,2013-10-08 12:26:00,
2013-10-08 08:27:00,44.9,43.1,30.30,SSE,165,0.0,28.7,94,0.00,,,0.00,VWS V14.01,2013-10-08 12:27:00,
2013-10-08 08:28:00,45.0,43.2,30.30,North,359,0.0,28.7,93,0.00,,,0.00,VWS V14.01,2013-10-08 12:28:00,
2013-10-08 08:29:00,45.0,43.2,30.30,North,359,0.0,28.7,93,0.00,,,0.00,VWS V14.01,2013-10-08 12:29:00,
2013-10-08 08:30:00,45.1,43.3,30.30,North,359,19.2,28.7,93,0.00,,,0.00,VWS V14.01,2013-10-08 12:30:00,
2013-10-08 08:31:00,45.2,43.4,30.30,North,359,0.0,28.7,93,0.00,,,0.00,VWS V14.01,2013-10-08 12:31:00,
2013-10-08 08:32:00,45.2,43.4,30.30,SSW,212,10.3,28.7,93,0.00,,,0.00,VWS V14.01,2013-10-08 12:32:00,
2013-10-08 08:33:00,45.2,43.4,30.30,North,359,24.4,28.7,93,0.00,,,0.00,VWS V14.01,2013-10-08 12:33:00,
2013-10-08 08:34:00,45.2,43.4,30.30,North,359,21.8,29.1,93,0.00,,,0.00,VWS V14.01,2013-10-08 12:34:00,
2013-10-08 08:35:00,45.3,43.5,30.30,North,359,20.1,29.1,93,0.00,,,0.00,VWS V14.01,2013-10-08 12:35:00,
2013-10-08 08:36:00,45.4,43.5,30.30,SSW,207,0.0,29.1,93,0.00,,,0.00,VWS V14.01,2013-10-08 12:36:00,
2013-10-08 08:37:00,45.4,43.5,30.30,SSE,165,5.4,29.1,93,0.00,,,0.00,VWS V14.01,2013-10-08 12:37:00,
2013-10-08 08:38:00,45.4,43.5,30.30,SW,215,2.2,29.1,93,0.00,,,0.00,VWS V14.01,2013-10-08 12:38:00,
2013-10-08 08:39:00,45.5,43.5,30.30,North,359,0.0,29.1,93,0.00,,,0.00,VWS V14.01,2013-10-08 12:39:00,
2013-10-08 08:40:00,45.5,43.5,30.30,North,359,3.4,29.1,93,0.00,,,0.00,VWS V14.01,2013-10-08 12:40:00,
2013-10-08 08:41:00,45.6,43.6,30.30,North,359,0.0,29.3,92,0.00,,,0.00,VWS V14.01,2013-10-08 12:41:00,
2013-10-08 08:42:00,45.7,43.6,30.30,SW,224,0.0,29.3,92,0.00,,,0.00,VWS V14.01,2013-10-08 12:42:00,
2013-10-08 08:43:00,45.7,43.6,30.30,North,359,8.0,29.3,92,0.00,,,0.00,VWS V14.01,2013-10-08 12:43:00,
2013-10-08 08:44:00,45.7,43.6,30.30,South,188,0.7,29.3,92,0.00,,,0.00,VWS V14.01,2013-10-08 12:44:00,
2013-10-08 08:45:00,45.8,43.6,30.30,SE,146,0.0,29.3,92,0.00,,,0.00,VWS V14.01,2013-10-08 12:45:00,
2013-10-08 08:46:00,45.9,43.4,30.30,SSW,201,8.8,29.3,91,0.00,,,0.00,VWS V14.01,2013-10-08 12:46:00,
2013-10-08 08:47:00,45.9,43.4,30.30,South,186,0.0,29.3,91,0.00,,,0.00,VWS V14.01,2013-10-08 12:47:00,
2013-10-08 08:48:00,45.9,43.4,30.30,South,188,0.0,29.3,91,0.00,,,0.00,VWS V14.01,2013-10-08 12:48:00,
2013-10-08 08:49:00,46.1,43.6,30.30,South,188,10.8,29.3,91,0.00,,,0.00,VWS V14.01,2013-10-08 12:49:00,
2013-10-08 08:50:00,46.0,43.5,30.30,SW,224,9.3,29.3,91,0.00,,,0.00,VWS V14.01,2013-10-08 12:50:00,
2013-10-08 08:51:00,46.3,43.7,30.30,SSW,202,6.0,29.3,91,0.00,,,0.00,VWS V14.01,2013-10-08 12:51:00,
2013-10-08 08:52:00,46.1,43.5,30.30,SSW,205,8.4,29.3,91,0.00,,,0.00,VWS V14.01,2013-10-08 12:52:00,
2013-10-08 08:53:00,46.2,43.6,30.30,SW,218,8.4,29.3,90,0.00,,,0.00,VWS V14.01,2013-10-08 12:53:00,
2013-10-08 08:54:00,46.4,43.7,30.30,SW,229,5.6,29.3,90,0.00,,,0.00,VWS V14.01,2013-10-08 12:54:00,
2013-10-08 08:55:00,46.3,43.6,30.30,SW,218,10.8,29.3,90,0.00,,,0.00,VWS V14.01,2013-10-08 12:55:00,
2013-10-08 08:56:00,46.4,43.7,30.30,SW,225,9.1,29.3,90,0.00,,,0.00,VWS V14.01,2013-10-08 12:56:00,
2013-10-08 08:57:00,46.3,43.5,30.30,SSW,212,8.2,29.3,90,0.00,,,0.00,VWS V14.01,2013-10-08 12:57:00,
2013-10-08 08:58:00,46.5,43.6,30.30,North,359,3.4,29.3,90,0.00,,,0.00,VWS V14.01,2013-10-08 12:58:00,
2013-10-08 08:59:00,46.5,43.7,30.30,West,277,0.0,29.3,90,0.00,,,0.00,VWS V14.01,2013-10-08 12:59:00,
2013-10-08 09:00:00,46.6,43.9,30.30,West,277,0.0,29.3,90,0.00,,,0.00,VWS V14.01,2013-10-08 13:00:00,
2013-10-08 09:01:00,46.7,44.1,30.30,West,277,0.0,0.0,91,0.00,,,0.00,VWS V14.01,2013-10-08 13:01:00,
2013-10-08 09:02:00,46.7,44.1,30.30,SSW,197,8.0,19.4,91,0.00,,,0.00,VWS V14.01,2013-10-08 13:02:00,
2013-10-08 09:03:00,46.7,44.2,30.30,SSW,204,4.5,19.4,91,0.00,,,0.00,VWS V14.01,2013-10-08 13:03:00,
2013-10-08 09:04:00,46.8,44.3,30.30,SW,215,8.0,19.4,91,0.00,,,0.00,VWS V14.01,2013-10-08 13:04:00,
2013-10-08 09:05:00,46.9,44.4,30.30,South,191,10.3,24.2,91,0.00,,,0.00,VWS V14.01,2013-10-08 13:05:00,
2013-10-08 09:06:00,46.9,44.4,30.31,SSW,201,3.9,26.1,91,0.00,,,0.00,VWS V14.01,2013-10-08 13:06:00,
2013-10-08 09:07:00,47.0,44.5,30.30,SSW,204,8.8,26.1,91,0.00,,,0.00,VWS V14.01,2013-10-08 13:07:00,
2013-10-08 09:08:00,47.1,44.6,30.30,SW,218,12.7,27.6,91,0.00,,,0.00,VWS V14.01,2013-10-08 13:08:00,
2013-10-08 09:09:00,47.1,44.6,30.31,North,359,0.0,27.6,91,0.00,,,0.00,VWS V14.01,2013-10-08 13:09:00,
2013-10-08 09:10:00,47.0,44.5,30.31,North,359,0.0,27.6,91,0.00,,,0.00,VWS V14.01,2013-10-08 13:10:00,
2013-10-08 09:11:00,47.2,44.6,30.31,WNW,290,0.0,27.6,91,0.00,,,0.00,VWS V14.01,2013-10-08 13:11:00,
2013-10-08 09:12:00,47.3,44.6,30.31,West,281,6.3,27.6,90,0.00,,,0.00,VWS V14.01,2013-10-08 13:12:00,
2013-10-08 09:13:00,47.4,44.6,30.31,WNW,288,0.0,27.6,90,0.00,,,0.00,VWS V14.01,2013-10-08 13:13:00,
2013-10-08 09:14:00,47.4,44.6,30.31,WNW,288,0.0,27.6,90,0.00,,,0.00,VWS V14.01,2013-10-08 13:14:00,
2013-10-08 09:15:00,47.4,44.6,30.31,SSW,197,20.9,27.6,90,0.00,,,0.00,VWS V14.01,2013-10-08 13:15:00,
2013-10-08 09:16:00,47.4,44.4,30.31,SSW,205,6.9,27.6,89,0.00,,,0.00,VWS V14.01,2013-10-08 13:16:00,
2013-10-08 09:17:00,47.5,44.4,30.31,SSW,198,11.0,27.6,89,0.00,,,0.00,VWS V14.01,2013-10-08 13:17:00,
2013-10-08 09:18:00,47.6,44.4,30.31,SW,218,7.8,27.6,88,0.00,,,0.00,VWS V14.01,2013-10-08 13:18:00,
2013-10-08 09:19:00,47.6,44.4,30.31,SSW,202,5.2,27.6,89,0.00,,,0.00,VWS V14.01,2013-10-08 13:19:00,
2013-10-08 09:20:00,47.6,44.5,30.31,SW,233,7.3,27.6,89,0.00,,,0.00,VWS V14.01,2013-10-08 13:20:00,
2013-10-08 09:21:00,47.7,44.6,30.31,South,181,9.1,27.6,89,0.00,,,0.00,VWS V14.01,2013-10-08 13:21:00,
2013-10-08 09:22:00,47.8,44.8,30.31,SW,218,15.1,27.6,89,0.00,,,0.00,VWS V14.01,2013-10-08 13:22:00,
2013-10-08 09:23:00,47.7,44.7,30.31,SSW,210,8.2,27.6,89,0.00,,,0.00,VWS V14.01,2013-10-08 13:23:00,
2013-10-08 09:24:00,47.8,44.8,30.31,South,190,8.9,27.6,89,0.00,,,0.00,VWS V14.01,2013-10-08 13:24:00,
2013-10-08 09:25:00,47.8,44.7,30.31,SW,232,3.0,27.6,89,0.00,,,0.00,VWS V14.01,2013-10-08 13:25:00,
2013-10-08 09:26:00,47.9,44.7,30.31,South,173,0.0,27.6,89,0.00,,,0.00,VWS V14.01,2013-10-08 13:26:00,
2013-10-08 09:27:00,47.9,44.7,30.31,South,173,0.0,27.6,88,0.00,,,0.00,VWS V14.01,2013-10-08 13:27:00,
2013-10-08 09:28:00,48.0,44.7,30.31,WSW,240,8.8,27.6,88,0.00,,,0.00,VWS V14.01,2013-10-08 13:28:00,
2013-10-08 09:29:00,48.1,44.8,30.31,SSW,195,5.0,27.6,88,0.00,,,0.00,VWS V14.01,2013-10-08 13:29:00,
2013-10-08 09:30:00,48.0,44.7,30.31,West,273,14.0,27.6,88,0.00,,,0.00,VWS V14.01,2013-10-08 13:30:00,
2013-10-08 09:31:00,48.1,44.8,30.31,West,280,0.0,27.6,88,0.00,,,0.00,VWS V14.01,2013-10-08 13:31:00,
2013-10-08 09:32:00,48.2,44.9,30.31,West,280,0.0,27.6,88,0.00,,,0.00,VWS V14.01,2013-10-08 13:32:00,
2013-10-08 09:33:00,48.3,44.9,30.32,West,280,0.0,27.6,88,0.00,,,0.00,VWS V14.01,2013-10-08 13:33:00,
2013-10-08 09:34:00,48.3,44.9,30.32,SW,214,17.7,27.6,88,0.00,,,0.00,VWS V14.01,2013-10-08 13:34:00,
2013-10-08 09:35:00,48.3,44.9,30.31,South,190,10.8,27.6,88,0.00,,,0.00,VWS V14.01,2013-10-08 13:35:00,
2013-10-08 09:36:00,48.3,44.8,30.31,SSW,194,5.8,27.6,88,0.00,,,0.00,VWS V14.01,2013-10-08 13:36:00,
2013-10-08 09:37:00,48.4,44.9,30.31,SSW,205,9.1,27.6,88,0.00,,,0.00,VWS V14.01,2013-10-08 13:37:00,
2013-10-08 09:38:00,48.4,44.7,30.32,SW,235,13.2,27.6,87,0.00,,,0.00,VWS V14.01,2013-10-08 13:38:00,
2013-10-08 09:39:00,48.5,44.8,30.32,South,187,8.0,27.6,87,0.00,,,0.00,VWS V14.01,2013-10-08 13:39:00,
2013-10-08 09:40:00,48.5,44.8,30.32,SSW,200,15.5,27.6,87,0.00,,,0.00,VWS V14.01,2013-10-08 13:40:00,
2013-10-08 09:41:00,48.6,44.9,30.32,SW,224,19.4,27.6,87,0.00,,,0.00,VWS V14.01,2013-10-08 13:41:00,
2013-10-08 09:42:00,48.7,45.0,30.32,SW,218,19.9,27.6,87,0.00,,,0.00,VWS V14.01,2013-10-08 13:42:00,
2013-10-08 09:43:00,48.7,44.7,30.32,SW,218,7.6,27.6,86,0.00,,,0.00,VWS V14.01,2013-10-08 13:43:00,
2013-10-08 09:44:00,48.8,44.7,30.32,SSW,202,11.9,27.6,86,0.00,,,0.00,VWS V14.01,2013-10-08 13:44:00,
2013-10-08 09:45:00,48.8,44.8,30.32,SSW,200,13.4,27.6,86,0.00,,,0.00,VWS V14.01,2013-10-08 13:45:00,
2013-10-08 09:46:00,48.9,44.7,30.32,West,276,12.3,27.6,85,0.00,,,0.00,VWS V14.01,2013-10-08 13:46:00,
2013-10-08 09:47:00,48.9,44.8,30.32,SW,225,16.0,27.6,86,0.00,,,0.00,VWS V14.01,2013-10-08 13:47:00,
2013-10-08 09:48:00,49.0,44.9,30.32,WSW,252,12.1,27.6,86,0.00,,,0.00,VWS V14.01,2013-10-08 13:48:00,
2013-10-08 09:49:00,49.0,44.5,30.32,South,170,9.7,27.6,84,0.00,,,0.00,VWS V14.01,2013-10-08 13:49:00,
2013-10-08 09:50:00,49.1,44.6,30.32,SW,218,16.2,27.6,84,0.00,,,0.00,VWS V14.01,2013-10-08 13:50:00,
2013-10-08 09:51:00,49.1,44.6,30.32,WSW,238,11.2,27.6,84,0.00,,,0.00,VWS V14.01,2013-10-08 13:51:00,
2013-10-08 09:52:00,49.2,44.7,30.32,WNW,290,3.5,29.1,84,0.00,,,0.00,VWS V14.01,2013-10-08 13:52:00,
2013-10-08 09:53:00,49.2,44.8,30.32,West,274,6.9,29.1,85,0.00,,,0.00,VWS V14.01,2013-10-08 13:53:00,
2013-10-08 09:54:00,49.3,44.9,30.32,SSW,210,10.8,29.1,85,0.00,,,0.00,VWS V14.01,2013-10-08 13:54:00,
2013-10-08 09:55:00,49.3,45.0,30.32,SSW,202,6.7,29.1,85,0.00,,,0.00,VWS V14.01,2013-10-08 13:55:00,
2013-10-08 09:56:00,49.3,44.9,30.32,SSW,200,18.5,29.1,85,0.00,,,0.00,VWS V14.01,2013-10-08 13:56:00,
2013-10-08 09:57:00,49.4,45.0,30.32,SSW,198,11.6,29.1,85,0.00,,,0.00,VWS V14.01,2013-10-08 13:57:00,
2013-10-08 09:58:00,49.4,44.8,30.32,SSW,211,6.9,29.1,84,0.00,,,0.00,VWS V14.01,2013-10-08 13:58:00,
2013-10-08 09:59:00,49.4,44.5,30.32,SW,231,9.5,29.1,83,0.00,,,0.00,VWS V14.01,2013-10-08 13:59:00,
2013-10-08 10:00:00,49.4,44.5,30.32,SSW,201,21.6,29.1,83,0.00,,,0.00,VWS V14.01,2013-10-08 14:00:00,
2013-10-08 10:01:00,49.6,44.8,30.32,SSW,200,12.1,21.6,83,0.00,,,0.00,VWS V14.01,2013-10-08 14:01:00,
2013-10-08 10:02:00,49.6,44.8,30.32,SSW,204,14.7,21.6,83,0.00,,,0.00,VWS V14.01,2013-10-08 14:02:00,
2013-10-08 10:03:00,49.7,44.8,30.32,SSW,212,4.7,21.6,83,0.00,,,0.00,VWS V14.01,2013-10-08 14:03:00,
2013-10-08 10:04:00,49.6,44.7,30.32,SW,226,3.5,21.6,83,0.00,,,0.00,VWS V14.01,2013-10-08 14:04:00,
2013-10-08 10:05:00,49.7,44.8,30.32,SSW,207,17.9,21.6,83,0.00,,,0.00,VWS V14.01,2013-10-08 14:05:00,
2013-10-08 10:06:00,49.7,44.7,30.32,SSW,208,11.7,21.6,83,0.00,,,0.00,VWS V14.01,2013-10-08 14:06:00,
2013-10-08 10:07:00,49.7,44.7,30.32,SSW,202,16.8,21.6,83,0.00,,,0.00,VWS V14.01,2013-10-08 14:07:00,
2013-10-08 10:08:00,49.6,44.7,30.32,SSW,202,7.8,21.6,83,0.00,,,0.00,VWS V14.01,2013-10-08 14:08:00,
2013-10-08 10:09:00,49.8,44.9,30.32,South,187,13.4,25.4,83,0.00,,,0.00,VWS V14.01,2013-10-08 14:09:00,
2013-10-08 10:10:00,49.7,44.8,30.32,South,177,9.5,26.1,83,0.00,,,0.00,VWS V14.01,2013-10-08 14:10:00,
2013-10-08 10:11:00,49.8,44.9,30.32,SW,222,5.4,26.1,83,0.00,,,0.00,VWS V14.01,2013-10-08 14:11:00,
2013-10-08 10:12:00,49.8,44.9,30.32,SSW,211,14.2,26.1,83,0.00,,,0.00,VWS V14.01,2013-10-08 14:12:00,
2013-10-08 10:13:00,49.7,44.8,30.32,West,276,2.2,26.1,83,0.00,,,0.00,VWS V14.01,2013-10-08 14:13:00,
2013-10-08 10:14:00,49.7,44.5,30.32,North,359,7.8,26.1,82,0.00,,,0.00,VWS V14.01,2013-10-08 14:14:00,
2013-10-08 10:15:00,49.7,44.5,30.32,SW,235,11.9,26.1,82,0.00,,,0.00,VWS V14.01,2013-10-08 14:15:00,
2013-10-08 10:16:00,49.8,44.7,30.32,SW,214,10.6,26.1,82,0.00,,,0.00,VWS V14.01,2013-10-08 14:16:00,
2013-10-08 10:17:00,49.8,44.7,30.32,South,183,12.7,26.1,83,0.00,,,0.00,VWS V14.01,2013-10-08 14:17:00,
2013-10-08 10:18:00,49.8,44.6,30.32,WSW,250,7.6,26.1,82,0.00,,,0.00,VWS V14.01,2013-10-08 14:18:00,
2013-10-08 10:19:00,49.8,44.7,30.33,West,274,8.0,26.1,82,0.00,,,0.00,VWS V14.01,2013-10-08 14:19:00,
2013-10-08 10:20:00,49.8,44.6,30.32,SSW,210,16.0,26.1,82,0.00,,,0.00,VWS V14.01,2013-10-08 14:20:00,
2013-10-08 10:21:00,49.8,44.5,30.33,SSW,194,17.7,26.1,82,0.00,,,0.00,VWS V14.01,2013-10-08 14:21:00,
2013-10-08 10:22:00,49.9,44.4,30.33,SSW,197,12.7,26.1,81,0.00,,,0.00,VWS V14.01,2013-10-08 14:22:00,
2013-10-08 10:23:00,49.8,44.3,30.33,SW,226,9.7,26.1,81,0.00,,,0.00,VWS V14.01,2013-10-08 14:23:00,
2013-10-08 10:24:00,49.8,44.2,30.33,SSW,205,17.3,26.1,81,0.00,,,0.00,VWS V14.01,2013-10-08 14:24:00,
2013-10-08 10:25:00,49.8,44.2,30.33,SSW,204,15.1,26.1,81,0.00,,,0.00,VWS V14.01,2013-10-08 14:25:00,
2013-10-08 10:26:00,49.9,44.3,30.33,SSW,211,17.1,26.1,81,0.00,,,0.00,VWS V14.01,2013-10-08 14:26:00,
2013-10-08 10:27:00,49.9,44.1,30.33,South,180,10.6,26.1,80,0.00,,,0.00,VWS V14.01,2013-10-08 14:27:00,
2013-10-08 10:28:00,49.8,44.1,30.33,South,184,13.2,26.1,81,0.00,,,0.00,VWS V14.01,2013-10-08 14:28:00,
2013-10-08 10:29:00,49.9,44.0,30.33,East,86,3.9,26.1,80,0.00,,,0.00,VWS V14.01,2013-10-08 14:29:00,
2013-10-08 10:30:00,49.9,44.0,30.33,SSW,195,13.4,26.1,80,0.00,,,0.00,VWS V14.01,2013-10-08 14:30:00,
2013-10-08 10:31:00,50.0,44.1,30.33,SSW,195,11.7,26.1,80,0.00,,,0.00,VWS V14.01,2013-10-08 14:31:00,
2013-10-08 10:32:00,50.0,44.2,30.33,SSW,210,14.5,26.1,80,0.00,,,0.00,VWS V14.01,2013-10-08 14:32:00,
2013-10-08 10:33:00,50.1,44.4,30.33,SW,229,11.9,26.1,81,0.00,,,0.00,VWS V14.01,2013-10-08 14:33:00,
2013-10-08 10:34:00,50.2,44.5,30.33,WNW,290,8.6,26.1,81,0.00,,,0.00,VWS V14.01,2013-10-08 14:34:00,
2013-10-08 10:35:00,50.3,44.1,30.33,SSW,194,22.6,26.1,79,0.00,,,0.00,VWS V14.01,2013-10-08 14:35:00,
2013-10-08 10:36:00,50.4,44.4,30.33,SW,236,8.9,26.1,80,0.00,,,0.00,VWS V14.01,2013-10-08 14:36:00,
2013-10-08 10:37:00,50.5,44.3,30.33,South,191,15.3,26.1,79,0.00,,,0.00,VWS V14.01,2013-10-08 14:37:00,
2013-10-08 10:38:00,50.7,44.5,30.33,WSW,239,13.6,26.1,79,0.00,,,0.00,VWS V14.01,2013-10-08 14:38:00,
2013-10-08 10:39:00,50.8,44.2,30.33,SSW,194,12.5,26.1,78,0.00,,,0.00,VWS V14.01,2013-10-08 14:39:00,
2013-10-08 10:40:00,50.9,44.4,30.33,SW,232,16.0,26.1,78,0.00,,,0.00,VWS V14.01,2013-10-08 14:40:00,
2013-10-08 10:41:00,51.0,44.5,30.33,SSW,211,13.8,26.1,78,0.00,,,0.00,VWS V14.01,2013-10-08 14:41:00,
2013-10-08 10:42:00,51.0,44.4,30.33,SE,129,3.2,26.1,78,0.00,,,0.00,VWS V14.01,2013-10-08 14:42:00,
2013-10-08 10:43:00,51.1,44.2,30.33,South,179,12.7,26.1,77,0.00,,,0.00,VWS V14.01,2013-10-08 14:43:00,
2013-10-08 10:44:00,51.2,44.2,30.33,SSW,208,18.6,26.1,77,0.00,,,0.00,VWS V14.01,2013-10-08 14:44:00,
2013-10-08 10:45:00,51.3,44.3,30.33,South,188,11.0,26.1,77,0.00,,,0.00,VWS V14.01,2013-10-08 14:45:00,
2013-10-08 10:46:00,51.3,44.2,30.33,SSW,211,12.9,26.1,77,0.00,,,0.00,VWS V14.01,2013-10-08 14:46:00,
2013-10-08 10:47:00,51.3,44.1,30.33,SSW,197,13.0,26.1,76,0.00,,,0.00,VWS V14.01,2013-10-08 14:47:00,
2013-10-08 10:48:00,51.4,44.4,30.33,SSW,197,22.7,30.6,77,0.00,,,0.00,VWS V14.01,2013-10-08 14:48:00,
2013-10-08 10:49:00,51.4,43.9,30.33,SW,228,24.8,30.6,76,0.00,,,0.00,VWS V14.01,2013-10-08 14:49:00,
2013-10-08 10:50:00,51.4,43.9,30.33,South,188,15.3,30.6,76,0.00,,,0.00,VWS V14.01,2013-10-08 14:50:00,
2013-10-08 10:51:00,51.5,43.9,30.33,South,169,7.6,30.6,75,0.00,,,0.00,VWS V14.01,2013-10-08 14:51:00,
2013-10-08 10:52:00,51.4,43.9,30.33,SSW,212,12.5,30.6,75,0.00,,,0.00,VWS V14.01,2013-10-08 14:52:00,
2013-10-08 10:53:00,51.4,43.8,30.33,SW,214,12.7,30.6,75,0.00,,,0.00,VWS V14.01,2013-10-08 14:53:00,
2013-10-08 10:54:00,51.5,43.9,30.33,SW,235,6.7,30.6,75,0.00,,,0.00,VWS V14.01,2013-10-08 14:54:00,
2013-10-08 10:55:00,51.4,43.9,30.33,SSW,212,9.1,30.6,75,0.00,,,0.00,VWS V14.01,2013-10-08 14:55:00,
2013-10-08 10:56:00,51.4,43.9,30.33,North,359,5.0,30.6,76,0.00,,,0.00,VWS V14.01,2013-10-08 14:56:00,
2013-10-08 10:57:00,51.4,43.8,30.33,WSW,246,12.3,30.6,75,0.00,,,0.00,VWS V14.01,2013-10-08 14:57:00,
2013-10-08 10:58:00,51.5,43.8,30.33,South,179,19.6,30.6,75,0.00,,,0.00,VWS V14.01,2013-10-08 14:58:00,
2013-10-08 10:59:00,51.5,43.8,30.33,SW,218,18.8,30.6,75,0.00,,,0.00,VWS V14.01,2013-10-08 14:59:00,
2013-10-08 11:00:00,51.5,43.8,30.33,South,179,11.9,30.6,75,0.00,,,0.00,VWS V14.01,2013-10-08 15:00:00,
2013-10-08 11:01:00,51.5,43.7,30.33,South,186,12.5,13.4,74,0.00,,,0.00,VWS V14.01,2013-10-08 15:01:00,
2013-10-08 11:02:00,51.6,43.5,30.33,South,184,11.4,15.5,74,0.00,,,0.00,VWS V14.01,2013-10-08 15:02:00,
2013-10-08 11:03:00,51.5,43.6,30.33,SW,214,12.9,15.5,74,0.00,,,0.00,VWS V14.01,2013-10-08 15:03:00,
2013-10-08 11:04:00,51.6,43.9,30.33,South,190,4.7,15.5,75,0.00,,,0.00,VWS V14.01,2013-10-08 15:04:00,
2013-10-08 11:05:00,51.6,43.5,30.33,WNW,297,2.1,15.5,74,0.00,,,0.00,VWS V14.01,2013-10-08 15:05:00,
2013-10-08 11:06:00,51.6,43.6,30.33,WNW,297,0.0,15.5,74,0.00,,,0.00,VWS V14.01,2013-10-08 15:06:00,
2013-10-08 11:07:00,51.6,43.6,30.33,SW,217,9.5,23.1,74,0.00,,,0.00,VWS V14.01,2013-10-08 15:07:00,
2013-10-08 11:08:00,51.7,43.3,30.33,SSW,207,9.5,23.1,73,0.00,,,0.00,VWS V14.01,2013-10-08 15:08:00,
2013-10-08 11:09:00,51.7,43.0,30.33,SSW,207,4.1,23.1,72,0.00,,,0.00,VWS V14.01,2013-10-08 15:09:00,
2013-10-08 11:10:00,51.7,43.1,30.33,North,359,0.0,27.2,72,0.00,,,0.00,VWS V14.01,2013-10-08 15:10:00,
2013-10-08 11:11:00,51.7,43.3,30.33,North,359,6.9,27.2,73,0.00,,,0.00,VWS V14.01,2013-10-08 15:11:00,
2013-10-08 11:12:00,51.8,43.5,30.33,SW,226,6.5,27.2,73,0.00,,,0.00,VWS V14.01,2013-10-08 15:12:00,
2013-10-08 11:13:00,51.7,43.4,30.33,WSW,238,18.1,27.2,73,0.00,,,0.00,VWS V14.01,2013-10-08 15:13:00,
2013-10-08 11:14:00,51.8,43.0,30.33,South,187,15.7,29.3,72,0.00,,,0.00,VWS V14.01,2013-10-08 15:14:00,
2013-10-08 11:15:00,51.8,43.2,30.33,SSW,198,18.6,29.3,72,0.00,,,0.00,VWS V14.01,2013-10-08 15:15:00,
2013-10-08 11:16:00,51.8,43.4,30.33,WSW,248,2.6,29.3,73,0.00,,,0.00,VWS V14.01,2013-10-08 15:16:00,
2013-10-08 11:17:00,51.9,43.6,30.33,SSW,204,8.9,29.3,73,0.00,,,0.00,VWS V14.01,2013-10-08 15:17:00,
2013-10-08 11:18:00,51.8,43.5,30.33,SSW,197,14.7,29.3,73,0.00,,,0.00,VWS V14.01,2013-10-08 15:18:00,
2013-10-08 11:19:00,51.8,43.5,30.33,SSW,197,16.2,29.3,73,0.00,,,0.00,VWS V14.01,2013-10-08 15:19:00,
2013-10-08 11:20:00,51.8,43.4,30.33,SW,233,3.5,29.3,73,0.00,,,0.00,VWS V14.01,2013-10-08 15:20:00,
2013-10-08 11:21:00,51.9,43.5,30.33,South,173,7.6,29.3,73,0.00,,,0.00,VWS V14.01,2013-10-08 15:21:00,
2013-10-08 11:22:00,51.8,43.1,30.33,NW,304,5.6,29.3,72,0.00,,,0.00,VWS V14.01,2013-10-08 15:22:00,
2013-10-08 11:23:00,51.7,42.9,30.33,South,191,0.0,29.3,72,0.00,,,0.00,VWS V14.01,2013-10-08 15:23:00,
2013-10-08 11:24:00,51.8,43.1,30.33,SW,235,9.5,29.3,72,0.00,,,0.00,VWS V14.01,2013-10-08 15:24:00,
2013-10-08 11:25:00,51.7,43.2,30.33,South,180,11.7,29.3,72,0.00,,,0.00,VWS V14.01,2013-10-08 15:25:00,
2013-10-08 11:26:00,51.8,43.4,30.33,SSW,210,12.5,29.3,73,0.00,,,0.00,VWS V14.01,2013-10-08 15:26:00,
2013-10-08 11:27:00,51.7,43.4,30.33,SW,215,18.5,29.3,73,0.00,,,0.00,VWS V14.01,2013-10-08 15:27:00,
2013-10-08 11:28:00,51.7,43.3,30.33,SSW,210,6.9,29.3,73,0.00,,,0.00,VWS V14.01,2013-10-08 15:28:00,
2013-10-08 11:29:00,51.7,43.1,30.33,SW,214,12.7,29.3,72,0.00,,,0.00,VWS V14.01,2013-10-08 15:29:00,
2013-10-08 11:30:00,51.7,43.2,30.33,WSW,240,21.1,29.3,73,0.00,,,0.00,VWS V14.01,2013-10-08 15:30:00,
2013-10-08 11:31:00,51.8,42.9,30.33,SW,232,11.0,29.3,72,0.00,,,0.00,VWS V14.01,2013-10-08 15:31:00,
2013-10-08 11:32:00,51.9,43.0,30.32,SSW,202,6.3,29.3,71,0.00,,,0.00,VWS V14.01,2013-10-08 15:32:00,
2013-10-08 11:33:00,51.7,42.9,30.33,SSW,193,13.2,29.3,72,0.00,,,0.00,VWS V14.01,2013-10-08 15:33:00,
2013-10-08 11:34:00,51.8,43.0,30.32,SW,226,17.5,29.3,72,0.00,,,0.00,VWS V14.01,2013-10-08 15:34:00,
2013-10-08 11:35:00,51.7,43.0,30.33,SSW,201,20.5,29.3,72,0.00,,,0.00,VWS V14.01,2013-10-08 15:35:00,
2013-10-08 11:36:00,51.7,42.7,30.32,WSW,255,17.3,29.3,71,0.00,,,0.00,VWS V14.01,2013-10-08 15:36:00,
2013-10-08 11:37:00,51.8,42.7,30.32,SW,228,18.1,29.3,71,0.00,,,0.00,VWS V14.01,2013-10-08 15:37:00,
2013-10-08 11:38:00,51.7,42.8,30.32,SSW,201,13.0,30.0,72,0.00,,,0.00,VWS V14.01,2013-10-08 15:38:00,
2013-10-08 11:39:00,51.8,42.9,30.32,South,186,7.3,30.0,71,0.00,,,0.00,VWS V14.01,2013-10-08 15:39:00,
2013-10-08 11:40:00,51.8,42.8,30.32,South,191,10.1,30.0,71,0.00,,,0.00,VWS V14.01,2013-10-08 15:40:00,
2013-10-08 11:41:00,51.8,42.3,30.32,South,176,2.4,30.0,70,0.00,,,0.00,VWS V14.01,2013-10-08 15:41:00,
2013-10-08 11:42:00,51.8,42.4,30.32,SSW,198,9.1,30.0,70,0.00,,,0.00,VWS V14.01,2013-10-08 15:42:00,
2013-10-08 11:43:00,51.9,42.5,30.32,SSW,211,11.4,30.0,70,0.00,,,0.00,VWS V14.01,2013-10-08 15:43:00,
2013-10-08 11:44:00,52.0,42.1,30.32,SW,219,12.9,30.0,69,0.00,,,0.00,VWS V14.01,2013-10-08 15:44:00,
2013-10-08 11:45:00,52.0,41.6,30.32,SW,224,5.0,30.0,68,0.00,,,0.00,VWS V14.01,2013-10-08 15:45:00,
2013-10-08 11:46:00,52.1,41.8,30.32,NE,45,3.5,30.0,68,0.00,,,0.00,VWS V14.01,2013-10-08 15:46:00,
2013-10-08 11:47:00,52.1,40.9,30.32,SW,236,12.9,30.0,66,0.00,,,0.00,VWS V14.01,2013-10-08 15:47:00,
2013-10-08 11:48:00,52.1,41.3,30.32,South,172,5.6,30.0,66,0.00,,,0.00,VWS V14.01,2013-10-08 15:48:00,
2013-10-08 11:49:00,52.2,41.3,30.32,SW,222,3.0,30.0,66,0.00,,,0.00,VWS V14.01,2013-10-08 15:49:00,
2013-10-08 11:50:00,52.2,41.6,30.32,SSW,202,13.6,30.0,67,0.00,,,0.00,VWS V14.01,2013-10-08 15:50:00,
2013-10-08 11:51:00,52.1,41.7,30.32,South,186,8.2,30.0,67,0.00,,,0.00,VWS V14.01,2013-10-08 15:51:00,
2013-10-08 11:52:00,52.2,41.7,30.32,SSW,207,12.7,30.0,67,0.00,,,0.00,VWS V14.01,2013-10-08 15:52:00,
2013-10-08 11:53:00,52.3,41.8,30.32,SW,218,13.0,30.0,67,0.00,,,0.00,VWS V14.01,2013-10-08 15:53:00,
2013-10-08 11:54:00,52.4,41.6,30.32,SSW,202,4.1,30.0,67,0.00,,,0.00,VWS V14.01,2013-10-08 15:54:00,
2013-10-08 11:55:00,52.3,41.5,30.32,South,172,0.0,30.0,66,0.00,,,0.00,VWS V14.01,2013-10-08 15:55:00,
2013-10-08 11:56:00,52.5,41.5,30.32,SW,214,14.0,30.0,66,0.00,,,0.00,VWS V14.01,2013-10-08 15:56:00,
2013-10-08 11:57:00,52.4,41.4,30.32,SSW,204,13.8,30.0,66,0.00,,,0.00,VWS V14.01,2013-10-08 15:57:00,
2013-10-08 11:58:00,52.5,41.6,30.32,NNE,25,9.1,30.0,66,0.00,,,0.00,VWS V14.01,2013-10-08 15:58:00,
2013-10-08 11:59:00,52.5,41.6,30.32,NNE,24,1.7,30.0,66,0.00,,,0.00,VWS V14.01,2013-10-08 15:59:00,
2013-10-08 12:00:00,52.6,41.5,30.32,NNE,24,0.0,30.0,66,0.00,,,0.00,VWS V14.01,2013-10-08 16:00:00,
2013-10-08 12:01:00,52.6,41.7,30.32,SSW,197,9.1,28.0,66,0.00,,,0.00,VWS V14.01,2013-10-08 16:01:00,
2013-10-08 12:02:00,52.6,41.3,30.32,SE,145,1.5,28.0,65,0.00,,,0.00,VWS V14.01,2013-10-08 16:02:00,
2013-10-08 12:03:00,52.6,41.6,30.32,SSW,200,15.8,28.0,66,0.00,,,0.00,VWS V14.01,2013-10-08 16:03:00,
2013-10-08 12:04:00,52.8,42.0,30.32,South,173,21.6,28.7,67,0.00,,,0.00,VWS V14.01,2013-10-08 16:04:00,
2013-10-08 12:05:00,52.8,42.2,30.32,South,186,1.1,28.7,67,0.00,,,0.00,VWS V14.01,2013-10-08 16:05:00,
2013-10-08 12:06:00,52.9,41.9,30.32,South,186,0.0,28.7,66,0.00,,,0.00,VWS V14.01,2013-10-08 16:06:00,
2013-10-08 12:07:00,52.9,41.9,30.32,WSW,238,12.9,28.7,66,0.00,,,0.00,VWS V14.01,2013-10-08 16:07:00,
2013-10-08 12:08:00,52.8,41.8,30.32,North,359,5.8,29.3,66,0.00,,,0.00,VWS V14.01,2013-10-08 16:08:00,
2013-10-08 12:09:00,52.9,42.1,30.32,North,359,3.4,30.6,67,0.00,,,0.00,VWS V14.01,2013-10-08 16:09:00,
2013-10-08 12:10:00,52.9,42.1,30.32,North,359,0.0,30.6,67,0.00,,,0.00,VWS V14.01,2013-10-08 16:10:00,
2013-10-08 12:11:00,52.9,42.0,30.32,North,359,0.0,30.6,66,0.00,,,0.00,VWS V14.01,2013-10-08 16:11:00,
2013-10-08 12:12:00,52.9,42.0,30.32,North,359,0.9,30.6,66,0.00,,,0.00,VWS V14.01,2013-10-08 16:12:00,
2013-10-08 12:13:00,53.0,42.2,30.32,SW,217,8.4,30.6,67,0.00,,,0.00,VWS V14.01,2013-10-08 16:13:00,
2013-10-08 12:14:00,53.0,42.0,30.32,SW,235,3.7,30.6,66,0.00,,,0.00,VWS V14.01,2013-10-08 16:14:00,
2013-10-08 12:15:00,53.1,42.0,30.32,SW,222,7.5,30.6,66,0.00,,,0.00,VWS V14.01,2013-10-08 16:15:00,
2013-10-08 12:16:00,53.2,41.8,30.32,SSW,194,15.8,30.6,65,0.00,,,0.00,VWS V14.01,2013-10-08 16:16:00,
2013-10-08 12:17:00,53.3,41.8,30.32,SSW,202,11.2,30.6,65,0.00,,,0.00,VWS V14.01,2013-10-08 16:17:00,
2013-10-08 12:18:00,53.2,41.9,30.32,SSW,197,11.2,30.6,65,0.00,,,0.00,VWS V14.01,2013-10-08 16:18:00,
2013-10-08 12:19:00,53.4,41.0,30.32,SSW,205,10.3,30.6,63,0.00,,,0.00,VWS V14.01,2013-10-08 16:19:00,
2013-10-08 12:20:00,53.3,41.0,30.32,SSW,201,7.1,30.6,63,0.00,,,0.00,VWS V14.01,2013-10-08 16:20:00,
2013-10-08 12:21:00,53.4,41.3,30.31,SW,236,0.9,30.6,64,0.00,,,0.00,VWS V14.01,2013-10-08 16:21:00,
2013-10-08 12:22:00,53.4,41.4,30.31,SW,236,0.0,30.6,64,0.00,,,0.00,VWS V14.01,2013-10-08 16:22:00,
2013-10-08 12:23:00,53.4,41.5,30.31,SW,231,0.0,30.6,64,0.00,,,0.00,VWS V14.01,2013-10-08 16:23:00,
2013-10-08 12:24:00,53.5,41.8,30.31,South,179,5.6,30.6,64,0.00,,,0.00,VWS V14.01,2013-10-08 16:24:00,
2013-10-08 12:25:00,53.6,41.8,30.31,South,186,8.4,30.6,64,0.00,,,0.00,VWS V14.01,2013-10-08 16:25:00,
2013-10-08 12:26:00,53.7,41.9,30.31,SW,229,3.5,30.6,64,0.00,,,0.00,VWS V14.01,2013-10-08 16:26:00,
2013-10-08 12:27:00,53.7,42.0,30.31,North,359,18.6,30.6,64,0.00,,,0.00,VWS V14.01,2013-10-08 16:27:00,
2013-10-08 12:28:00,53.9,42.1,30.31,South,188,5.6,30.6,64,0.00,,,0.00,VWS V14.01,2013-10-08 16:28:00,
2013-10-08 12:29:00,53.9,42.0,30.31,SSW,208,0.0,30.6,64,0.00,,,0.00,VWS V14.01,2013-10-08 16:29:00,
2013-10-08 12:30:00,53.9,41.8,30.31,SSW,198,8.4,30.6,63,0.00,,,0.00,VWS V14.01,2013-10-08 16:30:00,
2013-10-08 12:31:00,53.9,41.6,30.31,SW,214,6.2,30.6,63,0.00,,,0.00,VWS V14.01,2013-10-08 16:31:00,
2013-10-08 12:32:00,53.9,41.8,30.31,South,191,16.0,30.6,63,0.00,,,0.00,VWS V14.01,2013-10-08 16:32:00,
2013-10-08 12:33:00,54.0,41.9,30.31,SSW,205,13.0,30.6,63,0.00,,,0.00,VWS V14.01,2013-10-08 16:33:00,
2013-10-08 12:34:00,53.9,41.8,30.31,South,179,4.5,30.6,64,0.00,,,0.00,VWS V14.01,2013-10-08 16:34:00,
2013-10-08 12:35:00,54.0,41.1,30.31,South,169,0.0,30.6,62,0.00,,,0.00,VWS V14.01,2013-10-08 16:35:00,
2013-10-08 12:36:00,54.1,41.4,30.31,SW,233,13.4,30.6,62,0.00,,,0.00,VWS V14.01,2013-10-08 16:36:00,
2013-10-08 12:37:00,54.1,41.5,30.31,South,187,8.0,30.6,62,0.00,,,0.00,VWS V14.01,2013-10-08 16:37:00,
2013-10-08 12:38:00,54.1,41.7,30.31,SW,233,6.9,30.6,63,0.00,,,0.00,VWS V14.01,2013-10-08 16:38:00,
2013-10-08 12:39:00,54.2,41.9,30.31,South,183,11.0,30.6,63,0.00,,,0.00,VWS V14.01,2013-10-08 16:39:00,
2013-10-08 12:40:00,54.2,42.1,30.31,SSW,212,8.4,30.6,63,0.00,,,0.00,VWS V14.01,2013-10-08 16:40:00,
2013-10-08 12:41:00,54.2,42.2,30.31,SW,222,15.1,30.6,64,0.00,,,0.00,VWS V14.01,2013-10-08 16:41:00,
2013-10-08 12:42:00,54.3,42.1,30.31,SW,233,10.6,30.6,63,0.00,,,0.00,VWS V14.01,2013-10-08 16:42:00,
2013-10-08 12:43:00,54.3,42.2,30.31,WSW,242,6.9,30.6,64,0.00,,,0.00,VWS V14.01,2013-10-08 16:43:00,
2013-10-08 12:44:00,54.2,41.8,30.31,North,359,0.7,30.6,63,0.00,,,0.00,VWS V14.01,2013-10-08 16:44:00,
2013-10-08 12:45:00,54.3,41.6,30.31,South,188,9.5,30.6,62,0.00,,,0.00,VWS V14.01,2013-10-08 16:45:00,
2013-10-08 12:46:00,54.3,41.7,30.31,WSW,238,7.5,30.6,62,0.00,,,0.00,VWS V14.01,2013-10-08 16:46:00,
2013-10-08 12:47:00,54.2,41.7,30.31,WSW,238,0.0,30.6,62,0.00,,,0.00,VWS V14.01,2013-10-08 16:47:00,
2013-10-08 12:48:00,54.3,41.9,30.31,SW,219,6.7,30.6,63,0.00,,,0.00,VWS V14.01,2013-10-08 16:48:00,
2013-10-08 12:49:00,54.4,42.0,30.30,WSW,249,4.7,30.6,63,0.00,,,0.00,VWS V14.01,2013-10-08 16:49:00,
2013-10-08 12:50:00,54.3,42.0,30.30,SSW,211,6.5,30.6,63,0.00,,,0.00,VWS V14.01,2013-10-08 16:50:00,
2013-10-08 12:51:00,54.3,42.0,30.30,SSW,201,17.1,30.6,63,0.00,,,0.00,VWS V14.01,2013-10-08 16:51:00,
2013-10-08 12:52:00,54.4,41.8,30.31,SW,217,2.1,30.6,62,0.00,,,0.00,VWS V14.01,2013-10-08 16:52:00,
2013-10-08 12:53:00,54.3,42.0,30.31,North,359,1.9,30.6,63,0.00,,,0.00,VWS V14.01,2013-10-08 16:53:00,
2013-10-08 12:54:00,54.4,42.1,30.31,SW,218,2.6,30.6,63,0.00,,,0.00,VWS V14.01,2013-10-08 16:54:00,
2013-10-08 12:55:00,54.4,41.6,30.31,WNW,294,6.5,30.6,62,0.00,,,0.00,VWS V14.01,2013-10-08 16:55:00,
2013-10-08 12:56:00,54.4,41.9,30.31,WNW,292,7.6,30.6,63,0.00,,,0.00,VWS V14.01,2013-10-08 16:56:00,
2013-10-08 12:57:00,54.5,41.9,30.31,SSW,200,9.1,30.6,62,0.00,,,0.00,VWS V14.01,2013-10-08 16:57:00,
2013-10-08 12:58:00,54.5,41.9,30.30,SSW,205,9.3,30.6,62,0.00,,,0.00,VWS V14.01,2013-10-08 16:58:00,
2013-10-08 12:59:00,54.5,41.9,30.31,SSW,208,25.0,31.7,62,0.00,,,0.00,VWS V14.01,2013-10-08 16:59:00,
2013-10-08 13:00:00,54.5,41.9,30.31,SW,232,12.3,31.7,62,0.00,,,0.00,VWS V14.01,2013-10-08 17:00:00,
2013-10-08 13:01:00,54.5,41.7,30.30,SW,235,18.8,19.4,62,0.00,,,0.00,VWS V14.01,2013-10-08 17:01:00,
2013-10-08 13:02:00,54.5,42.1,30.30,SW,224,6.2,22.7,63,0.00,,,0.00,VWS V14.01,2013-10-08 17:02:00,
2013-10-08 13:03:00,54.6,42.3,30.31,SSW,194,15.1,22.7,63,0.00,,,0.00,VWS V14.01,2013-10-08 17:03:00,
2013-10-08 13:04:00,54.6,41.7,30.30,SW,221,13.4,22.7,62,0.00,,,0.00,VWS V14.01,2013-10-08 17:04:00,
2013-10-08 13:05:00,54.7,41.7,30.30,SW,217,15.5,22.7,62,0.00,,,0.00,VWS V14.01,2013-10-08 17:05:00,
2013-10-08 13:06:00,54.6,41.9,30.31,SSW,212,12.1,22.7,62,0.00,,,0.00,VWS V14.01,2013-10-08 17:06:00,
2013-10-08 13:07:00,54.6,42.0,30.31,South,191,3.7,22.7,62,0.00,,,0.00,VWS V14.01,2013-10-08 17:07:00,
2013-10-08 13:08:00,54.6,41.9,30.30,SW,217,11.2,27.8,62,0.00,,,0.00,VWS V14.01,2013-10-08 17:08:00,
2013-10-08 13:09:00,54.6,41.6,30.30,SW,231,15.7,29.3,61,0.00,,,0.00,VWS V14.01,2013-10-08 17:09:00,
2013-10-08 13:10:00,54.6,41.8,30.30,SSW,208,12.7,29.3,62,0.00,,,0.00,VWS V14.01,2013-10-08 17:10:00,
2013-10-08 13:11:00,54.6,41.9,30.30,WSW,245,10.4,29.3,62,0.00,,,0.00,VWS V14.01,2013-10-08 17:11:00,
2013-10-08 13:12:00,54.8,42.2,30.30,WSW,248,12.3,29.3,62,0.00,,,0.00,VWS V14.01,2013-10-08 17:12:00,
2013-10-08 13:13:00,54.7,41.8,30.30,North,359,18.1,29.3,62,0.00,,,0.00,VWS V14.01,2013-10-08 17:13:00,
2013-10-08 13:14:00,54.7,41.7,30.30,SW,219,9.5,29.3,61,0.00,,,0.00,VWS V14.01,2013-10-08 17:14:00,
2013-10-08 13:15:00,54.7,41.7,30.30,SW,229,19.9,29.3,61,0.00,,,0.00,VWS V14.01,2013-10-08 17:15:00,
2013-10-08 13:16:00,54.7,42.0,30.30,North,359,5.8,29.3,62,0.00,,,0.00,VWS V14.01,2013-10-08 17:16:00,
2013-10-08 13:17:00,54.7,42.1,30.30,South,186,0.0,29.3,62,0.00,,,0.00,VWS V14.01,2013-10-08 17:17:00,
2013-10-08 13:18:00,54.8,41.8,30.30,South,186,0.0,29.3,62,0.00,,,0.00,VWS V14.01,2013-10-08 17:18:00,
2013-10-08 13:19:00,54.7,41.0,30.30,South,186,0.0,29.3,60,0.00,,,0.00,VWS V14.01,2013-10-08 17:19:00,
2013-10-08 13:20:00,54.8,41.1,30.30,South,186,0.0,29.3,60,0.00,,,0.00,VWS V14.01,2013-10-08 17:20:00,
2013-10-08 13:21:00,54.7,41.2,30.30,West,273,6.7,29.3,60,0.00,,,0.00,VWS V14.01,2013-10-08 17:21:00,
2013-10-08 13:22:00,54.7,41.5,30.30,SW,236,14.7,29.3,61,0.00,,,0.00,VWS V14.01,2013-10-08 17:22:00,
2013-10-08 13:23:00,54.7,41.8,30.30,WSW,239,6.9,29.3,62,0.00,,,0.00,VWS V14.01,2013-10-08 17:23:00,
2013-10-08 13:24:00,54.8,41.9,30.30,SW,214,4.8,29.3,62,0.00,,,0.00,VWS V14.01,2013-10-08 17:24:00,
2013-10-08 13:25:00,54.7,41.9,30.30,SSW,204,10.4,29.3,62,0.00,,,0.00,VWS V14.01,2013-10-08 17:25:00,
2013-10-08 13:26:00,54.7,41.8,30.30,SSW,200,17.7,29.3,62,0.00,,,0.00,VWS V14.01,2013-10-08 17:26:00,
2013-10-08 13:27:00,54.7,41.9,30.30,South,191,10.8,29.3,62,0.00,,,0.00,VWS V14.01,2013-10-08 17:27:00,
2013-10-08 13:28:00,54.8,42.0,30.31,North,359,4.1,29.3,62,0.00,,,0.00,VWS V14.01,2013-10-08 17:28:00,
2013-10-08 13:29:00,54.9,42.4,30.31,West,281,2.6,29.3,63,0.00,,,0.00,VWS V14.01,2013-10-08 17:29:00,
2013-10-08 13:30:00,54.8,42.3,30.30,WSW,242,3.9,29.3,63,0.00,,,0.00,VWS V14.01,2013-10-08 17:30:00,
2013-10-08 13:31:00,54.8,42.0,30.30,SW,228,0.0,29.3,62,0.00,,,0.00,VWS V14.01,2013-10-08 17:31:00,
2013-10-08 13:32:00,54.9,42.3,30.30,SW,228,0.0,29.3,62,0.00,,,0.00,VWS V14.01,2013-10-08 17:32:00,
2013-10-08 13:33:00,54.9,42.1,30.30,SW,228,0.0,29.3,62,0.00,,,0.00,VWS V14.01,2013-10-08 17:33:00,
2013-10-08 13:34:00,55.0,42.4,30.30,SW,235,5.8,29.3,62,0.00,,,0.00,VWS V14.01,2013-10-08 17:34:00,
2013-10-08 13:35:00,55.0,42.5,30.30,West,280,12.7,29.3,63,0.00,,,0.00,VWS V14.01,2013-10-08 17:35:00,
2013-10-08 13:36:00,55.0,42.7,30.30,South,187,11.7,29.3,63,0.00,,,0.00,VWS V14.01,2013-10-08 17:36:00,
2013-10-08 13:37:00,55.0,42.7,30.30,SSW,197,10.1,29.3,63,0.00,,,0.00,VWS V14.01,2013-10-08 17:37:00,
2013-10-08 13:38:00,55.1,42.9,30.30,South,186,8.4,29.3,63,0.00,,,0.00,VWS V14.01,2013-10-08 17:38:00,
2013-10-08 13:39:00,55.2,43.0,30.30,SSW,194,0.0,29.3,63,0.00,,,0.00,VWS V14.01,2013-10-08 17:39:00,
2013-10-08 13:40:00,55.3,42.9,30.30,SSW,194,8.2,29.3,63,0.00,,,0.00,VWS V14.01,2013-10-08 17:40:00,
2013-10-08 13:41:00,55.2,42.1,30.30,SSW,204,12.1,29.3,61,0.00,,,0.00,VWS V14.01,2013-10-08 17:41:00,
2013-10-08 13:42:00,55.3,42.1,30.30,SW,228,6.0,29.3,61,0.00,,,0.00,VWS V14.01,2013-10-08 17:42:00,
2013-10-08 13:43:00,55.2,41.9,30.30,WSW,242,12.3,29.3,61,0.00,,,0.00,VWS V14.01,2013-10-08 17:43:00,
2013-10-08 13:44:00,55.4,42.1,30.30,SSW,202,10.1,29.3,61,0.00,,,0.00,VWS V14.01,2013-10-08 17:44:00,
2013-10-08 13:45:00,55.3,42.1,30.30,SW,232,4.8,29.3,61,0.00,,,0.00,VWS V14.01,2013-10-08 17:45:00,
2013-10-08 13:46:00,55.4,41.5,30.30,South,191,1.3,29.3,59,0.00,,,0.00,VWS V14.01,2013-10-08 17:46:00,
2013-10-08 13:47:00,55.6,40.7,30.30,SSW,195,2.1,29.3,57,0.00,,,0.00,VWS V14.01,2013-10-08 17:47:00,
2013-10-08 13:48:00,55.4,40.9,30.30,South,176,5.6,29.3,58,0.00,,,0.00,VWS V14.01,2013-10-08 17:48:00,
2013-10-08 13:49:00,55.4,41.1,30.30,SSW,204,7.8,29.3,58,0.00,,,0.00,VWS V14.01,2013-10-08 17:49:00,
2013-10-08 13:50:00,55.5,41.4,30.30,SW,219,11.6,29.3,59,0.00,,,0.00,VWS V14.01,2013-10-08 17:50:00,
2013-10-08 13:51:00,55.6,41.8,30.30,SW,225,15.1,29.3,60,0.00,,,0.00,VWS V14.01,2013-10-08 17:51:00,
2013-10-08 13:52:00,55.7,42.2,30.30,SW,222,19.6,29.3,60,0.00,,,0.00,VWS V14.01,2013-10-08 17:52:00,
2013-10-08 13:53:00,55.7,41.9,30.30,SW,229,10.1,29.3,60,0.00,,,0.00,VWS V14.01,2013-10-08 17:53:00,
2013-10-08 13:54:00,55.8,41.7,30.30,SSW,208,14.9,29.3,59,0.00,,,0.00,VWS V14.01,2013-10-08 17:54:00,
2013-10-08 13:55:00,55.8,41.8,30.30,SSW,200,6.9,29.3,59,0.00,,,0.00,VWS V14.01,2013-10-08 17:55:00,
2013-10-08 13:56:00,55.9,41.7,30.30,SSW,201,3.5,29.3,59,0.00,,,0.00,VWS V14.01,2013-10-08 17:56:00,
2013-10-08 13:57:00,55.9,41.4,30.30,SE,146,0.0,29.3,58,0.00,,,0.00,VWS V14.01,2013-10-08 17:57:00,
2013-10-08 13:58:00,56.0,41.5,30.30,SW,222,14.2,29.3,58,0.00,,,0.00,VWS V14.01,2013-10-08 17:58:00,
2013-10-08 13:59:00,56.0,41.3,30.30,SSW,205,9.5,29.3,58,0.00,,,0.00,VWS V14.01,2013-10-08 17:59:00,
2013-10-08 14:00:00,56.0,41.2,30.30,SSW,211,7.1,29.3,57,0.00,,,0.00,VWS V14.01,2013-10-08 18:00:00,
2013-10-08 14:01:00,56.0,41.3,30.30,SW,224,12.9,22.2,58,0.00,,,0.00,VWS V14.01,2013-10-08 18:01:00,
2013-10-08 14:02:00,56.1,41.3,30.30,WSW,239,16.4,22.2,57,0.00,,,0.00,VWS V14.01,2013-10-08 18:02:00,
2013-10-08 14:03:00,56.0,41.2,30.30,SW,224,11.0,22.2,58,0.00,,,0.00,VWS V14.01,2013-10-08 18:03:00,
2013-10-08 14:04:00,56.1,41.1,30.30,SSW,212,1.9,22.2,57,0.00,,,0.00,VWS V14.01,2013-10-08 18:04:00,
2013-10-08 14:05:00,56.0,40.8,30.30,SW,229,21.8,22.4,56,0.00,,,0.00,VWS V14.01,2013-10-08 18:05:00,
2013-10-08 14:06:00,56.0,41.2,30.30,West,260,12.5,22.6,57,0.00,,,0.00,VWS V14.01,2013-10-08 18:06:00,
2013-10-08 14:07:00,56.0,41.4,30.30,SW,229,14.2,22.6,58,0.00,,,0.00,VWS V14.01,2013-10-08 18:07:00,
2013-10-08 14:08:00,56.0,41.4,30.30,North,359,1.5,27.8,58,0.00,,,0.00,VWS V14.01,2013-10-08 18:08:00,
2013-10-08 14:09:00,56.0,41.3,30.30,West,259,2.6,27.8,58,0.00,,,0.00,VWS V14.01,2013-10-08 18:09:00,
2013-10-08 14:10:00,56.0,40.9,30.30,West,259,0.0,27.8,57,0.00,,,0.00,VWS V14.01,2013-10-08 18:10:00,
2013-10-08 14:11:00,55.9,40.4,30.30,SW,224,4.7,27.8,56,0.00,,,0.00,VWS V14.01,2013-10-08 18:11:00,
2013-10-08 14:12:00,55.9,40.6,30.30,SW,218,0.0,27.8,56,0.00,,,0.00,VWS V14.01,2013-10-08 18:12:00,
2013-10-08 14:13:00,55.8,40.8,30.29,SW,218,0.0,27.8,57,0.00,,,0.00,VWS V14.01,2013-10-08 18:13:00,
2013-10-08 14:14:00,55.9,41.0,30.29,SW,233,2.1,27.8,57,0.00,,,0.00,VWS V14.01,2013-10-08 18:14:00,
2013-10-08 14:15:00,55.8,41.0,30.29,West,273,3.9,27.8,58,0.00,,,0.00,VWS V14.01,2013-10-08 18:15:00,
2013-10-08 14:16:00,55.9,41.3,30.29,West,280,5.4,27.8,58,0.00,,,0.00,VWS V14.01,2013-10-08 18:16:00,
2013-10-08 14:17:00,55.9,41.6,30.29,West,260,14.4,27.8,58,0.00,,,0.00,VWS V14.01,2013-10-08 18:17:00,
2013-10-08 14:18:00,55.8,41.7,30.29,SW,224,16.6,27.8,59,0.00,,,0.00,VWS V14.01,2013-10-08 18:18:00,
2013-10-08 14:19:00,56.0,41.8,30.29,West,263,12.3,27.8,59,0.00,,,0.00,VWS V14.01,2013-10-08 18:19:00,
2013-10-08 14:20:00,55.9,41.8,30.29,SSW,212,4.7,27.8,59,0.00,,,0.00,VWS V14.01,2013-10-08 18:20:00,
2013-10-08 14:21:00,56.0,41.8,30.29,SW,229,12.3,27.8,59,0.00,,,0.00,VWS V14.01,2013-10-08 18:21:00,
2013-10-08 14:22:00,55.9,41.5,30.29,SSW,200,7.5,27.8,58,0.00,,,0.00,VWS V14.01,2013-10-08 18:22:00,
2013-10-08 14:23:00,56.0,41.7,30.29,SSW,205,7.3,27.8,59,0.00,,,0.00,VWS V14.01,2013-10-08 18:23:00,
2013-10-08 14:24:00,56.0,41.8,30.29,SW,221,6.3,27.8,59,0.00,,,0.00,VWS V14.01,2013-10-08 18:24:00,
2013-10-08 14:25:00,56.0,41.9,30.29,WSW,239,14.0,27.8,59,0.00,,,0.00,VWS V14.01,2013-10-08 18:25:00,
2013-10-08 14:26:00,56.1,42.1,30.29,SSW,207,7.1,27.8,59,0.00,,,0.00,VWS V14.01,2013-10-08 18:26:00,
2013-10-08 14:27:00,56.0,41.9,30.29,SSW,197,3.9,27.8,59,0.00,,,0.00,VWS V14.01,2013-10-08 18:27:00,
2013-10-08 14:28:00,56.1,42.1,30.29,SW,226,5.4,27.8,59,0.00,,,0.00,VWS V14.01,2013-10-08 18:28:00,
2013-10-08 14:29:00,56.0,41.9,30.29,WSW,252,9.5,27.8,59,0.00,,,0.00,VWS V14.01,2013-10-08 18:29:00,
2013-10-08 14:30:00,56.1,41.8,30.29,SSW,211,14.4,27.8,58,0.00,,,0.00,VWS V14.01,2013-10-08 18:30:00,
2013-10-08 14:31:00,56.1,41.7,30.29,WSW,248,13.4,27.8,58,0.00,,,0.00,VWS V14.01,2013-10-08 18:31:00,
2013-10-08 14:32:00,56.1,41.5,30.29,SW,229,13.6,27.8,58,0.00,,,0.00,VWS V14.01,2013-10-08 18:32:00,
2013-10-08 14:33:00,56.1,41.2,30.29,WSW,252,4.1,27.8,57,0.00,,,0.00,VWS V14.01,2013-10-08 18:33:00,
2013-10-08 14:34:00,56.1,41.0,30.29,SW,231,3.2,27.8,57,0.00,,,0.00,VWS V14.01,2013-10-08 18:34:00,
2013-10-08 14:35:00,56.1,41.0,30.29,SSW,207,2.8,27.8,57,0.00,,,0.00,VWS V14.01,2013-10-08 18:35:00,
2013-10-08 14:36:00,56.2,41.0,30.29,SSW,202,18.1,27.8,57,0.00,,,0.00,VWS V14.01,2013-10-08 18:36:00,
2013-10-08 14:37:00,56.1,40.7,30.29,SSW,204,10.4,27.8,56,0.00,,,0.00,VWS V14.01,2013-10-08 18:37:00,
2013-10-08 14:38:00,56.1,40.3,30.29,SSW,198,11.4,27.8,55,0.00,,,0.00,VWS V14.01,2013-10-08 18:38:00,
2013-10-08 14:39:00,56.1,40.0,30.29,SW,214,6.9,27.8,55,0.00,,,0.00,VWS V14.01,2013-10-08 18:39:00,
2013-10-08 14:40:00,56.2,39.8,30.29,WSW,256,2.4,27.8,54,0.00,,,0.00,VWS V14.01,2013-10-08 18:40:00,
2013-10-08 14:41:00,56.2,39.5,30.29,ESE,120,0.0,27.8,53,0.00,,,0.00,VWS V14.01,2013-10-08 18:41:00,
2013-10-08 14:42:00,56.1,39.4,30.29,WSW,245,2.1,27.8,53,0.00,,,0.00,VWS V14.01,2013-10-08 18:42:00,
2013-10-08 14:43:00,56.3,39.8,30.28,SSW,210,11.9,27.8,54,0.00,,,0.00,VWS V14.01,2013-10-08 18:43:00,
2013-10-08 14:44:00,56.2,40.0,30.28,SSW,205,11.2,27.8,54,0.00,,,0.00,VWS V14.01,2013-10-08 18:44:00,
2013-10-08 14:45:00,56.3,40.1,30.29,WSW,239,9.5,27.8,54,0.00,,,0.00,VWS V14.01,2013-10-08 18:45:00,
2013-10-08 14:46:00,56.2,40.0,30.28,SW,215,15.5,27.8,54,0.00,,,0.00,VWS V14.01,2013-10-08 18:46:00,
2013-10-08 14:47:00,56.3,40.1,30.29,SSW,208,12.3,27.8,54,0.00,,,0.00,VWS V14.01,2013-10-08 18:47:00,
2013-10-08 14:48:00,56.3,40.2,30.29,SSW,195,12.9,27.8,55,0.00,,,0.00,VWS V14.01,2013-10-08 18:48:00,
2013-10-08 14:49:00,56.2,39.9,30.28,SSW,198,23.3,27.8,54,0.00,,,0.00,VWS V14.01,2013-10-08 18:49:00,
2013-10-08 14:50:00,56.2,40.1,30.28,SW,219,16.6,27.8,55,0.00,,,0.00,VWS V14.01,2013-10-08 18:50:00,
2013-10-08 14:51:00,56.4,40.5,30.28,SSW,201,10.1,27.8,55,0.00,,,0.00,VWS V14.01,2013-10-08 18:51:00,
2013-10-08 14:52:00,56.3,40.4,30.28,SSE,150,0.0,27.8,55,0.00,,,0.00,VWS V14.01,2013-10-08 18:52:00,
2013-10-08 14:53:00,56.3,40.3,30.28,SW,225,19.4,27.8,55,0.00,,,0.00,VWS V14.01,2013-10-08 18:53:00,
2013-10-08 14:54:00,56.5,40.6,30.28,SW,225,11.9,27.8,55,0.00,,,0.00,VWS V14.01,2013-10-08 18:54:00,
2013-10-08 14:55:00,56.2,40.4,30.28,SSW,212,9.1,27.8,55,0.00,,,0.00,VWS V14.01,2013-10-08 18:55:00,
2013-10-08 14:56:00,56.3,40.5,30.28,SW,233,14.5,27.8,55,0.00,,,0.00,VWS V14.01,2013-10-08 18:56:00,
2013-10-08 14:57:00,56.3,40.3,30.28,South,177,8.4,27.8,55,0.00,,,0.00,VWS V14.01,2013-10-08 18:57:00,
2013-10-08 14:58:00,56.3,40.4,30.28,SW,236,9.9,27.8,55,0.00,,,0.00,VWS V14.01,2013-10-08 18:58:00,
2013-10-08 14:59:00,56.4,40.3,30.28,SSW,210,10.3,27.8,55,0.00,,,0.00,VWS V14.01,2013-10-08 18:59:00,
2013-10-08 15:00:00,56.4,40.3,30.28,SW,224,10.8,27.8,55,0.00,,,0.00,VWS V14.01,2013-10-08 19:00:00,
2013-10-08 15:01:00,56.4,40.7,30.28,SW,219,10.6,15.8,56,0.00,,,0.00,VWS V14.01,2013-10-08 19:01:00,
2013-10-08 15:02:00,56.5,40.9,30.28,SW,219,10.8,15.8,56,0.00,,,0.00,VWS V14.01,2013-10-08 19:02:00,
2013-10-08 15:03:00,56.5,40.8,30.28,SSW,204,7.1,15.8,56,0.00,,,0.00,VWS V14.01,2013-10-08 19:03:00,
2013-10-08 15:04:00,56.6,40.9,30.28,South,183,12.5,15.8,56,0.00,,,0.00,VWS V14.01,2013-10-08 19:04:00,
2013-10-08 15:05:00,56.4,40.9,30.28,SSW,208,6.9,27.8,56,0.00,,,0.00,VWS V14.01,2013-10-08 19:05:00,
2013-10-08 15:06:00,56.7,41.4,30.28,SSW,208,11.6,27.8,56,0.00,,,0.00,VWS V14.01,2013-10-08 19:06:00,
2013-10-08 15:07:00,56.5,41.3,30.28,SSW,207,11.0,28.7,57,0.00,,,0.00,VWS V14.01,2013-10-08 19:07:00,
2013-10-08 15:08:00,56.5,41.2,30.28,WNW,294,5.6,28.7,56,0.00,,,0.00,VWS V14.01,2013-10-08 19:08:00,
2013-10-08 15:09:00,56.6,41.4,30.28,West,274,9.1,28.7,57,0.00,,,0.00,VWS V14.01,2013-10-08 19:09:00,
2013-10-08 15:10:00,56.5,41.3,30.28,WSW,242,4.1,28.7,57,0.00,,,0.00,VWS V14.01,2013-10-08 19:10:00,
2013-10-08 15:11:00,56.4,41.3,30.28,SSW,204,11.2,28.7,57,0.00,,,0.00,VWS V14.01,2013-10-08 19:11:00,
2013-10-08 15:12:00,56.6,41.6,30.28,SW,224,10.4,28.7,57,0.00,,,0.00,VWS V14.01,2013-10-08 19:12:00,
2013-10-08 15:13:00,56.4,41.2,30.28,SE,128,1.3,28.7,56,0.00,,,0.00,VWS V14.01,2013-10-08 19:13:00,
2013-10-08 15:14:00,56.6,41.5,30.28,WSW,253,1.3,28.9,57,0.00,,,0.00,VWS V14.01,2013-10-08 19:14:00,
2013-10-08 15:15:00,56.7,41.7,30.28,West,270,4.5,28.9,57,0.00,,,0.00,VWS V14.01,2013-10-08 19:15:00,
2013-10-08 15:16:00,56.5,41.4,30.28,SW,218,9.5,28.9,57,0.00,,,0.00,VWS V14.01,2013-10-08 19:16:00,
2013-10-08 15:17:00,56.6,41.4,30.28,SSW,194,9.5,28.9,57,0.00,,,0.00,VWS V14.01,2013-10-08 19:17:00,
2013-10-08 15:18:00,56.6,41.5,30.28,South,183,0.0,28.9,57,0.00,,,0.00,VWS V14.01,2013-10-08 19:18:00,
2013-10-08 15:19:00,56.7,41.3,30.28,WSW,248,6.9,29.3,56,0.00,,,0.00,VWS V14.01,2013-10-08 19:19:00,
2013-10-08 15:20:00,56.7,41.5,30.28,WNW,288,1.5,29.3,57,0.00,,,0.00,VWS V14.01,2013-10-08 19:20:00,
2013-10-08 15:21:00,56.7,41.6,30.28,West,277,4.8,29.3,57,0.00,,,0.00,VWS V14.01,2013-10-08 19:21:00,
2013-10-08 15:22:00,56.6,41.6,30.28,North,359,2.8,29.3,57,0.00,,,0.00,VWS V14.01,2013-10-08 19:22:00,
2013-10-08 15:23:00,56.7,41.5,30.28,WNW,283,6.2,29.3,57,0.00,,,0.00,VWS V14.01,2013-10-08 19:23:00,
2013-10-08 15:24:00,56.7,41.6,30.28,SSW,208,12.9,29.3,57,0.00,,,0.00,VWS V14.01,2013-10-08 19:24:00,
2013-10-08 15:25:00,56.7,41.7,30.28,SSW,204,19.9,29.3,57,0.00,,,0.00,VWS V14.01,2013-10-08 19:25:00,
2013-10-08 15:26:00,56.8,41.9,30.28,SW,233,10.8,29.3,57,0.00,,,0.00,VWS V14.01,2013-10-08 19:26:00,
2013-10-08 15:27:00,56.8,41.7,30.28,WNW,288,2.1,29.3,57,0.00,,,0.00,VWS V14.01,2013-10-08 19:27:00,
2013-10-08 15:28:00,56.8,41.4,30.28,WNW,283,5.4,29.3,56,0.00,,,0.00,VWS V14.01,2013-10-08 19:28:00,
2013-10-08 15:29:00,57.0,41.6,30.28,West,269,2.1,29.3,56,0.00,,,0.00,VWS V14.01,2013-10-08 19:29:00,
2013-10-08 15:30:00,56.9,41.6,30.29,West,274,10.4,29.3,56,0.00,,,0.00,VWS V14.01,2013-10-08 19:30:00,
2013-10-08 15:31:00,56.9,41.3,30.29,WNW,285,10.3,29.3,56,0.00,,,0.00,VWS V14.01,2013-10-08 19:31:00,
2013-10-08 15:32:00,57.0,41.3,30.29,West,277,5.6,29.3,56,0.00,,,0.00,VWS V14.01,2013-10-08 19:32:00,
2013-10-08 15:33:00,57.1,41.6,30.29,WSW,257,3.9,29.3,56,0.00,,,0.00,VWS V14.01,2013-10-08 19:33:00,
2013-10-08 15:34:00,56.9,41.5,30.29,South,169,3.2,29.3,56,0.00,,,0.00,VWS V14.01,2013-10-08 19:34:00,
2013-10-08 15:35:00,57.0,41.2,30.28,SW,217,12.5,29.3,56,0.00,,,0.00,VWS V14.01,2013-10-08 19:35:00,
2013-10-08 15:36:00,57.0,41.4,30.29,SSW,198,20.3,29.3,56,0.00,,,0.00,VWS V14.01,2013-10-08 19:36:00,
2013-10-08 15:37:00,57.1,41.4,30.28,SW,236,16.0,29.3,56,0.00,,,0.00,VWS V14.01,2013-10-08 19:37:00,
2013-10-08 15:38:00,57.0,41.3,30.29,SW,214,6.7,29.3,56,0.00,,,0.00,VWS V14.01,2013-10-08 19:38:00,
2013-10-08 15:39:00,57.0,41.2,30.29,SW,219,6.7,29.3,55,0.00,,,0.00,VWS V14.01,2013-10-08 19:39:00,
2013-10-08 15:40:00,57.1,41.4,30.29,West,262,4.3,29.3,56,0.00,,,0.00,VWS V14.01,2013-10-08 19:40:00,
2013-10-08 15:41:00,57.2,41.6,30.29,West,276,10.1,29.3,56,0.00,,,0.00,VWS V14.01,2013-10-08 19:41:00,
2013-10-08 15:42:00,57.2,41.5,30.29,SSW,195,1.9,29.3,56,0.00,,,0.00,VWS V14.01,2013-10-08 19:42:00,
2013-10-08 15:43:00,57.2,41.2,30.28,SW,222,0.0,29.3,55,0.00,,,0.00,VWS V14.01,2013-10-08 19:43:00,
2013-10-08 15:44:00,57.3,41.0,30.29,SSW,207,7.5,29.3,54,0.00,,,0.00,VWS V14.01,2013-10-08 19:44:00,
2013-10-08 15:45:00,57.2,41.0,30.29,SW,219,8.2,29.3,54,0.00,,,0.00,VWS V14.01,2013-10-08 19:45:00,
2013-10-08 15:46:00,57.3,41.2,30.29,SW,226,8.4,29.3,55,0.00,,,0.00,VWS V14.01,2013-10-08 19:46:00,
2013-10-08 15:47:00,57.3,41.4,30.29,SW,235,2.6,29.3,55,0.00,,,0.00,VWS V14.01,2013-10-08 19:47:00,
2013-10-08 15:48:00,57.3,41.4,30.29,ESE,114,4.5,29.3,55,0.00,,,0.00,VWS V14.01,2013-10-08 19:48:00,
2013-10-08 15:49:00,57.4,41.5,30.29,SW,226,6.3,29.3,55,0.00,,,0.00,VWS V14.01,2013-10-08 19:49:00,
2013-10-08 15:50:00,57.4,41.2,30.29,SW,215,5.2,29.3,55,0.00,,,0.00,VWS V14.01,2013-10-08 19:50:00,
2013-10-08 15:51:00,57.5,41.1,30.29,WSW,249,9.1,29.3,54,0.00,,,0.00,VWS V14.01,2013-10-08 19:51:00,
2013-10-08 15:52:00,57.4,41.0,30.29,SSW,205,8.6,29.3,54,0.00,,,0.00,VWS V14.01,2013-10-08 19:52:00,
2013-10-08 15:53:00,57.4,41.1,30.29,SSW,208,7.5,29.3,54,0.00,,,0.00,VWS V14.01,2013-10-08 19:53:00,
2013-10-08 15:54:00,57.4,40.5,30.29,SW,232,8.8,29.3,53,0.00,,,0.00,VWS V14.01,2013-10-08 19:54:00,
2013-10-08 15:55:00,57.5,40.9,30.29,West,264,4.5,29.3,54,0.00,,,0.00,VWS V14.01,2013-10-08 19:55:00,
2013-10-08 15:56:00,57.5,40.9,30.29,North,359,8.6,29.3,54,0.00,,,0.00,VWS V14.01,2013-10-08 19:56:00,
2013-10-08 15:57:00,57.5,41.0,30.29,WNW,283,9.3,29.3,54,0.00,,,0.00,VWS V14.01,2013-10-08 19:57:00,
2013-10-08 15:58:00,57.4,40.9,30.29,SW,229,13.2,29.3,54,0.00,,,0.00,VWS V14.01,2013-10-08 19:58:00,
2013-10-08 15:59:00,57.5,40.7,30.29,WSW,240,10.4,29.3,53,0.00,,,0.00,VWS V14.01,2013-10-08 19:59:00,
2013-10-08 16:00:00,57.5,40.7,30.29,North,359,26.7,29.3,53,0.00,,,0.00,VWS V14.01,2013-10-08 20:00:00,
2013-10-08 16:01:00,57.5,40.9,30.29,WSW,239,11.0,29.3,54,0.00,,,0.00,VWS V14.01,2013-10-08 20:01:00,
2013-10-08 16:02:00,57.5,40.7,30.29,SW,231,8.6,29.3,53,0.00,,,0.00,VWS V14.01,2013-10-08 20:02:00,
2013-10-08 16:03:00,57.4,40.1,30.29,SW,233,25.4,29.3,52,0.00,,,0.00,VWS V14.01,2013-10-08 20:03:00,
2013-10-08 16:04:00,57.4,39.5,30.29,SW,225,12.3,29.3,51,0.00,,,0.00,VWS V14.01,2013-10-08 20:04:00,
2013-10-08 16:05:00,57.5,39.7,30.29,SW,219,10.6,29.3,51,0.00,,,0.00,VWS V14.01,2013-10-08 20:05:00,
2013-10-08 16:06:00,57.5,39.9,30.29,WSW,252,7.3,29.3,52,0.00,,,0.00,VWS V14.01,2013-10-08 20:06:00,
2013-10-08 16:07:00,57.4,39.7,30.29,WSW,248,6.2,29.3,52,0.00,,,0.00,VWS V14.01,2013-10-08 20:07:00,
2013-10-08 16:08:00,57.5,39.8,30.29,SW,224,6.9,29.3,52,0.00,,,0.00,VWS V14.01,2013-10-08 20:08:00,
2013-10-08 16:09:00,57.5,40.0,30.29,North,359,8.0,29.3,52,0.00,,,0.00,VWS V14.01,2013-10-08 20:09:00,
2013-10-08 16:10:00,57.5,40.0,30.29,SSE,167,3.0,29.5,52,0.00,,,0.00,VWS V14.01,2013-10-08 20:10:00,
2013-10-08 16:11:00,57.5,40.1,30.29,SSW,207,10.6,29.5,52,0.00,,,0.00,VWS V14.01,2013-10-08 20:11:00,
2013-10-08 16:12:00,57.5,40.0,30.29,WSW,257,10.1,29.5,52,0.00,,,0.00,VWS V14.01,2013-10-08 20:12:00,
2013-10-08 16:13:00,57.4,40.0,30.29,South,190,14.0,29.5,52,0.00,,,0.00,VWS V14.01,2013-10-08 20:13:00,
2013-10-08 16:14:00,57.5,39.7,30.30,WNW,288,4.8,29.5,51,0.00,,,0.00,VWS V14.01,2013-10-08 20:14:00,
2013-10-08 16:15:00,57.5,39.8,30.30,SSW,207,8.6,29.5,52,0.00,,,0.00,VWS V14.01,2013-10-08 20:15:00,
2013-10-08 16:16:00,57.4,38.8,30.29,SSW,212,13.0,29.5,50,0.00,,,0.00,VWS V14.01,2013-10-08 20:16:00,
2013-10-08 16:17:00,57.4,39.0,30.29,WSW,255,8.2,29.5,50,0.00,,,0.00,VWS V14.01,2013-10-08 20:17:00,
2013-10-08 16:18:00,57.5,39.5,30.29,SW,231,7.6,29.5,51,0.00,,,0.00,VWS V14.01,2013-10-08 20:18:00,
2013-10-08 16:19:00,57.4,39.7,30.29,SW,214,12.3,29.5,52,0.00,,,0.00,VWS V14.01,2013-10-08 20:19:00,
2013-10-08 16:20:00,57.4,39.9,30.29,SSW,204,3.0,29.5,52,0.00,,,0.00,VWS V14.01,2013-10-08 20:20:00,
2013-10-08 16:21:00,57.4,40.2,30.29,SSW,200,4.8,29.5,53,0.00,,,0.00,VWS V14.01,2013-10-08 20:21:00,
2013-10-08 16:22:00,57.4,40.2,30.29,SSW,202,7.5,29.5,53,0.00,,,0.00,VWS V14.01,2013-10-08 20:22:00,
2013-10-08 16:23:00,57.3,40.1,30.29,SSW,202,8.2,29.5,53,0.00,,,0.00,VWS V14.01,2013-10-08 20:23:00,
2013-10-08 16:24:00,57.3,40.1,30.29,SW,219,7.8,29.5,53,0.00,,,0.00,VWS V14.01,2013-10-08 20:24:00,
2013-10-08 16:25:00,57.3,39.8,30.29,SW,228,9.5,29.5,52,0.00,,,0.00,VWS V14.01,2013-10-08 20:25:00,
2013-10-08 16:26:00,57.2,39.5,30.29,SW,221,1.3,29.5,52,0.00,,,0.00,VWS V14.01,2013-10-08 20:26:00,
2013-10-08 16:27:00,57.2,39.5,30.29,SW,214,4.8,29.5,51,0.00,,,0.00,VWS V14.01,2013-10-08 20:27:00,
2013-10-08 16:28:00,57.0,39.6,30.29,SSW,193,0.0,29.5,52,0.00,,,0.00,VWS V14.01,2013-10-08 20:28:00,
2013-10-08 16:29:00,57.1,39.9,30.29,SW,233,5.2,29.5,52,0.00,,,0.00,VWS V14.01,2013-10-08 20:29:00,
2013-10-08 16:30:00,57.1,40.2,30.29,SW,214,6.7,29.5,53,0.00,,,0.00,VWS V14.01,2013-10-08 20:30:00,
2013-10-08 16:31:00,57.0,40.3,30.29,WSW,253,5.8,29.5,54,0.00,,,0.00,VWS V14.01,2013-10-08 20:31:00,
2013-10-08 16:32:00,57.1,40.5,30.29,West,259,7.1,29.5,54,0.00,,,0.00,VWS V14.01,2013-10-08 20:32:00,
2013-10-08 16:33:00,56.9,40.5,30.29,North,359,3.4,29.5,54,0.00,,,0.00,VWS V14.01,2013-10-08 20:33:00,
2013-10-08 16:34:00,56.9,40.4,30.29,SSW,198,4.8,29.5,54,0.00,,,0.00,VWS V14.01,2013-10-08 20:34:00,
2013-10-08 16:35:00,57.0,40.4,30.29,SSW,212,5.4,29.5,54,0.00,,,0.00,VWS V14.01,2013-10-08 20:35:00,
2013-10-08 16:36:00,56.8,40.2,30.29,SW,224,7.5,29.5,54,0.00,,,0.00,VWS V14.01,2013-10-08 20:36:00,
2013-10-08 16:37:00,57.0,40.2,30.29,SSW,193,0.0,29.5,53,0.00,,,0.00,VWS V14.01,2013-10-08 20:37:00,
2013-10-08 16:38:00,56.8,39.6,30.29,SW,219,6.7,29.5,52,0.00,,,0.00,VWS V14.01,2013-10-08 20:38:00,
2013-10-08 16:39:00,56.8,39.8,30.29,SSW,200,2.1,29.5,53,0.00,,,0.00,VWS V14.01,2013-10-08 20:39:00,
2013-10-08 16:40:00,56.7,39.9,30.29,SW,233,0.0,29.5,53,0.00,,,0.00,VWS V14.01,2013-10-08 20:40:00,
2013-10-08 16:41:00,56.7,40.1,30.29,SSW,195,6.5,29.5,54,0.00,,,0.00,VWS V14.01,2013-10-08 20:41:00,
2013-10-08 16:42:00,56.8,40.2,30.29,SW,214,4.8,29.5,54,0.00,,,0.00,VWS V14.01,2013-10-08 20:42:00,
2013-10-08 16:43:00,56.7,40.2,30.29,SW,236,5.6,29.5,54,0.00,,,0.00,VWS V14.01,2013-10-08 20:43:00,
2013-10-08 16:44:00,56.6,40.3,30.29,SW,222,7.5,29.5,54,0.00,,,0.00,VWS V14.01,2013-10-08 20:44:00,
2013-10-08 16:45:00,56.6,40.3,30.29,SW,221,4.3,29.5,54,0.00,,,0.00,VWS V14.01,2013-10-08 20:45:00,
2013-10-08 16:46:00,56.5,40.3,30.29,SSW,200,3.9,29.5,54,0.00,,,0.00,VWS V14.01,2013-10-08 20:46:00,
2013-10-08 16:47:00,56.7,40.5,30.29,SW,214,6.0,29.5,54,0.00,,,0.00,VWS V14.01,2013-10-08 20:47:00,
2013-10-08 16:48:00,56.4,40.3,30.29,SW,228,3.9,29.5,55,0.00,,,0.00,VWS V14.01,2013-10-08 20:48:00,
2013-10-08 16:49:00,56.4,40.4,30.29,ENE,69,3.0,29.5,55,0.00,,,0.00,VWS V14.01,2013-10-08 20:49:00,
2013-10-08 16:50:00,56.4,40.2,30.29,SW,225,4.1,29.5,54,0.00,,,0.00,VWS V14.01,2013-10-08 20:50:00,
2013-10-08 16:51:00,56.4,40.1,30.29,SW,228,6.0,29.5,54,0.00,,,0.00,VWS V14.01,2013-10-08 20:51:00,
2013-10-08 16:52:00,56.3,40.0,30.29,SW,214,3.5,29.5,54,0.00,,,0.00,VWS V14.01,2013-10-08 20:52:00,
2013-10-08 16:53:00,56.3,40.1,30.29,WSW,252,1.1,29.5,54,0.00,,,0.00,VWS V14.01,2013-10-08 20:53:00,
2013-10-08 16:54:00,56.2,40.3,30.29,SSW,211,4.5,29.5,55,0.00,,,0.00,VWS V14.01,2013-10-08 20:54:00,
2013-10-08 16:55:00,56.4,40.5,30.29,South,174,9.7,29.5,55,0.00,,,0.00,VWS V14.01,2013-10-08 20:55:00,
2013-10-08 16:56:00,56.2,40.4,30.29,SW,225,10.1,29.5,55,0.00,,,0.00,VWS V14.01,2013-10-08 20:56:00,
2013-10-08 16:57:00,56.2,40.4,30.29,SW,219,7.6,29.5,55,0.00,,,0.00,VWS V14.01,2013-10-08 20:57:00,
2013-10-08 16:58:00,56.2,40.5,30.29,SW,228,6.2,29.5,56,0.00,,,0.00,VWS V14.01,2013-10-08 20:58:00,
2013-10-08 16:59:00,56.3,40.7,30.29,SW,235,4.7,29.5,56,0.00,,,0.00,VWS V14.01,2013-10-08 20:59:00,
2013-10-08 17:00:00,56.2,40.5,30.29,SW,236,5.8,29.5,56,0.00,,,0.00,VWS V14.01,2013-10-08 21:00:00,
2013-10-08 17:01:00,56.2,40.5,30.29,South,173,1.1,6.9,56,0.00,,,0.00,VWS V14.01,2013-10-08 21:01:00,
2013-10-08 17:02:00,56.2,40.5,30.30,WSW,242,3.4,6.9,56,0.00,,,0.00,VWS V14.01,2013-10-08 21:02:00,
2013-10-08 17:03:00,56.1,40.5,30.30,SW,224,2.8,6.9,56,0.00,,,0.00,VWS V14.01,2013-10-08 21:03:00,
2013-10-08 17:04:00,56.0,40.4,30.30,SW,219,4.5,6.9,56,0.00,,,0.00,VWS V14.01,2013-10-08 21:04:00,
2013-10-08 17:05:00,56.2,40.7,30.30,SSW,194,0.0,6.9,56,0.00,,,0.00,VWS V14.01,2013-10-08 21:05:00,
2013-10-08 17:06:00,56.0,40.5,30.30,SSW,194,0.0,6.9,56,0.00,,,0.00,VWS V14.01,2013-10-08 21:06:00,
2013-10-08 17:07:00,56.0,40.5,30.30,SSW,194,0.0,6.9,56,0.00,,,0.00,VWS V14.01,2013-10-08 21:07:00,
2013-10-08 17:08:00,56.0,40.6,30.30,SSW,194,0.0,6.9,56,0.00,,,0.00,VWS V14.01,2013-10-08 21:08:00,
2013-10-08 17:09:00,56.1,40.9,30.30,SSW,194,0.0,6.9,56,0.00,,,0.00,VWS V14.01,2013-10-08 21:09:00,
2013-10-08 17:10:00,56.0,40.8,30.30,SSW,194,0.0,6.9,56,0.00,,,0.00,VWS V14.01,2013-10-08 21:10:00,
2013-10-08 17:11:00,55.9,40.8,30.30,SSW,194,0.0,6.9,57,0.00,,,0.00,VWS V14.01,2013-10-08 21:11:00,
2013-10-08 17:12:00,55.9,40.9,30.30,SSW,194,0.0,6.9,57,0.00,,,0.00,VWS V14.01,2013-10-08 21:12:00,
2013-10-08 17:13:00,55.8,40.9,30.30,SSW,194,0.0,6.9,57,0.00,,,0.00,VWS V14.01,2013-10-08 21:13:00,
2013-10-08 17:14:00,55.9,41.0,30.30,SSW,194,0.0,6.9,57,0.00,,,0.00,VWS V14.01,2013-10-08 21:14:00,
2013-10-08 17:15:00,55.8,40.9,30.30,SSW,194,0.0,6.9,57,0.00,,,0.00,VWS V14.01,2013-10-08 21:15:00,
2013-10-08 17:16:00,55.7,40.8,30.29,SSW,194,0.0,6.9,57,0.00,,,0.00,VWS V14.01,2013-10-08 21:16:00,
2013-10-08 17:17:00,55.7,40.7,30.30,SSW,194,0.0,6.9,57,0.00,,,0.00,VWS V14.01,2013-10-08 21:17:00,
2013-10-08 17:18:00,55.6,40.6,30.29,SSW,194,0.0,6.9,57,0.00,,,0.00,VWS V14.01,2013-10-08 21:18:00,
2013-10-08 17:19:00,55.6,40.8,30.29,SSW,194,0.0,6.9,57,0.00,,,0.00,VWS V14.01,2013-10-08 21:19:00,
2013-10-08 17:20:00,55.5,40.6,30.29,SSW,194,0.0,6.9,57,0.00,,,0.00,VWS V14.01,2013-10-08 21:20:00,
2013-10-08 17:21:00,55.6,40.7,30.29,SSW,194,0.0,6.9,57,0.00,,,0.00,VWS V14.01,2013-10-08 21:21:00,
2013-10-08 17:22:00,55.6,40.7,30.29,SSW,194,0.0,6.9,57,0.00,,,0.00,VWS V14.01,2013-10-08 21:22:00,
2013-10-08 17:23:00,55.5,40.6,30.29,SSW,194,0.0,6.9,57,0.00,,,0.00,VWS V14.01,2013-10-08 21:23:00,
2013-10-08 17:24:00,55.4,40.6,30.29,SSW,194,0.0,6.9,57,0.00,,,0.00,VWS V14.01,2013-10-08 21:24:00,
2013-10-08 17:25:00,55.4,40.7,30.29,SSW,194,0.0,6.9,58,0.00,,,0.00,VWS V14.01,2013-10-08 21:25:00,
2013-10-08 17:26:00,55.3,40.6,30.29,SSW,194,0.0,6.9,58,0.00,,,0.00,VWS V14.01,2013-10-08 21:26:00,
2013-10-08 17:27:00,55.3,40.7,30.29,SSW,194,0.0,6.9,58,0.00,,,0.00,VWS V14.01,2013-10-08 21:27:00,
2013-10-08 17:28:00,55.3,40.7,30.30,SSW,194,0.0,6.9,58,0.00,,,0.00,VWS V14.01,2013-10-08 21:28:00,
2013-10-08 17:29:00,55.2,40.7,30.30,SSW,194,0.0,6.9,58,0.00,,,0.00,VWS V14.01,2013-10-08 21:29:00,
2013-10-08 17:30:00,55.2,41.0,30.29,SSW,194,0.0,6.9,59,0.00,,,0.00,VWS V14.01,2013-10-08 21:30:00,
2013-10-08 17:31:00,55.2,41.1,30.30,SSW,194,0.0,6.9,59,0.00,,,0.00,VWS V14.01,2013-10-08 21:31:00,
2013-10-08 17:32:00,55.1,41.0,30.30,SSW,194,0.0,6.9,59,0.00,,,0.00,VWS V14.01,2013-10-08 21:32:00,
2013-10-08 17:33:00,55.1,41.1,30.30,SSW,194,0.0,6.9,59,0.00,,,0.00,VWS V14.01,2013-10-08 21:33:00,
2013-10-08 17:34:00,55.0,41.1,30.30,SSW,194,0.0,6.9,59,0.00,,,0.00,VWS V14.01,2013-10-08 21:34:00,
2013-10-08 17:35:00,55.1,41.1,30.29,SSW,194,0.0,6.9,59,0.00,,,0.00,VWS V14.01,2013-10-08 21:35:00,
2013-10-08 17:36:00,54.9,40.9,30.29,SSW,194,0.0,6.9,59,0.00,,,0.00,VWS V14.01,2013-10-08 21:36:00,
2013-10-08 17:37:00,54.8,40.8,30.29,SW,228,2.4,11.6,59,0.00,,,0.00,VWS V14.01,2013-10-08 21:37:00,
2013-10-08 17:38:00,54.8,40.7,30.29,WSW,242,6.3,11.6,59,0.00,,,0.00,VWS V14.01,2013-10-08 21:38:00,
2013-10-08 17:39:00,54.8,40.9,30.29,SW,215,0.0,11.6,59,0.00,,,0.00,VWS V14.01,2013-10-08 21:39:00,
2013-10-08 17:40:00,54.8,40.6,30.29,SW,215,0.0,11.6,59,0.00,,,0.00,VWS V14.01,2013-10-08 21:40:00,
2013-10-08 17:41:00,54.6,40.4,30.29,SW,215,0.0,11.6,58,0.00,,,0.00,VWS V14.01,2013-10-08 21:41:00,
2013-10-08 17:42:00,54.5,40.0,30.29,SW,215,0.0,11.6,58,0.00,,,0.00,VWS V14.01,2013-10-08 21:42:00,
2013-10-08 17:43:00,54.5,40.1,30.29,SW,215,0.0,11.6,58,0.00,,,0.00,VWS V14.01,2013-10-08 21:43:00,
2013-10-08 17:44:00,54.5,40.0,30.29,SW,215,0.0,11.6,58,0.00,,,0.00,VWS V14.01,2013-10-08 21:44:00,
2013-10-08 17:45:00,54.5,39.9,30.29,SW,215,0.0,11.6,58,0.00,,,0.00,VWS V14.01,2013-10-08 21:45:00,
2013-10-08 17:46:00,54.4,39.5,30.29,SW,215,0.0,11.6,57,0.00,,,0.00,VWS V14.01,2013-10-08 21:46:00,
2013-10-08 17:47:00,54.5,39.7,30.29,SW,215,0.0,11.6,57,0.00,,,0.00,VWS V14.01,2013-10-08 21:47:00,
2013-10-08 17:48:00,54.3,39.7,30.29,SW,215,0.0,11.6,58,0.00,,,0.00,VWS V14.01,2013-10-08 21:48:00,
2013-10-08 17:49:00,54.2,40.0,30.29,SW,215,0.0,11.6,59,0.00,,,0.00,VWS V14.01,2013-10-08 21:49:00,
2013-10-08 17:50:00,54.2,40.0,30.29,SW,215,0.0,11.6,58,0.00,,,0.00,VWS V14.01,2013-10-08 21:50:00,
2013-10-08 17:51:00,54.2,40.0,30.29,SW,215,0.0,11.6,58,0.00,,,0.00,VWS V14.01,2013-10-08 21:51:00,
2013-10-08 17:52:00,54.1,39.8,30.29,SW,215,0.0,11.6,58,0.00,,,0.00,VWS V14.01,2013-10-08 21:52:00,
2013-10-08 17:53:00,54.1,39.8,30.29,SW,215,0.0,11.6,58,0.00,,,0.00,VWS V14.01,2013-10-08 21:53:00,
2013-10-08 17:54:00,54.1,39.7,30.29,SW,215,0.0,11.6,58,0.00,,,0.00,VWS V14.01,2013-10-08 21:54:00,
2013-10-08 17:55:00,54.1,39.6,30.29,SW,215,0.0,11.6,58,0.00,,,0.00,VWS V14.01,2013-10-08 21:55:00,
2013-10-08 17:56:00,54.1,39.6,30.29,SW,215,0.0,11.6,58,0.00,,,0.00,VWS V14.01,2013-10-08 21:56:00,
2013-10-08 17:57:00,54.0,39.3,30.29,SW,215,0.0,11.6,58,0.00,,,0.00,VWS V14.01,2013-10-08 21:57:00,
2013-10-08 17:58:00,54.0,39.3,30.29,SW,215,0.0,11.6,57,0.00,,,0.00,VWS V14.01,2013-10-08 21:58:00,
2013-10-08 17:59:00,53.9,39.3,30.29,SW,215,0.0,11.6,58,0.00,,,0.00,VWS V14.01,2013-10-08 21:59:00,
2013-10-08 18:00:00,54.0,40.0,30.29,SW,215,0.0,0.0,59,0.00,,,0.00,VWS V14.01,2013-10-08 22:00:00,
2013-10-08 18:01:00,53.8,40.0,30.29,SW,215,0.0,0.0,60,0.00,,,0.00,VWS V14.01,2013-10-08 22:01:00,
2013-10-08 18:02:00,53.7,39.7,30.29,SW,215,0.0,0.0,59,0.00,,,0.00,VWS V14.01,2013-10-08 22:02:00,
2013-10-08 18:03:00,53.7,39.8,30.29,SW,215,0.0,0.0,59,0.00,,,0.00,VWS V14.01,2013-10-08 22:03:00,
2013-10-08 18:04:00,53.6,39.4,30.29,SW,215,0.0,0.0,58,0.00,,,0.00,VWS V14.01,2013-10-08 22:04:00,
2013-10-08 18:05:00,53.7,39.5,30.29,SW,215,0.0,0.0,58,0.00,,,0.00,VWS V14.01,2013-10-08 22:05:00,
2013-10-08 18:06:00,53.7,39.6,30.29,SW,215,0.0,0.0,59,0.00,,,0.00,VWS V14.01,2013-10-08 22:06:00,
2013-10-08 18:07:00,53.5,39.4,30.29,SW,215,0.0,0.0,59,0.00,,,0.00,VWS V14.01,2013-10-08 22:07:00,
2013-10-08 18:08:00,53.5,39.5,30.30,SW,215,0.0,0.0,59,0.00,,,0.00,VWS V14.01,2013-10-08 22:08:00,
2013-10-08 18:09:00,53.5,39.2,30.29,SW,215,0.0,0.0,58,0.00,,,0.00,VWS V14.01,2013-10-08 22:09:00,
2013-10-08 18:10:00,53.5,39.2,30.29,SW,215,0.0,0.0,58,0.00,,,0.00,VWS V14.01,2013-10-08 22:10:00,
2013-10-08 18:11:00,53.5,39.2,30.29,SW,215,0.0,0.0,58,0.00,,,0.00,VWS V14.01,2013-10-08 22:11:00,
2013-10-08 18:12:00,53.5,39.5,30.29,SW,215,0.0,0.0,59,0.00,,,0.00,VWS V14.01,2013-10-08 22:12:00,
2013-10-08 18:13:00,53.4,39.5,30.29,SW,215,0.0,0.0,59,0.00,,,0.00,VWS V14.01,2013-10-08 22:13:00,
2013-10-08 18:14:00,53.3,39.4,30.29,SW,215,0.0,0.0,59,0.00,,,0.00,VWS V14.01,2013-10-08 22:14:00,
2013-10-08 18:15:00,53.3,39.2,30.29,SW,215,0.0,0.0,59,0.00,,,0.00,VWS V14.01,2013-10-08 22:15:00,
2013-10-08 18:16:00,53.3,39.1,30.29,SW,215,0.0,0.0,58,0.00,,,0.00,VWS V14.01,2013-10-08 22:16:00,
2013-10-08 18:17:00,53.3,39.2,30.29,SW,215,0.0,0.0,59,0.00,,,0.00,VWS V14.01,2013-10-08 22:17:00,
2013-10-08 18:18:00,53.2,39.2,30.29,SW,215,0.0,0.0,59,0.00,,,0.00,VWS V14.01,2013-10-08 22:18:00,
2013-10-08 18:19:00,53.1,39.1,30.29,SW,215,0.0,0.0,59,0.00,,,0.00,VWS V14.01,2013-10-08 22:19:00,
2013-10-08 18:20:00,53.2,39.2,30.29,SW,215,0.0,0.0,59,0.00,,,0.00,VWS V14.01,2013-10-08 22:20:00,
2013-10-08 18:21:00,53.1,39.2,30.29,SW,215,0.0,0.0,59,0.00,,,0.00,VWS V14.01,2013-10-08 22:21:00,
2013-10-08 18:22:00,53.0,39.3,30.29,SW,215,0.0,0.0,60,0.00,,,0.00,VWS V14.01,2013-10-08 22:22:00,
2013-10-08 18:23:00,53.0,39.2,30.29,SW,215,0.0,0.0,59,0.00,,,0.00,VWS V14.01,2013-10-08 22:23:00,
2013-10-08 18:24:00,53.0,39.2,30.29,SW,215,0.0,0.0,59,0.00,,,0.00,VWS V14.01,2013-10-08 22:24:00,
2013-10-08 18:25:00,52.9,39.0,30.29,SW,215,0.0,0.0,59,0.00,,,0.00,VWS V14.01,2013-10-08 22:25:00,
2013-10-08 18:26:00,52.9,38.9,30.29,SW,215,0.0,0.0,59,0.00,,,0.00,VWS V14.01,2013-10-08 22:26:00,
2013-10-08 18:27:00,52.9,38.9,30.29,SW,232,15.7,15.7,59,0.00,,,0.00,VWS V14.01,2013-10-08 22:27:00,
2013-10-08 18:28:00,52.9,39.0,30.29,SSW,195,6.0,15.7,59,0.00,,,0.00,VWS V14.01,2013-10-08 22:28:00,
2013-10-08 18:29:00,52.8,38.9,30.29,SSW,202,3.4,15.7,59,0.00,,,0.00,VWS V14.01,2013-10-08 22:29:00,
2013-10-08 18:30:00,53.0,39.3,30.29,SW,232,4.3,15.7,60,0.00,,,0.00,VWS V14.01,2013-10-08 22:30:00,
2013-10-08 18:31:00,52.8,39.3,30.29,SW,215,1.5,15.7,60,0.00,,,0.00,VWS V14.01,2013-10-08 22:31:00,
2013-10-08 18:32:00,52.8,39.2,30.29,SW,215,0.0,15.7,60,0.00,,,0.00,VWS V14.01,2013-10-08 22:32:00,
2013-10-08 18:33:00,52.7,38.9,30.29,SW,215,0.0,15.7,59,0.00,,,0.00,VWS V14.01,2013-10-08 22:33:00,
2013-10-08 18:34:00,52.6,38.8,30.29,SW,215,0.0,15.7,59,0.00,,,0.00,VWS V14.01,2013-10-08 22:34:00,
2013-10-08 18:35:00,52.7,39.1,30.29,SW,215,0.0,15.7,60,0.00,,,0.00,VWS V14.01,2013-10-08 22:35:00,
2013-10-08 18:36:00,52.6,39.2,30.29,SW,215,0.0,15.7,60,0.00,,,0.00,VWS V14.01,2013-10-08 22:36:00,
2013-10-08 18:37:00,52.6,39.3,30.29,SW,215,0.0,15.7,60,0.00,,,0.00,VWS V14.01,2013-10-08 22:37:00,
2013-10-08 18:38:00,52.5,39.2,30.29,SW,215,0.0,15.7,60,0.00,,,0.00,VWS V14.01,2013-10-08 22:38:00,
2013-10-08 18:39:00,52.5,39.3,30.29,SW,215,0.0,15.7,61,0.00,,,0.00,VWS V14.01,2013-10-08 22:39:00,
2013-10-08 18:40:00,52.5,39.3,30.29,SW,215,0.0,15.7,61,0.00,,,0.00,VWS V14.01,2013-10-08 22:40:00,
2013-10-08 18:41:00,52.5,39.5,30.29,SW,215,0.0,15.7,61,0.00,,,0.00,VWS V14.01,2013-10-08 22:41:00,
2013-10-08 18:42:00,52.4,39.4,30.29,SW,215,0.0,15.7,61,0.00,,,0.00,VWS V14.01,2013-10-08 22:42:00,
2013-10-08 18:43:00,52.3,39.4,30.29,SW,215,0.0,15.7,61,0.00,,,0.00,VWS V14.01,2013-10-08 22:43:00,
2013-10-08 18:44:00,52.4,39.4,30.29,SW,215,0.0,15.7,61,0.00,,,0.00,VWS V14.01,2013-10-08 22:44:00,
2013-10-08 18:45:00,52.4,39.5,30.29,SW,215,0.0,15.7,61,0.00,,,0.00,VWS V14.01,2013-10-08 22:45:00,
2013-10-08 18:46:00,52.3,39.4,30.29,SW,215,0.0,15.7,61,0.00,,,0.00,VWS V14.01,2013-10-08 22:46:00,
2013-10-08 18:47:00,52.2,39.4,30.29,SW,215,0.0,15.7,62,0.00,,,0.00,VWS V14.01,2013-10-08 22:47:00,
2013-10-08 18:48:00,52.2,39.3,30.29,SW,215,0.0,15.7,61,0.00,,,0.00,VWS V14.01,2013-10-08 22:48:00,
2013-10-08 18:49:00,52.1,39.2,30.29,SW,215,0.0,15.7,61,0.00,,,0.00,VWS V14.01,2013-10-08 22:49:00,
2013-10-08 18:50:00,52.2,39.5,30.29,SW,215,0.0,15.7,62,0.00,,,0.00,VWS V14.01,2013-10-08 22:50:00,
2013-10-08 18:51:00,52.0,39.5,30.29,SW,215,0.0,15.7,62,0.00,,,0.00,VWS V14.01,2013-10-08 22:51:00,
2013-10-08 18:52:00,52.1,39.7,30.29,SW,215,0.0,15.7,62,0.00,,,0.00,VWS V14.01,2013-10-08 22:52:00,
2013-10-08 18:53:00,51.9,39.7,30.29,SW,215,0.0,15.7,63,0.00,,,0.00,VWS V14.01,2013-10-08 22:53:00,
2013-10-08 18:54:00,51.9,39.7,30.29,SW,215,0.0,15.7,63,0.00,,,0.00,VWS V14.01,2013-10-08 22:54:00,
2013-10-08 18:55:00,51.8,39.5,30.30,SW,215,0.0,15.7,63,0.00,,,0.00,VWS V14.01,2013-10-08 22:55:00,
2013-10-08 18:56:00,51.9,39.6,30.29,SW,215,0.0,15.7,63,0.00,,,0.00,VWS V14.01,2013-10-08 22:56:00,
2013-10-08 18:57:00,51.7,39.5,30.29,SW,215,0.0,15.7,63,0.00,,,0.00,VWS V14.01,2013-10-08 22:57:00,
2013-10-08 18:58:00,51.8,39.6,30.29,SW,215,0.0,15.7,63,0.00,,,0.00,VWS V14.01,2013-10-08 22:58:00,
2013-10-08 18:59:00,51.7,39.5,30.30,SW,215,0.0,15.7,63,0.00,,,0.00,VWS V14.01,2013-10-08 22:59:00,
2013-10-08 19:00:00,51.7,39.6,30.30,SW,215,0.0,15.7,63,0.00,,,0.00,VWS V14.01,2013-10-08 23:00:00,
2013-10-08 19:01:00,51.8,39.6,30.30,SW,215,0.0,0.0,63,0.00,,,0.00,VWS V14.01,2013-10-08 23:01:00,
2013-10-08 19:02:00,51.8,39.7,30.30,SW,215,0.0,0.0,63,0.00,,,0.00,VWS V14.01,2013-10-08 23:02:00,
2013-10-08 19:03:00,51.8,39.7,30.30,SW,215,0.0,0.0,63,0.00,,,0.00,VWS V14.01,2013-10-08 23:03:00,
2013-10-08 19:04:00,51.7,39.6,30.30,SW,215,0.0,0.0,63,0.00,,,0.00,VWS V14.01,2013-10-08 23:04:00,
2013-10-08 19:05:00,51.6,39.6,30.30,SW,215,0.0,0.0,63,0.00,,,0.00,VWS V14.01,2013-10-08 23:05:00,
2013-10-08 19:06:00,51.7,39.8,30.30,SW,215,0.0,0.0,64,0.00,,,0.00,VWS V14.01,2013-10-08 23:06:00,
2013-10-08 19:07:00,51.7,39.8,30.30,SW,215,0.0,0.0,64,0.00,,,0.00,VWS V14.01,2013-10-08 23:07:00,
2013-10-08 19:08:00,51.6,39.8,30.30,South,181,2.2,4.1,64,0.00,,,0.00,VWS V14.01,2013-10-08 23:08:00,
2013-10-08 19:09:00,51.5,39.7,30.30,SW,218,6.0,13.2,64,0.00,,,0.00,VWS V14.01,2013-10-08 23:09:00,
2013-10-08 19:10:00,51.6,39.9,30.30,SSW,204,2.6,13.2,64,0.00,,,0.00,VWS V14.01,2013-10-08 23:10:00,
2013-10-08 19:11:00,51.5,39.8,30.30,SSW,208,2.6,13.2,64,0.00,,,0.00,VWS V14.01,2013-10-08 23:11:00,
2013-10-08 19:12:00,51.5,39.8,30.30,North,359,0.0,21.8,64,0.00,,,0.00,VWS V14.01,2013-10-08 23:12:00,
2013-10-08 19:13:00,51.5,39.9,30.30,North,359,0.0,21.8,64,0.00,,,0.00,VWS V14.01,2013-10-08 23:13:00,
2013-10-08 19:14:00,51.4,39.9,30.30,North,359,0.0,21.8,65,0.00,,,0.00,VWS V14.01,2013-10-08 23:14:00,
2013-10-08 19:15:00,51.4,39.9,30.30,North,359,0.0,21.8,65,0.00,,,0.00,VWS V14.01,2013-10-08 23:15:00,
2013-10-08 19:16:00,51.3,39.9,30.30,WSW,238,20.9,21.8,65,0.00,,,0.00,VWS V14.01,2013-10-08 23:16:00,
2013-10-08 19:17:00,51.3,40.0,30.30,North,359,0.0,21.8,65,0.00,,,0.00,VWS V14.01,2013-10-08 23:17:00,
2013-10-08 19:18:00,51.2,39.8,30.30,North,359,0.0,21.8,65,0.00,,,0.00,VWS V14.01,2013-10-08 23:18:00,
2013-10-08 19:19:00,51.3,40.0,30.30,SW,222,4.7,21.8,65,0.00,,,0.00,VWS V14.01,2013-10-08 23:19:00,
2013-10-08 19:20:00,51.2,40.0,30.30,SW,218,4.3,21.8,65,0.00,,,0.00,VWS V14.01,2013-10-08 23:20:00,
2013-10-08 19:21:00,51.2,40.0,30.30,SW,218,0.0,21.8,65,0.00,,,0.00,VWS V14.01,2013-10-08 23:21:00,
2013-10-08 19:22:00,51.1,39.9,30.30,SW,218,0.0,21.8,65,0.00,,,0.00,VWS V14.01,2013-10-08 23:22:00,
2013-10-08 19:23:00,51.2,40.0,30.30,North,359,21.1,22.7,66,0.00,,,0.00,VWS V14.01,2013-10-08 23:23:00,
2013-10-08 19:24:00,51.2,40.1,30.30,North,359,22.2,22.7,66,0.00,,,0.00,VWS V14.01,2013-10-08 23:24:00,
2013-10-08 19:25:00,51.1,40.2,30.30,WSW,238,4.5,22.7,66,0.00,,,0.00,VWS V14.01,2013-10-08 23:25:00,
2013-10-08 19:26:00,51.2,40.3,30.30,North,359,18.1,25.9,66,0.00,,,0.00,VWS V14.01,2013-10-08 23:26:00,
2013-10-08 19:27:00,51.2,40.2,30.30,SW,222,8.2,25.9,66,0.00,,,0.00,VWS V14.01,2013-10-08 23:27:00,
2013-10-08 19:28:00,51.1,40.2,30.30,North,359,12.1,25.9,66,0.00,,,0.00,VWS V14.01,2013-10-08 23:28:00,
2013-10-08 19:29:00,51.1,40.3,30.30,SSW,205,4.8,25.9,66,0.00,,,0.00,VWS V14.01,2013-10-08 23:29:00,
2013-10-08 19:30:00,51.1,40.3,30.30,North,359,11.4,25.9,66,0.00,,,0.00,VWS V14.01,2013-10-08 23:30:00,
2013-10-08 19:31:00,51.0,40.2,30.30,SW,218,5.2,25.9,66,0.00,,,0.00,VWS V14.01,2013-10-08 23:31:00,
2013-10-08 19:32:00,51.0,40.2,30.30,SSW,212,4.5,25.9,66,0.00,,,0.00,VWS V14.01,2013-10-08 23:32:00,
2013-10-08 19:33:00,50.9,40.1,30.30,SSW,212,8.2,25.9,66,0.00,,,0.00,VWS V14.01,2013-10-08 23:33:00,
2013-10-08 19:34:00,50.9,40.1,30.30,SSW,212,0.0,25.9,66,0.00,,,0.00,VWS V14.01,2013-10-08 23:34:00,
2013-10-08 19:35:00,50.9,40.2,30.30,SSW,212,0.0,25.9,67,0.00,,,0.00,VWS V14.01,2013-10-08 23:35:00,
2013-10-08 19:36:00,50.8,40.1,30.30,SSW,212,0.0,25.9,67,0.00,,,0.00,VWS V14.01,2013-10-08 23:36:00,
2013-10-08 19:37:00,50.8,40.1,30.30,SSW,200,6.3,25.9,67,0.00,,,0.00,VWS V14.01,2013-10-08 23:37:00,
2013-10-08 19:38:00,50.8,40.1,30.30,SW,214,5.2,25.9,67,0.00,,,0.00,VWS V14.01,2013-10-08 23:38:00,
2013-10-08 19:39:00,50.7,40.1,30.30,SW,225,2.2,25.9,67,0.00,,,0.00,VWS V14.01,2013-10-08 23:39:00,
2013-10-08 19:40:00,50.7,40.1,30.30,SW,225,5.2,25.9,67,0.00,,,0.00,VWS V14.01,2013-10-08 23:40:00,
2013-10-08 19:41:00,50.7,40.2,30.30,SW,225,5.6,25.9,67,0.00,,,0.00,VWS V14.01,2013-10-08 23:41:00,
2013-10-08 19:42:00,50.7,40.3,30.30,SW,225,0.0,25.9,67,0.00,,,0.00,VWS V14.01,2013-10-08 23:42:00,
2013-10-08 19:43:00,50.7,40.3,30.30,SW,225,0.0,25.9,67,0.00,,,0.00,VWS V14.01,2013-10-08 23:43:00,
2013-10-08 19:44:00,50.8,40.4,30.31,SSW,210,0.0,25.9,67,0.00,,,0.00,VWS V14.01,2013-10-08 23:44:00,
2013-10-08 19:45:00,50.7,40.2,30.31,North,359,14.4,25.9,67,0.00,,,0.00,VWS V14.01,2013-10-08 23:45:00,
2013-10-08 19:46:00,50.6,40.2,30.31,SW,215,6.5,25.9,67,0.00,,,0.00,VWS V14.01,2013-10-08 23:46:00,
2013-10-08 19:47:00,50.7,40.4,30.31,SSW,205,5.4,25.9,68,0.00,,,0.00,VWS V14.01,2013-10-08 23:47:00,
2013-10-08 19:48:00,50.7,40.5,30.31,SSW,205,2.8,25.9,68,0.00,,,0.00,VWS V14.01,2013-10-08 23:48:00,
2013-10-08 19:49:00,50.6,40.4,30.31,SSW,212,5.0,25.9,68,0.00,,,0.00,VWS V14.01,2013-10-08 23:49:00,
2013-10-08 19:50:00,50.5,40.5,30.31,SSW,212,3.7,25.9,68,0.00,,,0.00,VWS V14.01,2013-10-08 23:50:00,
2013-10-08 19:51:00,50.4,40.4,30.31,SSW,210,6.7,25.9,68,0.00,,,0.00,VWS V14.01,2013-10-08 23:51:00,
2013-10-08 19:52:00,50.4,40.4,30.31,SSW,205,2.6,25.9,68,0.00,,,0.00,VWS V14.01,2013-10-08 23:52:00,
2013-10-08 19:53:00,50.4,40.4,30.31,SSW,205,5.2,25.9,68,0.00,,,0.00,VWS V14.01,2013-10-08 23:53:00,
2013-10-08 19:54:00,50.3,40.3,30.31,SSW,197,4.8,25.9,68,0.00,,,0.00,VWS V14.01,2013-10-08 23:54:00,
2013-10-08 19:55:00,50.2,40.2,30.31,SSW,198,7.5,25.9,68,0.00,,,0.00,VWS V14.01,2013-10-08 23:55:00,
2013-10-08 19:56:00,50.1,40.2,30.31,SSW,198,4.5,25.9,69,0.00,,,0.00,VWS V14.01,2013-10-08 23:56:00,
2013-10-08 19:57:00,50.2,40.4,30.31,SW,217,0.0,25.9,69,0.00,,,0.00,VWS V14.01,2013-10-08 23:57:00,
2013-10-08 19:58:00,50.0,40.2,30.31,North,359,0.0,25.9,69,0.00,,,0.00,VWS V14.01,2013-10-08 23:58:00,
2013-10-08 19:59:00,50.0,40.3,30.31,North,359,0.0,25.9,69,0.00,,,0.00,VWS V14.01,2013-10-08 23:59:00,
2013-10-08 20:00:00,50.0,40.3,30.31,North,359,0.0,25.9,69,0.00,,,0.00,VWS V14.01,2013-10-09 00:00:00,
2013-10-08 20:01:00,49.9,40.4,30.31,North,359,0.0,16.4,70,0.00,,,0.00,VWS V14.01,2013-10-09 00:01:00,
2013-10-08 20:02:00,49.9,40.4,30.31,North,359,0.0,16.4,70,0.00,,,0.00,VWS V14.01,2013-10-09 00:02:00,
2013-10-08 20:03:00,49.9,40.6,30.31,North,359,0.0,16.4,70,0.00,,,0.00,VWS V14.01,2013-10-09 00:03:00,
2013-10-08 20:04:00,49.9,40.6,30.31,North,359,0.0,18.3,70,0.00,,,0.00,VWS V14.01,2013-10-09 00:04:00,
2013-10-08 20:05:00,49.9,40.6,30.31,North,359,0.0,18.3,70,0.00,,,0.00,VWS V14.01,2013-10-09 00:05:00,
2013-10-08 20:06:00,49.9,40.6,30.31,North,359,0.0,18.3,70,0.00,,,0.00,VWS V14.01,2013-10-09 00:06:00,
2013-10-08 20:07:00,49.9,40.7,30.31,SW,215,8.2,18.3,70,0.00,,,0.00,VWS V14.01,2013-10-09 00:07:00,
2013-10-08 20:08:00,49.9,40.8,30.31,SW,215,0.0,18.3,71,0.00,,,0.00,VWS V14.01,2013-10-09 00:08:00,
2013-10-08 20:09:00,49.8,40.8,30.31,SW,215,0.0,18.3,71,0.00,,,0.00,VWS V14.01,2013-10-09 00:09:00,
2013-10-08 20:10:00,49.9,40.9,30.31,North,359,6.3,24.0,71,0.00,,,0.00,VWS V14.01,2013-10-09 00:10:00,
2013-10-08 20:11:00,49.8,40.9,30.31,North,359,0.0,24.0,71,0.00,,,0.00,VWS V14.01,2013-10-09 00:11:00,
2013-10-08 20:12:00,49.8,40.9,30.31,North,359,0.0,24.0,71,0.00,,,0.00,VWS V14.01,2013-10-09 00:12:00,
2013-10-08 20:13:00,49.8,40.9,30.31,SSW,210,0.0,28.3,71,0.00,,,0.00,VWS V14.01,2013-10-09 00:13:00,
2013-10-08 20:14:00,49.7,40.9,30.31,SSW,210,0.0,28.3,72,0.00,,,0.00,VWS V14.01,2013-10-09 00:14:00,
2013-10-08 20:15:00,49.7,40.9,30.31,SSW,210,0.0,28.3,72,0.00,,,0.00,VWS V14.01,2013-10-09 00:15:00,
2013-10-08 20:16:00,49.7,40.9,30.31,SSW,210,0.0,28.3,72,0.00,,,0.00,VWS V14.01,2013-10-09 00:16:00,
2013-10-08 20:17:00,49.7,41.0,30.31,North,359,0.0,28.3,72,0.00,,,0.00,VWS V14.01,2013-10-09 00:17:00,
2013-10-08 20:18:00,49.6,40.9,30.31,North,359,0.0,28.3,72,0.00,,,0.00,VWS V14.01,2013-10-09 00:18:00,
2013-10-08 20:19:00,49.7,40.9,30.31,North,359,0.0,28.3,72,0.00,,,0.00,VWS V14.01,2013-10-09 00:19:00,
2013-10-08 20:20:00,49.7,40.9,30.31,North,359,18.3,28.3,72,0.00,,,0.00,VWS V14.01,2013-10-09 00:20:00,
2013-10-08 20:21:00,49.6,40.9,30.31,North,359,0.0,28.3,72,0.00,,,0.00,VWS V14.01,2013-10-09 00:21:00,
2013-10-08 20:22:00,49.6,41.0,30.31,North,359,0.0,28.3,72,0.00,,,0.00,VWS V14.01,2013-10-09 00:22:00,
2013-10-08 20:23:00,49.6,41.0,30.31,North,359,0.0,28.3,72,0.00,,,0.00,VWS V14.01,2013-10-09 00:23:00,
2013-10-08 20:24:00,49.7,41.2,30.31,North,359,0.0,28.3,72,0.00,,,0.00,VWS V14.01,2013-10-09 00:24:00,
2013-10-08 20:25:00,49.5,41.0,30.31,North,359,0.0,28.3,72,0.00,,,0.00,VWS V14.01,2013-10-09 00:25:00,
2013-10-08 20:26:00,49.5,41.0,30.31,North,359,0.0,28.3,72,0.00,,,0.00,VWS V14.01,2013-10-09 00:26:00,
2013-10-08 20:27:00,49.5,41.1,30.31,North,359,0.0,28.3,73,0.00,,,0.00,VWS V14.01,2013-10-09 00:27:00,
2013-10-08 20:28:00,49.3,40.8,30.31,North,359,0.0,28.3,72,0.00,,,0.00,VWS V14.01,2013-10-09 00:28:00,
2013-10-08 20:29:00,49.4,41.0,30.31,North,359,0.0,28.3,73,0.00,,,0.00,VWS V14.01,2013-10-09 00:29:00,
2013-10-08 20:30:00,49.4,41.0,30.31,North,359,0.0,28.3,73,0.00,,,0.00,VWS V14.01,2013-10-09 00:30:00,
2013-10-08 20:31:00,49.2,40.7,30.31,North,359,0.0,28.3,72,0.00,,,0.00,VWS V14.01,2013-10-09 00:31:00,
2013-10-08 20:32:00,49.3,40.8,30.31,North,359,0.0,28.3,72,0.00,,,0.00,VWS V14.01,2013-10-09 00:32:00,
2013-10-08 20:33:00,49.3,40.8,30.31,North,359,0.0,28.3,72,0.00,,,0.00,VWS V14.01,2013-10-09 00:33:00,
2013-10-08 20:34:00,49.2,40.8,30.32,North,359,0.0,28.3,73,0.00,,,0.00,VWS V14.01,2013-10-09 00:34:00,
2013-10-08 20:35:00,49.3,40.9,30.31,North,359,0.0,28.3,73,0.00,,,0.00,VWS V14.01,2013-10-09 00:35:00,
2013-10-08 20:36:00,49.3,41.0,30.32,North,359,0.0,28.3,73,0.00,,,0.00,VWS V14.01,2013-10-09 00:36:00,
2013-10-08 20:37:00,49.3,41.0,30.32,North,359,0.0,28.3,73,0.00,,,0.00,VWS V14.01,2013-10-09 00:37:00,
2013-10-08 20:38:00,49.3,41.1,30.32,North,359,1.3,28.3,73,0.00,,,0.00,VWS V14.01,2013-10-09 00:38:00,
2013-10-08 20:39:00,49.3,41.0,30.32,SSW,211,0.0,28.3,73,0.00,,,0.00,VWS V14.01,2013-10-09 00:39:00,
2013-10-08 20:40:00,49.3,41.0,30.32,North,359,2.6,28.3,73,0.00,,,0.00,VWS V14.01,2013-10-09 00:40:00,
2013-10-08 20:41:00,49.2,40.9,30.32,North,359,8.0,28.3,73,0.00,,,0.00,VWS V14.01,2013-10-09 00:41:00,
2013-10-08 20:42:00,49.2,41.0,30.32,SSW,204,0.0,28.3,73,0.00,,,0.00,VWS V14.01,2013-10-09 00:42:00,
2013-10-08 20:43:00,49.1,40.8,30.32,SSW,204,0.0,28.3,73,0.00,,,0.00,VWS V14.01,2013-10-09 00:43:00,
2013-10-08 20:44:00,49.2,40.9,30.32,SSW,204,0.0,28.3,73,0.00,,,0.00,VWS V14.01,2013-10-09 00:44:00,
2013-10-08 20:45:00,49.2,40.9,30.32,South,176,0.0,28.3,73,0.00,,,0.00,VWS V14.01,2013-10-09 00:45:00,
2013-10-08 20:46:00,49.1,40.8,30.32,South,176,0.0,28.3,73,0.00,,,0.00,VWS V14.01,2013-10-09 00:46:00,
2013-10-08 20:47:00,49.2,40.9,30.32,South,176,0.0,28.3,73,0.00,,,0.00,VWS V14.01,2013-10-09 00:47:00,
2013-10-08 20:48:00,49.1,40.8,30.33,South,176,0.0,28.3,73,0.00,,,0.00,VWS V14.01,2013-10-09 00:48:00,
2013-10-08 20:49:00,49.2,40.9,30.33,South,176,0.0,28.3,73,0.00,,,0.00,VWS V14.01,2013-10-09 00:49:00,
2013-10-08 20:50:00,49.1,40.7,30.33,South,176,22.2,28.3,73,0.00,,,0.00,VWS V14.01,2013-10-09 00:50:00,
2013-10-08 20:51:00,49.1,40.8,30.33,North,359,0.0,28.3,73,0.00,,,0.00,VWS V14.01,2013-10-09 00:51:00,
2013-10-08 20:52:00,49.1,40.8,30.32,North,359,0.0,28.3,73,0.00,,,0.00,VWS V14.01,2013-10-09 00:52:00,
2013-10-08 20:53:00,49.1,40.8,30.32,North,359,21.8,28.9,73,0.00,,,0.00,VWS V14.01,2013-10-09 00:53:00,
2013-10-08 20:54:00,49.1,40.8,30.32,North,359,27.6,28.9,73,0.00,,,0.00,VWS V14.01,2013-10-09 00:54:00,
2013-10-08 20:55:00,49.1,40.8,30.32,North,359,20.9,28.9,73,0.00,,,0.00,VWS V14.01,2013-10-09 00:55:00,
2013-10-08 20:56:00,49.1,40.8,30.32,SW,225,0.0,29.3,73,0.00,,,0.00,VWS V14.01,2013-10-09 00:56:00,
2013-10-08 20:57:00,49.2,40.9,30.32,SW,225,0.0,29.3,73,0.00,,,0.00,VWS V14.01,2013-10-09 00:57:00,
2013-10-08 20:58:00,49.1,40.8,30.32,North,359,1.1,29.3,73,0.00,,,0.00,VWS V14.01,2013-10-09 00:58:00,
2013-10-08 20:59:00,49.1,40.8,30.32,North,359,29.1,29.3,73,0.00,,,0.00,VWS V14.01,2013-10-09 00:59:00,
2013-10-08 21:00:00,49.1,40.7,30.32,North,359,8.0,29.3,73,0.00,,,0.00,VWS V14.01,2013-10-09 01:00:00,
2013-10-08 21:01:00,49.1,40.8,30.32,North,359,0.0,28.9,73,0.00,,,0.00,VWS V14.01,2013-10-09 01:01:00,
2013-10-08 21:02:00,49.0,40.7,30.32,North,359,0.0,28.9,73,0.00,,,0.00,VWS V14.01,2013-10-09 01:02:00,
2013-10-08 21:03:00,49.1,40.7,30.32,SSW,198,0.0,28.9,73,0.00,,,0.00,VWS V14.01,2013-10-09 01:03:00,
2013-10-08 21:04:00,49.1,40.8,30.32,SSW,198,0.0,28.9,73,0.00,,,0.00,VWS V14.01,2013-10-09 01:04:00,
2013-10-08 21:05:00,49.0,40.7,30.32,North,359,0.0,28.9,73,0.00,,,0.00,VWS V14.01,2013-10-09 01:05:00,
2013-10-08 21:06:00,49.1,40.8,30.32,North,359,0.0,28.9,73,0.00,,,0.00,VWS V14.01,2013-10-09 01:06:00,
2013-10-08 21:07:00,49.1,40.8,30.32,North,359,0.0,28.9,73,0.00,,,0.00,VWS V14.01,2013-10-09 01:07:00,
2013-10-08 21:08:00,49.1,40.7,30.32,North,359,21.1,28.9,73,0.00,,,0.00,VWS V14.01,2013-10-09 01:08:00,
2013-10-08 21:09:00,49.1,40.7,30.32,North,359,20.9,28.9,73,0.00,,,0.00,VWS V14.01,2013-10-09 01:09:00,
2013-10-08 21:10:00,49.1,40.7,30.32,North,359,0.0,28.9,73,0.00,,,0.00,VWS V14.01,2013-10-09 01:10:00,
2013-10-08 21:11:00,49.0,40.6,30.32,North,359,0.0,28.9,72,0.00,,,0.00,VWS V14.01,2013-10-09 01:11:00,
2013-10-08 21:12:00,49.1,40.7,30.32,North,359,0.0,28.9,72,0.00,,,0.00,VWS V14.01,2013-10-09 01:12:00,
2013-10-08 21:13:00,49.0,40.6,30.32,SSW,207,0.0,28.9,73,0.00,,,0.00,VWS V14.01,2013-10-09 01:13:00,
2013-10-08 21:14:00,49.0,40.6,30.32,North,359,0.0,28.9,73,0.00,,,0.00,VWS V14.01,2013-10-09 01:14:00,
2013-10-08 21:15:00,49.0,40.6,30.32,SSW,211,0.0,28.9,72,0.00,,,0.00,VWS V14.01,2013-10-09 01:15:00,
2013-10-08 21:16:00,49.0,40.5,30.32,North,359,0.0,29.3,72,0.00,,,0.00,VWS V14.01,2013-10-09 01:16:00,
2013-10-08 21:17:00,49.0,40.5,30.32,SSW,211,0.0,29.3,72,0.00,,,0.00,VWS V14.01,2013-10-09 01:17:00,
2013-10-08 21:18:00,49.0,40.5,30.32,North,359,10.8,29.3,72,0.00,,,0.00,VWS V14.01,2013-10-09 01:18:00,
2013-10-08 21:19:00,49.0,40.5,30.32,SSE,158,11.4,29.3,72,0.00,,,0.00,VWS V14.01,2013-10-09 01:19:00,
2013-10-08 21:20:00,49.0,40.5,30.32,North,359,26.7,29.3,72,0.00,,,0.00,VWS V14.01,2013-10-09 01:20:00,
2013-10-08 21:21:00,49.1,40.6,30.32,SSW,193,11.6,29.3,72,0.00,,,0.00,VWS V14.01,2013-10-09 01:21:00,
2013-10-08 21:22:00,48.9,40.3,30.32,North,359,23.5,29.3,72,0.00,,,0.00,VWS V14.01,2013-10-09 01:22:00,
2013-10-08 21:23:00,49.0,40.5,30.32,North,359,22.4,29.3,72,0.00,,,0.00,VWS V14.01,2013-10-09 01:23:00,
2013-10-08 21:24:00,49.1,40.6,30.32,North,359,5.2,29.3,72,0.00,,,0.00,VWS V14.01,2013-10-09 01:24:00,
2013-10-08 21:25:00,48.9,40.4,30.32,North,359,24.0,29.3,72,0.00,,,0.00,VWS V14.01,2013-10-09 01:25:00,
2013-10-08 21:26:00,49.1,40.6,30.32,North,359,0.7,29.3,72,0.00,,,0.00,VWS V14.01,2013-10-09 01:26:00,
2013-10-08 21:27:00,48.9,40.5,30.32,North,359,0.0,29.3,72,0.00,,,0.00,VWS V14.01,2013-10-09 01:27:00,
2013-10-08 21:28:00,49.0,40.6,30.32,North,359,8.2,29.3,73,0.00,,,0.00,VWS V14.01,2013-10-09 01:28:00,
2013-10-08 21:29:00,49.0,40.6,30.32,North,359,0.0,29.3,73,0.00,,,0.00,VWS V14.01,2013-10-09 01:29:00,
2013-10-08 21:30:00,48.9,40.5,30.32,North,359,0.0,29.3,73,0.00,,,0.00,VWS V14.01,2013-10-09 01:30:00,
2013-10-08 21:31:00,48.9,40.5,30.33,North,359,0.0,29.3,73,0.00,,,0.00,VWS V14.01,2013-10-09 01:31:00,
2013-10-08 21:32:00,48.9,40.6,30.33,North,359,0.0,29.3,73,0.00,,,0.00,VWS V14.01,2013-10-09 01:32:00,
2013-10-08 21:33:00,48.9,40.6,30.33,North,359,0.0,29.3,73,0.00,,,0.00,VWS V14.01,2013-10-09 01:33:00,
2013-10-08 21:34:00,48.9,40.5,30.33,North,359,0.0,29.3,73,0.00,,,0.00,VWS V14.01,2013-10-09 01:34:00,
2013-10-08 21:35:00,48.9,40.5,30.33,North,359,0.0,29.3,73,0.00,,,0.00,VWS V14.01,2013-10-09 01:35:00,
2013-10-08 21:36:00,48.8,40.4,30.33,North,359,0.0,29.3,73,0.00,,,0.00,VWS V14.01,2013-10-09 01:36:00,
2013-10-08 21:37:00,48.9,40.5,30.33,North,359,0.0,29.3,72,0.00,,,0.00,VWS V14.01,2013-10-09 01:37:00,
2013-10-08 21:38:00,48.8,40.5,30.33,North,359,0.0,29.3,73,0.00,,,0.00,VWS V14.01,2013-10-09 01:38:00,
2013-10-08 21:39:00,48.8,40.5,30.33,North,359,0.0,29.3,73,0.00,,,0.00,VWS V14.01,2013-10-09 01:39:00,
2013-10-08 21:40:00,48.9,40.6,30.33,South,183,8.4,29.3,73,0.00,,,0.00,VWS V14.01,2013-10-09 01:40:00,
2013-10-08 21:41:00,48.8,40.5,30.33,South,183,0.0,29.3,73,0.00,,,0.00,VWS V14.01,2013-10-09 01:41:00,
2013-10-08 21:42:00,48.8,40.6,30.33,North,359,0.0,29.3,73,0.00,,,0.00,VWS V14.01,2013-10-09 01:42:00,
2013-10-08 21:43:00,48.8,40.6,30.33,North,359,22.2,29.3,73,0.00,,,0.00,VWS V14.01,2013-10-09 01:43:00,
2013-10-08 21:44:00,48.7,40.5,30.32,North,359,20.7,29.3,73,0.00,,,0.00,VWS V14.01,2013-10-09 01:44:00,
2013-10-08 21:45:00,48.7,40.5,30.32,North,359,0.0,29.3,73,0.00,,,0.00,VWS V14.01,2013-10-09 01:45:00,
2013-10-08 21:46:00,48.7,40.5,30.32,North,359,0.0,29.3,73,0.00,,,0.00,VWS V14.01,2013-10-09 01:46:00,
2013-10-08 21:47:00,48.7,40.5,30.33,North,359,0.0,29.3,73,0.00,,,0.00,VWS V14.01,2013-10-09 01:47:00,
2013-10-08 21:48:00,48.6,40.4,30.32,North,359,0.0,29.3,73,0.00,,,0.00,VWS V14.01,2013-10-09 01:48:00,
2013-10-08 21:49:00,48.6,40.4,30.33,North,359,0.0,29.3,73,0.00,,,0.00,VWS V14.01,2013-10-09 01:49:00,
2013-10-08 21:50:00,48.7,40.6,30.33,North,359,0.0,29.3,74,0.00,,,0.00,VWS V14.01,2013-10-09 01:50:00,
2013-10-08 21:51:00,48.5,40.4,30.33,North,359,0.0,29.3,73,0.00,,,0.00,VWS V14.01,2013-10-09 01:51:00,
2013-10-08 21:52:00,48.6,40.5,30.33,North,359,0.0,29.3,73,0.00,,,0.00,VWS V14.01,2013-10-09 01:52:00,
2013-10-08 21:53:00,48.6,40.5,30.33,North,359,0.0,29.3,74,0.00,,,0.00,VWS V14.01,2013-10-09 01:53:00,
2013-10-08 21:54:00,48.5,40.5,30.33,SSW,207,0.0,29.3,74,0.00,,,0.00,VWS V14.01,2013-10-09 01:54:00,
2013-10-08 21:55:00,48.5,40.4,30.33,SSW,207,0.0,29.3,74,0.00,,,0.00,VWS V14.01,2013-10-09 01:55:00,
2013-10-08 21:56:00,48.4,40.3,30.32,SSW,207,0.0,29.3,74,0.00,,,0.00,VWS V14.01,2013-10-09 01:56:00,
2013-10-08 21:57:00,48.5,40.5,30.33,SSW,207,0.0,29.3,74,0.00,,,0.00,VWS V14.01,2013-10-09 01:57:00,
2013-10-08 21:58:00,48.5,40.5,30.32,North,359,18.8,29.3,74,0.00,,,0.00,VWS V14.01,2013-10-09 01:58:00,
2013-10-08 21:59:00,48.4,40.3,30.32,North,359,23.5,29.3,73,0.00,,,0.00,VWS V14.01,2013-10-09 01:59:00,
2013-10-08 22:00:00,48.5,40.4,30.32,North,359,0.0,29.3,73,0.00,,,0.00,VWS V14.01,2013-10-09 02:00:00,
2013-10-08 22:01:00,48.4,40.3,30.32,North,359,0.0,23.9,74,0.00,,,0.00,VWS V14.01,2013-10-09 02:01:00,
2013-10-08 22:02:00,48.5,40.5,30.32,SSW,208,0.0,23.9,74,0.00,,,0.00,VWS V14.01,2013-10-09 02:02:00,
2013-10-08 22:03:00,48.5,40.5,30.32,North,359,0.0,28.7,74,0.00,,,0.00,VWS V14.01,2013-10-09 02:03:00,
2013-10-08 22:04:00,48.5,40.5,30.32,North,359,0.0,28.7,74,0.00,,,0.00,VWS V14.01,2013-10-09 02:04:00,
2013-10-08 22:05:00,48.4,40.4,30.32,North,359,0.0,28.7,74,0.00,,,0.00,VWS V14.01,2013-10-09 02:05:00,
2013-10-08 22:06:00,48.4,40.4,30.32,South,174,0.0,28.7,74,0.00,,,0.00,VWS V14.01,2013-10-09 02:06:00,
2013-10-08 22:07:00,48.5,40.5,30.32,North,359,0.0,28.7,74,0.00,,,0.00,VWS V14.01,2013-10-09 02:07:00,
2013-10-08 22:08:00,48.5,40.5,30.32,SW,228,12.7,28.7,74,0.00,,,0.00,VWS V14.01,2013-10-09 02:08:00,
2013-10-08 22:09:00,48.5,40.5,30.32,SW,228,0.0,28.7,74,0.00,,,0.00,VWS V14.01,2013-10-09 02:09:00,
2013-10-08 22:10:00,48.4,40.4,30.32,SW,228,0.0,28.7,74,0.00,,,0.00,VWS V14.01,2013-10-09 02:10:00,
2013-10-08 22:11:00,48.4,40.4,30.32,North,359,0.0,28.7,74,0.00,,,0.00,VWS V14.01,2013-10-09 02:11:00,
2013-10-08 22:12:00,48.6,40.6,30.32,North,359,8.9,28.7,74,0.00,,,0.00,VWS V14.01,2013-10-09 02:12:00,
2013-10-08 22:13:00,48.5,40.6,30.32,North,359,0.0,28.7,74,0.00,,,0.00,VWS V14.01,2013-10-09 02:13:00,
2013-10-08 22:14:00,48.5,40.6,30.32,North,359,0.0,28.7,74,0.00,,,0.00,VWS V14.01,2013-10-09 02:14:00,
2013-10-08 22:15:00,48.6,40.7,30.32,North,359,0.0,28.7,74,0.00,,,0.00,VWS V14.01,2013-10-09 02:15:00,
2013-10-08 22:16:00,48.4,40.5,30.32,North,359,0.0,28.7,74,0.00,,,0.00,VWS V14.01,2013-10-09 02:16:00,
2013-10-08 22:17:00,48.5,40.5,30.32,North,359,0.0,28.9,74,0.00,,,0.00,VWS V14.01,2013-10-09 02:17:00,
2013-10-08 22:18:00,48.4,40.4,30.32,North,359,0.0,28.9,74,0.00,,,0.00,VWS V14.01,2013-10-09 02:18:00,
2013-10-08 22:19:00,48.5,40.5,30.32,North,359,0.0,28.9,74,0.00,,,0.00,VWS V14.01,2013-10-09 02:19:00,
2013-10-08 22:20:00,48.5,40.5,30.32,North,359,25.2,28.9,74,0.00,,,0.00,VWS V14.01,2013-10-09 02:20:00,
2013-10-08 22:21:00,48.4,40.5,30.32,North,359,0.0,28.9,74,0.00,,,0.00,VWS V14.01,2013-10-09 02:21:00,
2013-10-08 22:22:00,48.4,40.5,30.32,North,359,0.0,28.9,74,0.00,,,0.00,VWS V14.01,2013-10-09 02:22:00,
2013-10-08 22:23:00,48.4,40.4,30.32,North,359,0.0,28.9,74,0.00,,,0.00,VWS V14.01,2013-10-09 02:23:00,
2013-10-08 22:24:00,48.3,40.3,30.32,North,359,0.0,28.9,74,0.00,,,0.00,VWS V14.01,2013-10-09 02:24:00,
2013-10-08 22:25:00,48.4,40.4,30.32,North,359,8.9,28.9,74,0.00,,,0.00,VWS V14.01,2013-10-09 02:25:00,
2013-10-08 22:26:00,48.3,40.4,30.32,South,188,11.9,28.9,74,0.00,,,0.00,VWS V14.01,2013-10-09 02:26:00,
2013-10-08 22:27:00,48.3,40.3,30.32,North,359,0.0,28.9,74,0.00,,,0.00,VWS V14.01,2013-10-09 02:27:00,
2013-10-08 22:28:00,48.3,40.4,30.32,North,359,11.7,28.9,74,0.00,,,0.00,VWS V14.01,2013-10-09 02:28:00,
2013-10-08 22:29:00,48.3,40.5,30.32,North,359,0.0,28.9,74,0.00,,,0.00,VWS V14.01,2013-10-09 02:29:00,
2013-10-08 22:30:00,48.3,40.5,30.32,North,359,0.0,28.9,74,0.00,,,0.00,VWS V14.01,2013-10-09 02:30:00,
2013-10-08 22:31:00,48.2,40.4,30.32,North,359,0.0,28.9,74,0.00,,,0.00,VWS V14.01,2013-10-09 02:31:00,
2013-10-08 22:32:00,48.2,40.4,30.32,North,359,0.0,28.9,74,0.00,,,0.00,VWS V14.01,2013-10-09 02:32:00,
2013-10-08 22:33:00,48.2,40.3,30.32,North,359,0.0,28.9,74,0.00,,,0.00,VWS V14.01,2013-10-09 02:33:00,
2013-10-08 22:34:00,48.2,40.3,30.32,North,359,0.0,28.9,74,0.00,,,0.00,VWS V14.01,2013-10-09 02:34:00,
2013-10-08 22:35:00,48.1,40.3,30.32,North,359,0.0,28.9,74,0.00,,,0.00,VWS V14.01,2013-10-09 02:35:00,
2013-10-08 22:36:00,48.1,40.2,30.32,North,359,0.0,28.9,74,0.00,,,0.00,VWS V14.01,2013-10-09 02:36:00,
2013-10-08 22:37:00,48.1,40.2,30.32,North,359,0.0,28.9,74,0.00,,,0.00,VWS V14.01,2013-10-09 02:37:00,
2013-10-08 22:38:00,48.1,40.2,30.32,North,359,0.0,28.9,74,0.00,,,0.00,VWS V14.01,2013-10-09 02:38:00,
2013-10-08 22:39:00,48.0,40.1,30.32,North,359,0.0,28.9,74,0.00,,,0.00,VWS V14.01,2013-10-09 02:39:00,
2013-10-08 22:40:00,48.0,40.2,30.32,North,359,0.0,28.9,74,0.00,,,0.00,VWS V14.01,2013-10-09 02:40:00,
2013-10-08 22:41:00,48.1,40.2,30.32,North,359,0.0,28.9,74,0.00,,,0.00,VWS V14.01,2013-10-09 02:41:00,
2013-10-08 22:42:00,48.0,40.2,30.32,North,359,0.0,28.9,74,0.00,,,0.00,VWS V14.01,2013-10-09 02:42:00,
2013-10-08 22:43:00,48.0,40.2,30.32,North,359,0.0,28.9,74,0.00,,,0.00,VWS V14.01,2013-10-09 02:43:00,
2013-10-08 22:44:00,48.1,40.4,30.32,North,359,0.0,28.9,74,0.00,,,0.00,VWS V14.01,2013-10-09 02:44:00,
2013-10-08 22:45:00,48.0,40.2,30.32,North,359,0.0,28.9,74,0.00,,,0.00,VWS V14.01,2013-10-09 02:45:00,
2013-10-08 22:46:00,48.1,40.3,30.32,North,359,0.0,28.9,74,0.00,,,0.00,VWS V14.01,2013-10-09 02:46:00,
2013-10-08 22:47:00,48.0,40.2,30.32,North,359,0.0,28.9,74,0.00,,,0.00,VWS V14.01,2013-10-09 02:47:00,
2013-10-08 22:48:00,48.0,40.2,30.32,North,359,0.0,28.9,74,0.00,,,0.00,VWS V14.01,2013-10-09 02:48:00,
2013-10-08 22:49:00,48.0,40.3,30.32,North,359,0.0,28.9,74,0.00,,,0.00,VWS V14.01,2013-10-09 02:49:00,
2013-10-08 22:50:00,48.0,40.3,30.32,North,359,0.0,28.9,74,0.00,,,0.00,VWS V14.01,2013-10-09 02:50:00,
2013-10-08 22:51:00,48.0,40.3,30.32,North,359,0.0,28.9,75,0.00,,,0.00,VWS V14.01,2013-10-09 02:51:00,
2013-10-08 22:52:00,47.9,40.3,30.32,North,359,0.0,28.9,75,0.00,,,0.00,VWS V14.01,2013-10-09 02:52:00,
2013-10-08 22:53:00,47.9,40.3,30.32,North,359,0.0,28.9,75,0.00,,,0.00,VWS V14.01,2013-10-09 02:53:00,
2013-10-08 22:54:00,47.9,40.3,30.32,North,359,0.0,28.9,75,0.00,,,0.00,VWS V14.01,2013-10-09 02:54:00,
2013-10-08 22:55:00,47.8,40.2,30.32,North,359,0.0,28.9,75,0.00,,,0.00,VWS V14.01,2013-10-09 02:55:00,
2013-10-08 22:56:00,47.7,40.1,30.32,North,359,0.0,28.9,75,0.00,,,0.00,VWS V14.01,2013-10-09 02:56:00,
2013-10-08 22:57:00,47.8,40.3,30.32,North,359,0.0,28.9,75,0.00,,,0.00,VWS V14.01,2013-10-09 02:57:00,
2013-10-08 22:58:00,47.8,40.3,30.32,North,359,0.0,28.9,75,0.00,,,0.00,VWS V14.01,2013-10-09 02:58:00,
2013-10-08 22:59:00,47.7,40.2,30.32,North,359,0.0,28.9,75,0.00,,,0.00,VWS V14.01,2013-10-09 02:59:00,
2013-10-08 23:00:00,47.6,40.1,30.33,North,359,0.0,28.9,75,0.00,,,0.00,VWS V14.01,2013-10-09 03:00:00,
2013-10-08 23:01:00,47.6,40.2,30.33,North,359,0.0,0.0,75,0.00,,,0.00,VWS V14.01,2013-10-09 03:01:00,
2013-10-08 23:02:00,47.6,40.3,30.33,North,359,0.0,0.0,76,0.00,,,0.00,VWS V14.01,2013-10-09 03:02:00,
2013-10-08 23:03:00,47.5,40.1,30.32,North,359,0.0,0.0,75,0.00,,,0.00,VWS V14.01,2013-10-09 03:03:00,
2013-10-08 23:04:00,47.6,40.3,30.33,North,359,0.0,0.0,76,0.00,,,0.00,VWS V14.01,2013-10-09 03:04:00,
2013-10-08 23:05:00,47.7,40.4,30.33,North,359,0.0,0.0,76,0.00,,,0.00,VWS V14.01,2013-10-09 03:05:00,
2013-10-08 23:06:00,47.5,40.3,30.33,North,359,0.0,0.0,76,0.00,,,0.00,VWS V14.01,2013-10-09 03:06:00,
2013-10-08 23:07:00,47.5,40.3,30.32,North,359,0.0,0.0,76,0.00,,,0.00,VWS V14.01,2013-10-09 03:07:00,
2013-10-08 23:08:00,47.5,40.3,30.33,North,359,0.0,0.0,76,0.00,,,0.00,VWS V14.01,2013-10-09 03:08:00,
2013-10-08 23:09:00,47.4,40.2,30.32,North,359,0.0,0.0,76,0.00,,,0.00,VWS V14.01,2013-10-09 03:09:00,
2013-10-08 23:10:00,47.4,40.3,30.32,North,359,0.0,0.0,76,0.00,,,0.00,VWS V14.01,2013-10-09 03:10:00,